GFSNE_prec_precacc_006.txt.gz
Total_Precipitation_Accumulation
0.00 0.00 0.00 0.00 0.00 0.00 0.00 0.00 0.00 0.00 0.00 0.00 0.00 0.00 0.00 0.00 0.00 0.00 0.00 0.00 0.00 0.00 0.00 0.00 0.00 0.00 0.00 0.00 0.00 0.00 0.00 0.00 0.04 0.10 0.16 0.22 0.30 0.42
0.00 0.00 0.00 0.00 0.00 0.00 0.00 0.00 0.00 0.00 0.00 0.00 0.00 0.00 0.00 0.00 0.00 0.00 0.00 0.00 0.00 0.00 0.00 0.00 0.00 0.00 0.00 0.00 0.00 0.00 0.00 0.00 0.00 0.02 0.05 0.09 0.15 0.21
0.00 0.00 0.00 0.00 0.00 0.00 0.00 0.00 0.00 0.00 0.00 0.00 0.00 0.00 0.00 0.00 0.00 0.00 0.00 0.00 0.00 0.00 0.00 0.00 0.00 0.00 0.00 0.00 0.00 0.00 0.00 0.00 0.02 0.02 0.03 0.07 0.11 0.14
0.00 0.00 0.00 0.00 0.00 0.00 0.00 0.00 0.00 0.00 0.00 0.01 0.00 0.00 0.00 0.00 0.00 0.00 0.00 0.00 0.00 0.00 0.00 0.00 0.00 0.00 0.00 0.00 0.01 0.01 0.01 0.02 0.02 0.03 0.02 0.01 0.02 0.07
0.00 0.00 0.00 0.00 0.00 0.00 0.00 0.00 0.00 0.00 0.01 0.01 0.00 0.00 0.00 0.00 0.00 0.00 0.00 0.00 0.00 0.00 0.00 0.00 0.00 0.00 0.01 0.02 0.03 0.05 0.05 0.03 0.01 0.00 0.01 0.01 0.01 0.01
0.00 0.00 0.00 0.00 0.00 0.00 0.00 0.00 0.00 0.01 0.00 0.01 0.02 0.01 0.00 0.00 0.00 0.00 0.00 0.00 0.00 0.00 0.00 0.00 0.01 0.03 0.04 0.05 0.03 0.01 0.00 0.00 0.01 0.01 0.01 0.01 0.01 0.00
0.00 0.00 0.00 0.00 0.00 0.00 0.00 0.01 0.01 0.01 0.03 0.05 0.04 0.04 0.03 0.01 0.00 0.00 0.00 0.00 0.00 0.00 0.01 0.01 0.03 0.02 0.00 0.00 0.00 0.00 0.01 0.02 0.03 0.03 0.02 0.01 0.01 0.00
0.00 0.00 0.00 0.00 0.00 0.00 0.00 0.01 0.02 0.04 0.05 0.09 0.09 0.05 0.01 0.00 0.00 0.01 0.02 0.03 0.03 0.00 0.02 0.01 0.00 0.00 0.00 0.00 0.01 0.02 0.01 0.01 0.02 0.02 0.01 0.01 0.01 0.01
0.00 0.00 0.00 0.00 0.00 0.00 0.00 0.01 0.03 0.07 0.04 0.02 0.01 0.01 0.01 0.01 0.02 0.05 0.05 0.03 0.01 0.00 0.02 0.02 0.01 0.01 0.01 0.01 0.01 0.01 0.01 0.01 0.02 0.03 0.03 0.03 0.02 0.01
0.00 0.00 0.00 0.00 0.00 0.01 0.01 0.04 0.03 0.01 0.00 0.00 0.00 0.01 0.02 0.02 0.03 0.03 0.02 0.03 0.02 0.01 0.03 0.06 0.02 0.01 0.00 0.00 0.00 0.01 0.02 0.07 0.08 0.04 0.02 0.01 0.01 0.00
0.00 0.00 0.00 0.00 0.00 0.04 0.04 0.04 0.01 0.00 0.00 0.00 0.01 0.00 0.00 0.00 0.00 0.02 0.06 0.07 0.05 0.01 0.01 0.06 0.02 0.02 0.01 0.00 0.00 0.03 0.04 0.02 0.01 0.00 0.00 0.00 0.00 0.00
0.00 0.00 0.00 0.00 0.02 0.07 0.03 0.00 0.00 0.00 0.01 0.01 0.00 0.00 0.00 0.00 0.00 0.01 0.03 0.12 0.07 0.04 0.01 0.09 0.05 0.04 0.08 0.01 0.01 0.02 0.01 0.01 0.04 0.02 0.01 0.00 0.00 0.00
0.01 0.01 0.00 0.01 0.05 0.04 0.01 0.00 0.01 0.01 0.01 0.00 0.00 0.00 0.00 0.00 0.01 0.01 0.01 0.04 0.11 0.09 0.01 0.08 0.11 0.03 0.06 0.03 0.00 0.01 0.00 0.08 0.15 0.12 0.11 0.09 0.05 0.02
0.01 0.01 0.02 0.05 0.03 0.00 0.00 0.00 0.00 0.00 0.00 0.00 0.00 0.00 0.01 0.01 0.00 0.00 0.00 0.00 0.01 0.05 0.02 0.05 0.16 0.06 0.09 0.05 0.01 0.01 0.01 0.12 0.30 0.33 0.20 0.12 0.11 0.12
0.01 0.03 0.05 0.01 0.00 0.00 0.00 0.00 0.00 0.00 0.00 0.01 0.02 0.01 0.01 0.00 0.00 0.01 0.01 0.00 0.00 0.00 0.01 0.06 0.14 0.09 0.06 0.02 0.01 0.02 0.06 0.10 0.28 0.35 0.21 0.08 0.07 0.07
0.03 0.07 0.01 0.00 0.00 0.00 0.00 0.00 0.00 0.00 0.00 0.02 0.03 0.02 0.01 0.01 0.01 0.02 0.06 0.03 0.07 0.04 0.04 0.05 0.06 0.05 0.04 0.02 0.03 0.03 0.08 0.10 0.21 0.23 0.22 0.22 0.21 0.18
0.02 0.00 0.00 0.00 0.00 0.00 0.00 0.00 0.00 0.00 0.02 0.03 0.04 0.03 0.02 0.02 0.02 0.03 0.08 0.12 0.15 0.10 0.06 0.05 0.05 0.03 0.07 0.11 0.08 0.07 0.08 0.12 0.20 0.24 0.24 0.23 0.35 0.43
0.00 0.00 0.00 0.00 0.00 0.00 0.00 0.00 0.00 0.01 0.03 0.04 0.04 0.04 0.07 0.07 0.07 0.06 0.10 0.12 0.11 0.10 0.10 0.08 0.06 0.04 0.07 0.10 0.08 0.10 0.12 0.16 0.19 0.17 0.19 0.13 0.29 0.50
0.00 0.00 0.01 0.01 0.01 0.00 0.00 0.01 0.02 0.03 0.05 0.06 0.07 0.08 0.09 0.08 0.08 0.10 0.10 0.09 0.08 0.07 0.07 0.10 0.08 0.09 0.09 0.07 0.09 0.15 0.14 0.18 0.14 0.10 0.12 0.10 0.15 0.31
0.00 0.01 0.01 0.01 0.00 0.00 0.01 0.04 0.05 0.04 0.04 0.05 0.08 0.07 0.06 0.08 0.07 0.08 0.07 0.07 0.05 0.03 0.05 0.07 0.05 0.12 0.11 0.11 0.11 0.22 0.20 0.17 0.08 0.08 0.11 0.09 0.15 0.20
0.01 0.01 0.01 0.00 0.01 0.02 0.04 0.06 0.07 0.08 0.08 0.08 0.04 0.03 0.03 0.05 0.05 0.04 0.04 0.03 0.03 0.02 0.03 0.06 0.02 0.04 0.09 0.08 0.09 0.15 0.25 0.20 0.09 0.04 0.07 0.05 0.07 0.10
0.01 0.01 0.00 0.00 0.02 0.06 0.08 0.07 0.06 0.04 0.04 0.03 0.02 0.02 0.03 0.05 0.06 0.04 0.03 0.03 0.03 0.04 0.03 0.01 0.00 0.00 0.02 0.05 0.06 0.08 0.09 0.10 0.08 0.05 0.03 0.02 0.01 0.03
0.01 0.01 0.00 0.01 0.04 0.07 0.07 0.05 0.04 0.02 0.02 0.03 0.03 0.03 0.04 0.05 0.03 0.03 0.02 0.03 0.04 0.04 0.03 0.03 0.01 0.00 0.00 0.01 0.02 0.02 0.02 0.02 0.02 0.01 0.01 0.01 0.01 0.01

GFSNE_prec_precacc_012.txt.gz
Total_Precipitation_Accumulation
0.00 0.00 0.00 0.00 0.00 0.00 0.00 0.00 0.00 0.00 0.00 0.00 0.00 0.00 0.00 0.00 0.00 0.00 0.00 0.00 0.00 0.00 0.00 0.00 0.00 0.00 0.01 0.01 0.01 0.01 0.01 0.01 0.04 0.10 0.16 0.23 0.31 0.44
0.00 0.00 0.00 0.00 0.00 0.00 0.00 0.00 0.00 0.00 0.00 0.00 0.00 0.00 0.00 0.00 0.00 0.00 0.00 0.00 0.00 0.00 0.00 0.00 0.01 0.01 0.01 0.00 0.00 0.00 0.00 0.01 0.02 0.04 0.08 0.11 0.17 0.23
0.00 0.00 0.00 0.00 0.00 0.00 0.00 0.00 0.00 0.00 0.00 0.00 0.00 0.00 0.00 0.00 0.00 0.00 0.00 0.00 0.00 0.00 0.00 0.00 0.01 0.00 0.00 0.00 0.00 0.01 0.01 0.02 0.04 0.05 0.07 0.13 0.18 0.21
0.00 0.00 0.00 0.00 0.00 0.00 0.00 0.00 0.00 0.00 0.00 0.01 0.00 0.00 0.00 0.00 0.00 0.00 0.00 0.00 0.00 0.00 0.00 0.00 0.00 0.00 0.00 0.01 0.01 0.03 0.05 0.06 0.08 0.09 0.10 0.09 0.10 0.15
0.00 0.00 0.00 0.00 0.00 0.00 0.00 0.00 0.00 0.00 0.01 0.02 0.00 0.00 0.00 0.01 0.01 0.00 0.00 0.00 0.00 0.00 0.00 0.00 0.00 0.01 0.02 0.03 0.05 0.06 0.07 0.05 0.04 0.03 0.03 0.03 0.04 0.06
0.00 0.00 0.00 0.00 0.00 0.00 0.00 0.00 0.00 0.01 0.00 0.01 0.05 0.06 0.08 0.03 0.01 0.01 0.00 0.00 0.00 0.00 0.00 0.00 0.02 0.04 0.05 0.05 0.03 0.02 0.01 0.01 0.02 0.05 0.06 0.07 0.06 0.05
0.00 0.00 0.00 0.00 0.00 0.00 0.00 0.01 0.02 0.02 0.08 0.15 0.16 0.13 0.05 0.01 0.00 0.00 0.01 0.01 0.01 0.01 0.01 0.02 0.03 0.02 0.00 0.00 0.00 0.01 0.02 0.05 0.09 0.10 0.09 0.07 0.06 0.04
0.00 0.00 0.00 0.00 0.00 0.00 0.00 0.01 0.04 0.08 0.13 0.23 0.20 0.08 0.01 0.00 0.00 0.02 0.09 0.08 0.05 0.00 0.02 0.01 0.00 0.00 0.00 0.00 0.02 0.03 0.03 0.04 0.04 0.05 0.05 0.04 0.03 0.03
0.00 0.00 0.00 0.00 0.00 0.00 0.00 0.03 0.07 0.15 0.15 0.08 0.02 0.01 0.01 0.03 0.12 0.14 0.07 0.05 0.03 0.00 0.03 0.03 0.01 0.01 0.01 0.01 0.01 0.01 0.02 0.03 0.04 0.06 0.06 0.05 0.03 0.02
0.00 0.00 0.00 0.00 0.00 0.02 0.02 0.06 0.09 0.07 0.01 0.00 0.00 0.02 0.05 0.05 0.05 0.04 0.02 0.04 0.03 0.01 0.03 0.08 0.02 0.01 0.00 0.00 0.01 0.01 0.03 0.11 0.17 0.16 0.14 0.12 0.07 0.04
0.00 0.00 0.01 0.01 0.01 0.05 0.08 0.18 0.06 0.00 0.00 0.01 0.04 0.03 0.01 0.00 0.01 0.05 0.12 0.12 0.08 0.01 0.01 0.07 0.03 0.02 0.01 0.00 0.00 0.04 0.06 0.06 0.04 0.03 0.03 0.03 0.03 0.02
0.00 0.00 0.01 0.01 0.03 0.15 0.11 0.03 0.01 0.00 0.02 0.03 0.01 0.00 0.00 0.00 0.01 0.02 0.09 0.25 0.13 0.08 0.01 0.15 0.08 0.06 0.15 0.02 0.01 0.02 0.01 0.01 0.05 0.04 0.04 0.03 0.02 0.01
0.01 0.01 0.00 0.03 0.13 0.10 0.02 0.00 0.01 0.01 0.01 0.00 0.00 0.00 0.00 0.01 0.01 0.01 0.04 0.18 0.29 0.20 0.01 0.20 0.24 0.06 0.10 0.05 0.00 0.01 0.01 0.08 0.16 0.15 0.16 0.15 0.10 0.06
0.02 0.01 0.03 0.11 0.06 0.00 0.00 0.01 0.01 0.01 0.00 0.00 0.00 0.01 0.02 0.01 0.01 0.01 0.01 0.03 0.08 0.19 0.08 0.15 0.35 0.15 0.19 0.10 0.02 0.01 0.01 0.12 0.35 0.46 0.44 0.40 0.33 0.21
0.02 0.06 0.08 0.02 0.00 0.00 0.00 0.00 0.00 0.00 0.01 0.03 0.03 0.02 0.02 0.02 0.02 0.02 0.02 0.01 0.02 0.02 0.05 0.14 0.25 0.17 0.14 0.07 0.02 0.02 0.10 0.13 0.42 0.59 0.36 0.24 0.22 0.22
0.04 0.11 0.02 0.00 0.00 0.00 0.00 0.00 0.00 0.00 0.03 0.06 0.07 0.03 0.02 0.03 0.04 0.06 0.11 0.04 0.11 0.05 0.05 0.08 0.14 0.13 0.08 0.03 0.05 0.07 0.15 0.25 0.29 0.33 0.33 0.30 0.27 0.26
0.03 0.00 0.00 0.00 0.00 0.00 0.00 0.00 0.00 0.00 0.03 0.05 0.08 0.07 0.04 0.04 0.04 0.05 0.14 0.16 0.19 0.14 0.09 0.06 0.06 0.06 0.08 0.12 0.12 0.13 0.18 0.22 0.34 0.42 0.37 0.35 0.46 0.61
0.00 0.00 0.00 0.00 0.00 0.00 0.00 0.01 0.01 0.02 0.05 0.07 0.06 0.07 0.11 0.11 0.11 0.08 0.14 0.18 0.18 0.14 0.15 0.12 0.09 0.05 0.08 0.11 0.16 0.23 0.25 0.29 0.41 0.41 0.41 0.29 0.49 0.78
0.00 0.00 0.01 0.01 0.01 0.00 0.01 0.03 0.04 0.04 0.07 0.09 0.10 0.13 0.13 0.10 0.11 0.12 0.13 0.13 0.11 0.11 0.12 0.16 0.12 0.13 0.12 0.10 0.13 0.34 0.33 0.36 0.37 0.30 0.31 0.25 0.39 0.69
0.01 0.01 0.01 0.01 0.01 0.02 0.03 0.07 0.08 0.05 0.05 0.08 0.11 0.09 0.10 0.12 0.10 0.11 0.11 0.12 0.10 0.08 0.07 0.09 0.08 0.16 0.19 0.17 0.16 0.44 0.44 0.35 0.23 0.25 0.35 0.25 0.42 0.46
0.01 0.01 0.01 0.01 0.02 0.04 0.06 0.09 0.10 0.11 0.11 0.11 0.07 0.07 0.06 0.10 0.07 0.07 0.08 0.06 0.07 0.06 0.05 0.08 0.06 0.11 0.15 0.11 0.15 0.23 0.40 0.38 0.25 0.20 0.21 0.15 0.24 0.21
0.01 0.01 0.01 0.01 0.03 0.08 0.11 0.10 0.09 0.05 0.05 0.05 0.05 0.05 0.05 0.09 0.11 0.08 0.06 0.06 0.05 0.08 0.07 0.02 0.01 0.02 0.06 0.07 0.10 0.14 0.15 0.16 0.13 0.11 0.14 0.14 0.16 0.26
0.01 0.01 0.01 0.02 0.07 0.09 0.09 0.07 0.05 0.03 0.03 0.06 0.06 0.06 0.07 0.09 0.07 0.07 0.06 0.05 0.06 0.06 0.04 0.04 0.01 0.00 0.02 0.04 0.05 0.06 0.05 0.05 0.03 0.02 0.13 0.12 0.15 0.20

GFSNE_prec_precacc_015.txt.gz
Total_Precipitation_Accumulation
0.00 0.00 0.00 0.00 0.00 0.00 0.00 0.00 0.00 0.00 0.00 0.00 0.00 0.00 0.00 0.00 0.00 0.00 0.00 0.00 0.00 0.00 0.00 0.00 0.00 0.00 0.01 0.01 0.01 0.02 0.02 0.03 0.06 0.12 0.18 0.24 0.32 0.45
0.00 0.00 0.00 0.00 0.00 0.00 0.00 0.00 0.00 0.00 0.00 0.00 0.00 0.00 0.00 0.00 0.00 0.00 0.00 0.00 0.00 0.00 0.00 0.00 0.01 0.01 0.01 0.01 0.01 0.01 0.02 0.02 0.03 0.05 0.09 0.13 0.18 0.25
0.00 0.00 0.00 0.00 0.00 0.00 0.00 0.00 0.00 0.00 0.00 0.00 0.00 0.00 0.00 0.00 0.00 0.00 0.00 0.01 0.00 0.00 0.00 0.00 0.01 0.00 0.00 0.00 0.01 0.01 0.02 0.03 0.05 0.06 0.10 0.16 0.23 0.25
0.00 0.00 0.00 0.00 0.00 0.00 0.00 0.00 0.00 0.00 0.00 0.01 0.00 0.00 0.00 0.00 0.00 0.00 0.00 0.00 0.00 0.00 0.00 0.00 0.00 0.00 0.00 0.01 0.02 0.05 0.08 0.09 0.13 0.14 0.13 0.11 0.13 0.17
0.00 0.00 0.00 0.00 0.00 0.00 0.00 0.00 0.00 0.00 0.01 0.02 0.00 0.00 0.00 0.02 0.03 0.01 0.00 0.00 0.00 0.00 0.00 0.00 0.01 0.01 0.02 0.04 0.07 0.09 0.09 0.07 0.05 0.04 0.03 0.04 0.05 0.07
0.00 0.00 0.00 0.00 0.00 0.00 0.00 0.00 0.00 0.01 0.00 0.02 0.07 0.07 0.08 0.05 0.03 0.01 0.00 0.00 0.00 0.00 0.00 0.01 0.02 0.04 0.05 0.05 0.03 0.02 0.01 0.01 0.02 0.05 0.06 0.07 0.07 0.06
0.00 0.00 0.00 0.00 0.00 0.00 0.01 0.01 0.02 0.03 0.11 0.19 0.17 0.17 0.09 0.01 0.00 0.00 0.01 0.01 0.02 0.01 0.01 0.02 0.03 0.02 0.00 0.00 0.00 0.01 0.02 0.06 0.09 0.11 0.11 0.10 0.09 0.07
0.00 0.00 0.00 0.00 0.00 0.00 0.01 0.02 0.04 0.09 0.16 0.31 0.27 0.10 0.01 0.00 0.01 0.04 0.12 0.10 0.05 0.00 0.02 0.01 0.00 0.00 0.00 0.00 0.02 0.03 0.04 0.04 0.05 0.06 0.07 0.06 0.05 0.05
0.00 0.00 0.00 0.00 0.00 0.00 0.00 0.04 0.09 0.18 0.19 0.10 0.02 0.01 0.02 0.04 0.16 0.16 0.08 0.06 0.03 0.00 0.04 0.03 0.01 0.01 0.01 0.01 0.01 0.01 0.03 0.03 0.05 0.07 0.08 0.07 0.05 0.04
0.00 0.00 0.00 0.00 0.00 0.02 0.05 0.12 0.12 0.08 0.01 0.00 0.01 0.02 0.05 0.05 0.05 0.04 0.03 0.06 0.03 0.01 0.03 0.10 0.02 0.01 0.00 0.00 0.01 0.01 0.03 0.11 0.17 0.17 0.16 0.15 0.12 0.10
0.00 0.00 0.01 0.02 0.01 0.07 0.11 0.18 0.06 0.00 0.00 0.01 0.05 0.03 0.01 0.00 0.01 0.08 0.15 0.13 0.09 0.01 0.01 0.08 0.04 0.02 0.01 0.00 0.00 0.04 0.06 0.07 0.04 0.04 0.04 0.05 0.05 0.06
0.00 0.00 0.01 0.02 0.04 0.16 0.11 0.03 0.01 0.01 0.03 0.04 0.01 0.00 0.00 0.00 0.01 0.03 0.13 0.32 0.16 0.10 0.01 0.17 0.10 0.06 0.19 0.02 0.01 0.02 0.01 0.01 0.05 0.04 0.04 0.04 0.05 0.04
0.01 0.01 0.00 0.04 0.14 0.10 0.02 0.00 0.01 0.02 0.01 0.00 0.00 0.00 0.00 0.01 0.01 0.01 0.06 0.25 0.37 0.25 0.02 0.26 0.31 0.07 0.13 0.06 0.00 0.01 0.01 0.08 0.16 0.15 0.18 0.19 0.16 0.13
0.02 0.01 0.04 0.12 0.06 0.00 0.00 0.01 0.01 0.01 0.00 0.00 0.00 0.01 0.02 0.02 0.01 0.01 0.02 0.05 0.12 0.28 0.11 0.20 0.45 0.18 0.24 0.13 0.02 0.01 0.01 0.12 0.36 0.47 0.48 0.47 0.45 0.34
0.02 0.06 0.09 0.02 0.00 0.00 0.00 0.00 0.00 0.00 0.01 0.04 0.04 0.02 0.02 0.02 0.02 0.03 0.02 0.01 0.02 0.03 0.07 0.17 0.31 0.23 0.19 0.12 0.04 0.02 0.11 0.14 0.44 0.64 0.43 0.32 0.34 0.38
0.05 0.11 0.02 0.00 0.00 0.00 0.00 0.00 0.00 0.00 0.04 0.08 0.07 0.03 0.02 0.03 0.04 0.06 0.12 0.05 0.12 0.05 0.05 0.09 0.17 0.19 0.12 0.05 0.08 0.09 0.16 0.31 0.32 0.35 0.38 0.36 0.35 0.37
0.04 0.00 0.00 0.00 0.00 0.00 0.00 0.00 0.00 0.00 0.03 0.05 0.08 0.07 0.04 0.04 0.04 0.05 0.15 0.18 0.21 0.16 0.10 0.06 0.06 0.07 0.10 0.15 0.15 0.15 0.21 0.26 0.41 0.50 0.43 0.39 0.51 0.66
0.00 0.00 0.00 0.00 0.00 0.00 0.00 0.01 0.01 0.02 0.05 0.07 0.06 0.07 0.11 0.12 0.12 0.08 0.14 0.20 0.21 0.15 0.16 0.13 0.09 0.05 0.08 0.11 0.19 0.29 0.32 0.38 0.52 0.52 0.47 0.38 0.55 0.80
0.00 0.00 0.01 0.01 0.01 0.01 0.01 0.03 0.04 0.04 0.07 0.09 0.11 0.14 0.16 0.11 0.11 0.13 0.13 0.14 0.12 0.12 0.14 0.17 0.14 0.14 0.14 0.12 0.14 0.41 0.45 0.47 0.47 0.37 0.38 0.35 0.50 0.78
0.01 0.02 0.02 0.01 0.01 0.02 0.04 0.07 0.09 0.05 0.05 0.08 0.13 0.11 0.11 0.14 0.12 0.12 0.11 0.14 0.12 0.09 0.08 0.10 0.09 0.18 0.23 0.22 0.20 0.48 0.49 0.44 0.34 0.38 0.48 0.40 0.58 0.58
0.01 0.01 0.01 0.01 0.02 0.04 0.07 0.09 0.11 0.12 0.13 0.13 0.08 0.09 0.09 0.12 0.08 0.08 0.08 0.08 0.09 0.07 0.06 0.09 0.08 0.15 0.19 0.12 0.16 0.25 0.43 0.45 0.35 0.32 0.32 0.25 0.37 0.28
0.01 0.01 0.01 0.01 0.04 0.09 0.11 0.10 0.10 0.05 0.05 0.05 0.06 0.07 0.07 0.11 0.13 0.09 0.07 0.07 0.06 0.09 0.08 0.02 0.01 0.03 0.06 0.07 0.11 0.15 0.17 0.17 0.18 0.15 0.24 0.29 0.30 0.45
0.01 0.01 0.01 0.03 0.07 0.10 0.09 0.08 0.06 0.04 0.04 0.09 0.09 0.08 0.09 0.11 0.08 0.08 0.08 0.07 0.08 0.06 0.05 0.04 0.01 0.00 0.02 0.05 0.05 0.06 0.06 0.05 0.06 0.07 0.25 0.27 0.32 0.37

GFSNE_prec_precacc_018.txt.gz
Total_Precipitation_Accumulation
0.00 0.00 0.00 0.00 0.00 0.00 0.00 0.00 0.00 0.00 0.00 0.00 0.00 0.00 0.00 0.00 0.00 0.00 0.00 0.00 0.00 0.00 0.00 0.00 0.00 0.00 0.01 0.01 0.01 0.02 0.02 0.03 0.07 0.15 0.21 0.27 0.35 0.49
0.00 0.00 0.00 0.00 0.00 0.00 0.00 0.00 0.00 0.00 0.00 0.00 0.00 0.00 0.00 0.00 0.00 0.00 0.00 0.00 0.00 0.00 0.01 0.01 0.01 0.02 0.02 0.01 0.01 0.02 0.03 0.03 0.05 0.08 0.12 0.16 0.22 0.29
0.00 0.00 0.00 0.00 0.00 0.00 0.00 0.00 0.00 0.00 0.00 0.00 0.00 0.00 0.00 0.00 0.00 0.00 0.00 0.01 0.02 0.02 0.01 0.01 0.01 0.00 0.00 0.00 0.02 0.04 0.04 0.06 0.08 0.09 0.12 0.19 0.26 0.28
0.00 0.00 0.00 0.00 0.00 0.00 0.00 0.00 0.00 0.00 0.00 0.02 0.00 0.00 0.00 0.00 0.00 0.00 0.01 0.02 0.01 0.00 0.00 0.00 0.00 0.00 0.01 0.02 0.05 0.07 0.09 0.11 0.15 0.16 0.17 0.16 0.18 0.22
0.00 0.00 0.00 0.00 0.00 0.00 0.00 0.00 0.00 0.00 0.01 0.03 0.00 0.00 0.00 0.02 0.04 0.01 0.00 0.00 0.00 0.00 0.00 0.00 0.01 0.01 0.02 0.04 0.07 0.09 0.11 0.09 0.08 0.06 0.06 0.06 0.08 0.10
0.00 0.00 0.00 0.00 0.00 0.00 0.00 0.00 0.01 0.01 0.00 0.02 0.08 0.08 0.10 0.06 0.03 0.01 0.00 0.00 0.00 0.00 0.00 0.01 0.02 0.04 0.05 0.05 0.03 0.02 0.01 0.01 0.02 0.05 0.07 0.08 0.07 0.06
0.00 0.00 0.00 0.00 0.00 0.00 0.01 0.01 0.02 0.03 0.13 0.24 0.22 0.20 0.10 0.02 0.00 0.00 0.01 0.01 0.02 0.01 0.01 0.02 0.03 0.02 0.00 0.00 0.00 0.01 0.02 0.06 0.09 0.12 0.12 0.11 0.11 0.10
0.00 0.00 0.00 0.00 0.00 0.00 0.01 0.02 0.05 0.16 0.23 0.34 0.29 0.10 0.01 0.00 0.01 0.04 0.14 0.10 0.06 0.00 0.03 0.02 0.00 0.00 0.00 0.00 0.02 0.03 0.04 0.04 0.05 0.07 0.08 0.08 0.07 0.08
0.00 0.00 0.00 0.00 0.00 0.00 0.00 0.05 0.15 0.20 0.20 0.10 0.02 0.01 0.02 0.05 0.18 0.17 0.09 0.07 0.04 0.01 0.05 0.06 0.01 0.01 0.01 0.01 0.01 0.01 0.03 0.04 0.05 0.07 0.09 0.09 0.08 0.06
0.00 0.00 0.00 0.00 0.01 0.02 0.07 0.17 0.12 0.08 0.01 0.00 0.01 0.02 0.06 0.06 0.05 0.05 0.05 0.07 0.04 0.01 0.03 0.13 0.02 0.01 0.00 0.00 0.01 0.01 0.03 0.12 0.18 0.18 0.17 0.16 0.14 0.11
0.00 0.00 0.02 0.02 0.01 0.09 0.12 0.19 0.06 0.00 0.00 0.01 0.06 0.04 0.01 0.00 0.01 0.11 0.17 0.15 0.10 0.01 0.01 0.08 0.04 0.02 0.01 0.00 0.00 0.04 0.06 0.07 0.04 0.04 0.05 0.05 0.06 0.07
0.00 0.00 0.01 0.02 0.05 0.18 0.11 0.03 0.01 0.01 0.05 0.05 0.01 0.00 0.00 0.00 0.01 0.04 0.17 0.38 0.18 0.11 0.01 0.20 0.11 0.07 0.23 0.02 0.01 0.02 0.01 0.01 0.05 0.04 0.04 0.04 0.05 0.05
0.01 0.01 0.00 0.04 0.14 0.11 0.02 0.00 0.01 0.02 0.02 0.00 0.00 0.00 0.00 0.01 0.01 0.01 0.07 0.31 0.46 0.30 0.02 0.32 0.36 0.07 0.16 0.07 0.01 0.01 0.01 0.08 0.16 0.15 0.18 0.21 0.20 0.17
0.02 0.01 0.04 0.12 0.06 0.00 0.00 0.01 0.02 0.01 0.00 0.00 0.01 0.01 0.02 0.02 0.01 0.01 0.02 0.06 0.15 0.35 0.14 0.24 0.53 0.22 0.29 0.15 0.02 0.01 0.01 0.13 0.37 0.48 0.50 0.50 0.50 0.42
0.02 0.06 0.09 0.02 0.00 0.00 0.00 0.01 0.01 0.00 0.01 0.05 0.04 0.02 0.02 0.02 0.02 0.03 0.02 0.01 0.02 0.04 0.08 0.17 0.35 0.26 0.24 0.18 0.08 0.03 0.15 0.15 0.44 0.67 0.47 0.37 0.41 0.45
0.05 0.11 0.02 0.00 0.00 0.00 0.00 0.00 0.00 0.00 0.04 0.08 0.08 0.04 0.02 0.03 0.04 0.07 0.13 0.05 0.13 0.05 0.05 0.09 0.19 0.24 0.17 0.07 0.16 0.14 0.19 0.37 0.35 0.38 0.44 0.39 0.41 0.48
0.04 0.00 0.00 0.00 0.00 0.00 0.00 0.00 0.00 0.00 0.04 0.05 0.08 0.08 0.04 0.04 0.04 0.05 0.16 0.19 0.22 0.16 0.10 0.06 0.06 0.08 0.12 0.18 0.17 0.17 0.24 0.29 0.46 0.56 0.47 0.41 0.55 0.79
0.00 0.00 0.00 0.00 0.00 0.00 0.00 0.01 0.01 0.02 0.05 0.08 0.07 0.08 0.12 0.12 0.12 0.08 0.14 0.21 0.22 0.16 0.17 0.13 0.09 0.06 0.08 0.11 0.21 0.35 0.36 0.43 0.57 0.56 0.50 0.41 0.60 0.86
0.00 0.00 0.01 0.01 0.01 0.01 0.01 0.04 0.05 0.04 0.08 0.10 0.11 0.15 0.17 0.12 0.11 0.13 0.14 0.14 0.12 0.13 0.15 0.18 0.14 0.15 0.15 0.12 0.14 0.45 0.53 0.53 0.53 0.44 0.43 0.42 0.62 0.85
0.01 0.02 0.02 0.01 0.01 0.02 0.04 0.08 0.09 0.06 0.06 0.08 0.14 0.13 0.13 0.15 0.12 0.12 0.12 0.15 0.14 0.11 0.08 0.10 0.09 0.20 0.28 0.28 0.25 0.49 0.54 0.53 0.43 0.52 0.62 0.54 0.73 0.67
0.01 0.01 0.01 0.01 0.03 0.05 0.07 0.10 0.11 0.13 0.15 0.15 0.09 0.10 0.10 0.14 0.09 0.08 0.09 0.08 0.10 0.08 0.07 0.09 0.09 0.17 0.21 0.13 0.17 0.25 0.45 0.49 0.44 0.46 0.49 0.35 0.43 0.30
0.01 0.01 0.01 0.01 0.04 0.10 0.12 0.11 0.10 0.06 0.06 0.06 0.07 0.09 0.08 0.12 0.15 0.10 0.08 0.09 0.08 0.10 0.09 0.02 0.01 0.03 0.06 0.08 0.12 0.17 0.19 0.20 0.22 0.18 0.30 0.43 0.41 0.57
0.02 0.02 0.01 0.03 0.08 0.10 0.10 0.08 0.07 0.05 0.05 0.11 0.11 0.10 0.11 0.13 0.09 0.09 0.09 0.09 0.10 0.07 0.05 0.04 0.01 0.00 0.02 0.06 0.06 0.07 0.07 0.08 0.10 0.11 0.30 0.39 0.48 0.54

GFSNE_prec_precacc_021.txt.gz
Total_Precipitation_Accumulation
0.00 0.00 0.00 0.00 0.00 0.00 0.00 0.00 0.00 0.00 0.00 0.00 0.00 0.00 0.00 0.00 0.00 0.00 0.00 0.00 0.00 0.00 0.00 0.00 0.00 0.01 0.01 0.02 0.03 0.04 0.04 0.04 0.08 0.15 0.22 0.28 0.37 0.52
0.00 0.00 0.00 0.00 0.00 0.00 0.00 0.00 0.00 0.00 0.00 0.00 0.00 0.00 0.00 0.00 0.00 0.00 0.00 0.00 0.00 0.00 0.01 0.01 0.02 0.03 0.02 0.01 0.01 0.02 0.03 0.03 0.06 0.11 0.15 0.19 0.26 0.32
0.00 0.00 0.00 0.00 0.00 0.00 0.00 0.00 0.00 0.00 0.00 0.00 0.00 0.00 0.00 0.00 0.00 0.00 0.00 0.01 0.02 0.02 0.02 0.01 0.02 0.00 0.00 0.00 0.03 0.05 0.06 0.08 0.12 0.14 0.17 0.24 0.31 0.33
0.00 0.00 0.00 0.00 0.00 0.00 0.00 0.00 0.00 0.00 0.00 0.02 0.00 0.00 0.00 0.00 0.00 0.00 0.01 0.02 0.01 0.00 0.00 0.00 0.00 0.00 0.01 0.02 0.05 0.09 0.11 0.14 0.18 0.19 0.20 0.19 0.21 0.25
0.00 0.00 0.00 0.00 0.00 0.00 0.00 0.00 0.00 0.00 0.01 0.03 0.00 0.00 0.00 0.02 0.04 0.01 0.00 0.00 0.00 0.00 0.00 0.00 0.01 0.01 0.02 0.04 0.07 0.10 0.12 0.11 0.10 0.08 0.09 0.09 0.11 0.13
0.00 0.00 0.00 0.00 0.00 0.00 0.00 0.00 0.01 0.01 0.00 0.02 0.10 0.11 0.12 0.06 0.03 0.01 0.00 0.00 0.00 0.00 0.00 0.01 0.02 0.04 0.05 0.05 0.03 0.02 0.01 0.01 0.03 0.05 0.08 0.09 0.08 0.07
0.00 0.00 0.00 0.00 0.00 0.00 0.01 0.01 0.02 0.03 0.16 0.30 0.25 0.20 0.10 0.02 0.00 0.00 0.01 0.02 0.02 0.01 0.01 0.02 0.03 0.02 0.00 0.00 0.00 0.01 0.02 0.06 0.09 0.12 0.13 0.13 0.13 0.12
0.00 0.00 0.00 0.00 0.00 0.00 0.01 0.02 0.06 0.20 0.28 0.35 0.29 0.10 0.01 0.00 0.01 0.05 0.15 0.11 0.06 0.00 0.03 0.02 0.00 0.00 0.00 0.00 0.02 0.03 0.04 0.04 0.05 0.08 0.10 0.10 0.10 0.10
0.00 0.00 0.00 0.00 0.00 0.00 0.00 0.06 0.17 0.22 0.20 0.10 0.02 0.01 0.02 0.05 0.21 0.19 0.09 0.07 0.04 0.01 0.05 0.06 0.01 0.01 0.01 0.01 0.01 0.01 0.03 0.04 0.06 0.08 0.10 0.11 0.10 0.08
0.00 0.00 0.00 0.00 0.01 0.03 0.07 0.19 0.13 0.08 0.01 0.00 0.01 0.03 0.07 0.08 0.05 0.05 0.06 0.08 0.04 0.01 0.03 0.14 0.02 0.01 0.00 0.00 0.01 0.01 0.03 0.12 0.18 0.18 0.18 0.17 0.15 0.12
0.00 0.00 0.02 0.02 0.02 0.09 0.14 0.19 0.06 0.00 0.00 0.01 0.06 0.04 0.01 0.00 0.01 0.12 0.19 0.16 0.10 0.01 0.01 0.09 0.04 0.02 0.01 0.00 0.00 0.04 0.06 0.07 0.05 0.04 0.05 0.06 0.07 0.08
0.00 0.00 0.01 0.02 0.05 0.20 0.12 0.03 0.01 0.01 0.07 0.06 0.01 0.00 0.00 0.00 0.01 0.04 0.18 0.43 0.19 0.13 0.01 0.23 0.12 0.08 0.27 0.03 0.01 0.02 0.01 0.01 0.05 0.04 0.05 0.05 0.06 0.06
0.01 0.01 0.00 0.05 0.15 0.11 0.02 0.00 0.02 0.03 0.02 0.00 0.00 0.00 0.00 0.01 0.01 0.01 0.07 0.36 0.53 0.33 0.02 0.37 0.40 0.08 0.19 0.08 0.01 0.01 0.01 0.08 0.17 0.16 0.18 0.22 0.23 0.21
0.02 0.01 0.04 0.13 0.07 0.00 0.00 0.01 0.02 0.02 0.00 0.00 0.01 0.01 0.02 0.02 0.01 0.01 0.02 0.06 0.17 0.41 0.16 0.27 0.60 0.25 0.34 0.17 0.03 0.01 0.01 0.13 0.38 0.50 0.50 0.51 0.51 0.44
0.02 0.07 0.09 0.02 0.00 0.00 0.00 0.01 0.01 0.00 0.01 0.05 0.04 0.02 0.02 0.02 0.02 0.03 0.02 0.01 0.02 0.04 0.08 0.17 0.38 0.29 0.29 0.24 0.12 0.03 0.17 0.17 0.44 0.68 0.49 0.39 0.42 0.46
0.05 0.11 0.02 0.00 0.00 0.00 0.00 0.00 0.00 0.00 0.04 0.09 0.08 0.04 0.02 0.03 0.04 0.07 0.13 0.05 0.13 0.05 0.05 0.09 0.20 0.29 0.21 0.08 0.20 0.16 0.20 0.41 0.38 0.44 0.52 0.44 0.43 0.52
0.04 0.00 0.00 0.00 0.00 0.00 0.00 0.00 0.00 0.00 0.04 0.05 0.09 0.08 0.05 0.04 0.04 0.05 0.16 0.20 0.23 0.16 0.10 0.06 0.06 0.08 0.13 0.18 0.18 0.17 0.25 0.31 0.50 0.64 0.54 0.45 0.59 0.86
0.00 0.00 0.00 0.00 0.00 0.00 0.00 0.01 0.01 0.02 0.05 0.08 0.07 0.08 0.13 0.12 0.13 0.09 0.15 0.21 0.23 0.16 0.17 0.13 0.09 0.06 0.08 0.11 0.21 0.36 0.38 0.44 0.60 0.61 0.57 0.52 0.67 0.89
0.00 0.00 0.01 0.01 0.01 0.01 0.01 0.04 0.05 0.04 0.08 0.10 0.12 0.16 0.19 0.13 0.12 0.13 0.14 0.15 0.13 0.13 0.15 0.18 0.15 0.16 0.16 0.12 0.14 0.46 0.59 0.56 0.56 0.52 0.55 0.51 0.72 0.93
0.01 0.02 0.02 0.01 0.01 0.03 0.05 0.08 0.10 0.06 0.06 0.09 0.16 0.14 0.14 0.16 0.13 0.13 0.13 0.16 0.15 0.12 0.08 0.10 0.09 0.21 0.31 0.33 0.29 0.50 0.56 0.59 0.50 0.62 0.78 0.63 0.81 0.72
0.01 0.01 0.01 0.01 0.03 0.05 0.08 0.10 0.12 0.14 0.16 0.17 0.11 0.12 0.11 0.16 0.10 0.09 0.10 0.09 0.12 0.09 0.07 0.09 0.09 0.17 0.22 0.13 0.17 0.26 0.45 0.50 0.48 0.57 0.59 0.38 0.46 0.31
0.01 0.01 0.01 0.01 0.05 0.10 0.12 0.11 0.11 0.06 0.08 0.07 0.08 0.11 0.10 0.14 0.17 0.11 0.10 0.11 0.09 0.11 0.10 0.02 0.01 0.03 0.06 0.08 0.12 0.17 0.20 0.21 0.22 0.19 0.32 0.53 0.51 0.67
0.02 0.02 0.01 0.03 0.08 0.11 0.11 0.09 0.08 0.05 0.07 0.13 0.12 0.12 0.13 0.15 0.10 0.11 0.10 0.11 0.12 0.08 0.05 0.04 0.01 0.00 0.02 0.06 0.06 0.07 0.08 0.09 0.11 0.12 0.31 0.44 0.61 0.72

GFSNE_prec_precacc_027.txt.gz
Total_Precipitation_Accumulation
0.00 0.00 0.00 0.00 0.00 0.00 0.00 0.00 0.00 0.00 0.00 0.00 0.00 0.00 0.00 0.00 0.00 0.00 0.00 0.00 0.00 0.00 0.00 0.00 0.00 0.01 0.01 0.02 0.04 0.07 0.07 0.07 0.10 0.18 0.26 0.31 0.40 0.55
0.00 0.00 0.00 0.00 0.00 0.00 0.00 0.00 0.00 0.00 0.00 0.00 0.00 0.00 0.00 0.00 0.00 0.00 0.00 0.00 0.00 0.00 0.01 0.01 0.02 0.03 0.02 0.02 0.02 0.02 0.03 0.04 0.07 0.13 0.20 0.24 0.30 0.37
0.00 0.00 0.00 0.00 0.00 0.00 0.00 0.00 0.00 0.00 0.00 0.00 0.00 0.00 0.00 0.00 0.00 0.00 0.00 0.01 0.02 0.02 0.02 0.01 0.02 0.00 0.00 0.01 0.03 0.06 0.06 0.09 0.13 0.18 0.23 0.32 0.41 0.44
0.00 0.00 0.00 0.00 0.00 0.00 0.00 0.00 0.00 0.00 0.00 0.02 0.00 0.00 0.00 0.00 0.00 0.00 0.01 0.02 0.01 0.00 0.00 0.00 0.00 0.00 0.01 0.02 0.05 0.09 0.12 0.15 0.19 0.22 0.24 0.24 0.27 0.32
0.00 0.00 0.00 0.00 0.00 0.00 0.00 0.00 0.00 0.00 0.01 0.03 0.01 0.00 0.00 0.03 0.04 0.01 0.00 0.00 0.00 0.00 0.00 0.00 0.01 0.01 0.02 0.04 0.07 0.10 0.13 0.12 0.10 0.09 0.10 0.11 0.13 0.16
0.00 0.00 0.00 0.00 0.00 0.00 0.00 0.00 0.01 0.01 0.01 0.02 0.12 0.13 0.13 0.07 0.03 0.01 0.00 0.00 0.00 0.00 0.00 0.01 0.02 0.04 0.05 0.05 0.03 0.02 0.01 0.02 0.03 0.06 0.08 0.10 0.10 0.08
0.00 0.00 0.00 0.00 0.00 0.00 0.01 0.01 0.02 0.04 0.18 0.34 0.30 0.23 0.10 0.02 0.00 0.00 0.01 0.02 0.02 0.01 0.01 0.02 0.03 0.02 0.00 0.00 0.00 0.01 0.02 0.06 0.10 0.13 0.15 0.15 0.15 0.14
0.00 0.00 0.00 0.00 0.00 0.00 0.01 0.03 0.06 0.23 0.33 0.41 0.33 0.12 0.01 0.00 0.01 0.05 0.16 0.14 0.08 0.00 0.03 0.02 0.00 0.00 0.00 0.00 0.02 0.03 0.04 0.05 0.05 0.09 0.12 0.12 0.12 0.14
0.00 0.00 0.00 0.00 0.00 0.00 0.01 0.06 0.18 0.25 0.23 0.13 0.03 0.01 0.02 0.05 0.23 0.22 0.11 0.09 0.05 0.01 0.05 0.07 0.01 0.01 0.01 0.01 0.01 0.01 0.03 0.04 0.06 0.09 0.11 0.12 0.12 0.10
0.00 0.00 0.00 0.00 0.01 0.03 0.08 0.21 0.15 0.09 0.01 0.00 0.01 0.03 0.08 0.09 0.08 0.08 0.07 0.09 0.05 0.01 0.03 0.14 0.02 0.01 0.00 0.00 0.01 0.01 0.03 0.12 0.18 0.19 0.20 0.20 0.17 0.15
0.00 0.00 0.02 0.02 0.02 0.10 0.15 0.22 0.07 0.00 0.00 0.01 0.07 0.05 0.01 0.00 0.01 0.13 0.20 0.18 0.12 0.01 0.01 0.09 0.04 0.02 0.01 0.00 0.00 0.04 0.06 0.07 0.05 0.06 0.07 0.09 0.10 0.11
0.00 0.00 0.01 0.02 0.05 0.21 0.13 0.03 0.01 0.01 0.07 0.06 0.01 0.00 0.00 0.00 0.01 0.04 0.19 0.50 0.22 0.15 0.01 0.24 0.14 0.09 0.31 0.03 0.01 0.02 0.01 0.01 0.05 0.05 0.05 0.07 0.08 0.12
0.01 0.01 0.00 0.05 0.16 0.12 0.03 0.00 0.02 0.03 0.03 0.00 0.00 0.00 0.00 0.01 0.01 0.01 0.07 0.44 0.63 0.38 0.02 0.44 0.48 0.09 0.23 0.09 0.01 0.01 0.01 0.08 0.17 0.16 0.18 0.23 0.24 0.29
0.02 0.01 0.04 0.13 0.07 0.00 0.00 0.02 0.03 0.02 0.00 0.00 0.01 0.01 0.02 0.02 0.01 0.01 0.02 0.06 0.19 0.46 0.17 0.30 0.72 0.29 0.41 0.20 0.03 0.01 0.01 0.13 0.38 0.50 0.51 0.52 0.53 0.47
0.03 0.07 0.09 0.02 0.00 0.00 0.00 0.01 0.01 0.00 0.01 0.05 0.05 0.03 0.03 0.03 0.03 0.03 0.02 0.01 0.03 0.04 0.08 0.18 0.42 0.33 0.35 0.31 0.16 0.04 0.17 0.17 0.44 0.69 0.52 0.44 0.48 0.52
0.05 0.11 0.02 0.00 0.00 0.00 0.00 0.00 0.00 0.00 0.04 0.09 0.09 0.04 0.02 0.03 0.05 0.07 0.14 0.06 0.14 0.05 0.05 0.09 0.20 0.33 0.29 0.11 0.22 0.18 0.20 0.42 0.39 0.46 0.56 0.47 0.47 0.59
0.04 0.00 0.00 0.00 0.00 0.00 0.00 0.00 0.00 0.00 0.04 0.06 0.10 0.09 0.05 0.04 0.05 0.05 0.17 0.22 0.24 0.16 0.10 0.06 0.06 0.08 0.14 0.20 0.21 0.17 0.25 0.31 0.51 0.70 0.65 0.52 0.62 0.92
0.00 0.00 0.00 0.00 0.00 0.00 0.00 0.01 0.01 0.02 0.05 0.09 0.08 0.09 0.14 0.13 0.14 0.09 0.15 0.22 0.25 0.16 0.18 0.13 0.10 0.07 0.08 0.11 0.22 0.37 0.38 0.45 0.60 0.66 0.66 0.67 0.72 0.89
0.00 0.00 0.01 0.01 0.01 0.01 0.01 0.04 0.05 0.04 0.09 0.11 0.13 0.17 0.21 0.15 0.13 0.14 0.15 0.16 0.13 0.13 0.16 0.19 0.16 0.21 0.22 0.13 0.14 0.46 0.62 0.59 0.58 0.54 0.59 0.65 0.84 0.99
0.01 0.02 0.02 0.01 0.01 0.03 0.05 0.09 0.11 0.06 0.06 0.10 0.17 0.17 0.17 0.20 0.15 0.15 0.14 0.18 0.17 0.14 0.10 0.10 0.10 0.26 0.42 0.40 0.33 0.50 0.57 0.69 0.62 0.69 0.82 0.68 0.86 0.76
0.01 0.01 0.01 0.01 0.03 0.06 0.08 0.11 0.13 0.16 0.19 0.21 0.14 0.15 0.15 0.22 0.13 0.10 0.12 0.10 0.14 0.11 0.10 0.10 0.09 0.18 0.25 0.14 0.18 0.26 0.45 0.51 0.54 0.71 0.70 0.45 0.48 0.32
0.01 0.01 0.01 0.01 0.05 0.11 0.14 0.13 0.12 0.07 0.10 0.10 0.11 0.14 0.14 0.19 0.23 0.15 0.11 0.14 0.10 0.13 0.13 0.03 0.01 0.03 0.07 0.09 0.14 0.18 0.20 0.21 0.22 0.19 0.35 0.67 0.73 0.89
0.02 0.02 0.01 0.03 0.09 0.12 0.12 0.10 0.09 0.06 0.09 0.16 0.15 0.16 0.18 0.21 0.14 0.14 0.12 0.13 0.15 0.12 0.06 0.05 0.02 0.01 0.02 0.06 0.07 0.08 0.08 0.09 0.11 0.12 0.32 0.48 0.75 0.97

GFSNE_prec_precacc_030.txt.gz
Total_Precipitation_Accumulation
0.00 0.00 0.00 0.00 0.00 0.00 0.00 0.00 0.00 0.00 0.00 0.00 0.00 0.00 0.00 0.00 0.00 0.00 0.00 0.00 0.00 0.00 0.00 0.00 0.00 0.01 0.01 0.02 0.04 0.07 0.08 0.07 0.11 0.19 0.28 0.35 0.43 0.57
0.00 0.00 0.00 0.00 0.00 0.00 0.00 0.00 0.00 0.00 0.00 0.00 0.00 0.00 0.00 0.00 0.00 0.00 0.00 0.00 0.00 0.00 0.01 0.01 0.02 0.03 0.02 0.02 0.02 0.02 0.04 0.05 0.08 0.14 0.21 0.28 0.36 0.42
0.00 0.00 0.00 0.00 0.00 0.00 0.00 0.00 0.00 0.00 0.00 0.00 0.00 0.00 0.00 0.00 0.00 0.00 0.00 0.01 0.02 0.02 0.02 0.01 0.02 0.00 0.00 0.01 0.03 0.06 0.06 0.09 0.14 0.19 0.24 0.35 0.45 0.48
0.00 0.00 0.00 0.00 0.00 0.00 0.00 0.00 0.00 0.00 0.00 0.02 0.00 0.00 0.00 0.00 0.00 0.00 0.01 0.02 0.01 0.00 0.00 0.00 0.00 0.00 0.01 0.02 0.06 0.09 0.12 0.15 0.20 0.23 0.26 0.25 0.27 0.34
0.00 0.00 0.00 0.00 0.00 0.00 0.00 0.00 0.00 0.00 0.01 0.03 0.01 0.00 0.00 0.03 0.04 0.01 0.00 0.00 0.00 0.00 0.00 0.00 0.01 0.01 0.02 0.04 0.07 0.10 0.13 0.12 0.11 0.09 0.10 0.11 0.13 0.16
0.00 0.00 0.00 0.00 0.00 0.00 0.00 0.00 0.01 0.01 0.01 0.02 0.12 0.13 0.13 0.07 0.03 0.01 0.00 0.00 0.00 0.00 0.00 0.01 0.02 0.04 0.05 0.05 0.03 0.02 0.01 0.02 0.03 0.06 0.08 0.10 0.10 0.09
0.00 0.00 0.00 0.00 0.00 0.00 0.01 0.01 0.02 0.04 0.18 0.34 0.30 0.24 0.11 0.02 0.00 0.00 0.01 0.02 0.02 0.01 0.01 0.02 0.03 0.02 0.00 0.00 0.00 0.01 0.02 0.06 0.10 0.13 0.15 0.15 0.16 0.15
0.00 0.00 0.00 0.00 0.00 0.00 0.01 0.03 0.06 0.23 0.33 0.42 0.34 0.14 0.01 0.00 0.01 0.05 0.16 0.14 0.09 0.00 0.03 0.02 0.00 0.00 0.00 0.00 0.02 0.03 0.04 0.05 0.05 0.09 0.12 0.13 0.13 0.15
0.00 0.00 0.00 0.00 0.00 0.00 0.01 0.06 0.19 0.25 0.24 0.13 0.04 0.01 0.02 0.05 0.23 0.23 0.12 0.10 0.06 0.01 0.05 0.07 0.01 0.01 0.01 0.01 0.01 0.01 0.03 0.04 0.06 0.09 0.11 0.12 0.12 0.11
0.00 0.00 0.00 0.00 0.01 0.03 0.08 0.21 0.15 0.09 0.01 0.00 0.01 0.03 0.08 0.09 0.08 0.12 0.11 0.10 0.05 0.01 0.03 0.14 0.02 0.01 0.00 0.00 0.01 0.01 0.03 0.12 0.18 0.19 0.20 0.20 0.17 0.15
0.00 0.00 0.02 0.02 0.02 0.10 0.16 0.22 0.07 0.00 0.00 0.01 0.07 0.05 0.01 0.00 0.01 0.13 0.20 0.19 0.12 0.01 0.01 0.09 0.04 0.02 0.01 0.00 0.00 0.04 0.06 0.07 0.05 0.06 0.07 0.09 0.10 0.12
0.00 0.00 0.01 0.02 0.05 0.21 0.14 0.03 0.01 0.01 0.07 0.06 0.01 0.00 0.00 0.00 0.01 0.04 0.19 0.53 0.23 0.16 0.01 0.26 0.15 0.10 0.33 0.03 0.01 0.02 0.01 0.01 0.05 0.05 0.05 0.07 0.08 0.12
0.01 0.01 0.00 0.05 0.16 0.12 0.03 0.00 0.02 0.03 0.03 0.00 0.00 0.00 0.00 0.01 0.01 0.01 0.07 0.46 0.68 0.41 0.02 0.46 0.52 0.10 0.26 0.10 0.01 0.01 0.01 0.08 0.17 0.16 0.18 0.23 0.25 0.29
0.02 0.01 0.04 0.13 0.07 0.00 0.00 0.02 0.03 0.02 0.00 0.00 0.01 0.01 0.02 0.02 0.01 0.01 0.02 0.06 0.20 0.47 0.17 0.30 0.78 0.31 0.44 0.23 0.03 0.01 0.01 0.13 0.38 0.50 0.51 0.52 0.53 0.47
0.03 0.07 0.09 0.02 0.00 0.00 0.00 0.01 0.01 0.00 0.01 0.05 0.05 0.03 0.03 0.03 0.03 0.03 0.02 0.01 0.03 0.04 0.08 0.18 0.44 0.35 0.39 0.34 0.17 0.04 0.17 0.17 0.44 0.69 0.52 0.44 0.48 0.52
0.05 0.11 0.02 0.00 0.00 0.00 0.00 0.00 0.00 0.00 0.04 0.09 0.09 0.04 0.02 0.03 0.05 0.07 0.15 0.06 0.15 0.05 0.05 0.09 0.21 0.35 0.33 0.12 0.23 0.19 0.20 0.42 0.39 0.46 0.56 0.47 0.47 0.59
0.04 0.00 0.00 0.00 0.00 0.00 0.00 0.00 0.00 0.00 0.04 0.06 0.10 0.10 0.06 0.05 0.05 0.05 0.17 0.23 0.26 0.17 0.10 0.06 0.06 0.09 0.15 0.21 0.24 0.18 0.25 0.31 0.51 0.70 0.65 0.54 0.62 0.92
0.00 0.00 0.00 0.00 0.00 0.00 0.00 0.01 0.01 0.02 0.06 0.10 0.09 0.10 0.15 0.14 0.15 0.10 0.15 0.23 0.26 0.17 0.18 0.14 0.10 0.08 0.08 0.11 0.23 0.40 0.40 0.45 0.60 0.66 0.66 0.70 0.73 0.89
0.00 0.00 0.01 0.01 0.01 0.01 0.01 0.04 0.05 0.04 0.09 0.13 0.14 0.17 0.22 0.16 0.13 0.15 0.15 0.16 0.14 0.13 0.16 0.19 0.17 0.24 0.26 0.14 0.14 0.46 0.67 0.61 0.59 0.54 0.60 0.66 0.87 1.00
0.01 0.02 0.02 0.01 0.01 0.03 0.05 0.09 0.11 0.07 0.07 0.10 0.18 0.18 0.19 0.22 0.16 0.15 0.14 0.20 0.19 0.15 0.10 0.10 0.11 0.31 0.51 0.46 0.36 0.50 0.57 0.72 0.67 0.73 0.83 0.68 0.86 0.77
0.01 0.01 0.01 0.01 0.03 0.06 0.09 0.12 0.14 0.16 0.21 0.23 0.15 0.16 0.16 0.25 0.14 0.10 0.12 0.11 0.15 0.12 0.11 0.10 0.09 0.20 0.27 0.16 0.20 0.26 0.45 0.51 0.56 0.77 0.77 0.50 0.49 0.32
0.01 0.01 0.01 0.01 0.05 0.12 0.15 0.13 0.13 0.08 0.11 0.11 0.12 0.16 0.16 0.21 0.26 0.17 0.12 0.16 0.11 0.14 0.14 0.04 0.01 0.04 0.09 0.13 0.16 0.18 0.20 0.21 0.22 0.19 0.37 0.75 0.86 1.00
0.02 0.02 0.01 0.03 0.09 0.13 0.13 0.11 0.10 0.07 0.10 0.18 0.16 0.17 0.20 0.24 0.16 0.16 0.13 0.13 0.16 0.15 0.08 0.06 0.02 0.01 0.03 0.09 0.10 0.10 0.09 0.09 0.11 0.12 0.32 0.49 0.77 1.03

GFSNE_prec_precacc_036.txt.gz
Total_Precipitation_Accumulation
0.00 0.00 0.00 0.00 0.00 0.00 0.00 0.00 0.00 0.00 0.00 0.00 0.00 0.00 0.00 0.00 0.00 0.00 0.00 0.00 0.00 0.00 0.00 0.00 0.00 0.01 0.02 0.02 0.04 0.07 0.08 0.08 0.14 0.23 0.33 0.42 0.51 0.66
0.00 0.00 0.00 0.00 0.00 0.00 0.00 0.00 0.00 0.00 0.00 0.00 0.00 0.00 0.00 0.00 0.00 0.00 0.00 0.00 0.00 0.00 0.01 0.01 0.02 0.03 0.02 0.02 0.02 0.02 0.04 0.06 0.09 0.18 0.29 0.38 0.46 0.52
0.00 0.00 0.00 0.00 0.00 0.00 0.00 0.00 0.00 0.00 0.00 0.00 0.00 0.00 0.00 0.00 0.00 0.00 0.00 0.01 0.02 0.02 0.02 0.01 0.02 0.00 0.00 0.01 0.03 0.06 0.07 0.10 0.15 0.20 0.27 0.41 0.53 0.57
0.00 0.00 0.00 0.00 0.00 0.00 0.00 0.00 0.00 0.00 0.00 0.02 0.00 0.00 0.00 0.00 0.00 0.00 0.01 0.02 0.01 0.00 0.00 0.00 0.00 0.00 0.01 0.02 0.06 0.09 0.13 0.16 0.21 0.24 0.27 0.27 0.29 0.36
0.00 0.00 0.00 0.00 0.00 0.00 0.00 0.00 0.00 0.00 0.01 0.03 0.01 0.00 0.00 0.03 0.04 0.01 0.00 0.00 0.00 0.00 0.00 0.00 0.01 0.01 0.02 0.04 0.08 0.10 0.13 0.12 0.11 0.09 0.10 0.12 0.14 0.17
0.01 0.01 0.00 0.00 0.00 0.00 0.00 0.00 0.01 0.01 0.01 0.02 0.12 0.13 0.13 0.07 0.03 0.01 0.00 0.00 0.00 0.00 0.00 0.01 0.02 0.04 0.05 0.05 0.03 0.02 0.01 0.02 0.03 0.06 0.09 0.11 0.12 0.11
0.02 0.00 0.00 0.00 0.00 0.00 0.01 0.01 0.02 0.04 0.18 0.34 0.30 0.24 0.11 0.03 0.00 0.00 0.01 0.02 0.02 0.01 0.01 0.02 0.03 0.02 0.00 0.00 0.00 0.01 0.02 0.07 0.10 0.13 0.16 0.16 0.17 0.17
0.00 0.00 0.00 0.00 0.00 0.00 0.01 0.03 0.06 0.23 0.33 0.42 0.34 0.14 0.02 0.00 0.01 0.05 0.16 0.14 0.09 0.00 0.03 0.02 0.00 0.00 0.00 0.00 0.02 0.03 0.04 0.05 0.06 0.09 0.12 0.14 0.14 0.16
0.00 0.00 0.00 0.00 0.00 0.00 0.01 0.06 0.19 0.25 0.24 0.14 0.04 0.01 0.02 0.05 0.23 0.23 0.13 0.14 0.08 0.01 0.05 0.07 0.01 0.01 0.01 0.01 0.01 0.01 0.03 0.04 0.07 0.09 0.12 0.13 0.13 0.12
0.00 0.00 0.00 0.00 0.01 0.03 0.08 0.21 0.15 0.09 0.01 0.00 0.01 0.03 0.08 0.09 0.09 0.19 0.16 0.11 0.05 0.01 0.03 0.14 0.02 0.01 0.00 0.00 0.01 0.01 0.03 0.12 0.18 0.19 0.20 0.20 0.17 0.16
0.00 0.00 0.02 0.02 0.02 0.10 0.16 0.22 0.07 0.00 0.00 0.01 0.07 0.05 0.02 0.01 0.01 0.13 0.20 0.19 0.13 0.01 0.01 0.09 0.04 0.02 0.01 0.00 0.00 0.04 0.06 0.07 0.05 0.06 0.07 0.09 0.10 0.12
0.00 0.00 0.01 0.02 0.05 0.21 0.14 0.04 0.01 0.01 0.07 0.06 0.01 0.00 0.00 0.00 0.01 0.04 0.19 0.55 0.25 0.19 0.01 0.28 0.16 0.11 0.35 0.03 0.01 0.02 0.01 0.01 0.05 0.05 0.05 0.07 0.08 0.12
0.01 0.01 0.00 0.05 0.16 0.12 0.03 0.00 0.02 0.04 0.03 0.00 0.00 0.00 0.00 0.01 0.01 0.01 0.07 0.47 0.73 0.44 0.02 0.51 0.61 0.11 0.30 0.12 0.01 0.01 0.01 0.08 0.17 0.16 0.18 0.23 0.25 0.29
0.02 0.01 0.04 0.13 0.07 0.00 0.00 0.02 0.03 0.02 0.00 0.00 0.01 0.01 0.02 0.02 0.01 0.01 0.02 0.06 0.20 0.48 0.17 0.31 0.90 0.34 0.51 0.27 0.03 0.01 0.01 0.13 0.38 0.50 0.51 0.52 0.53 0.47
0.03 0.07 0.09 0.02 0.00 0.00 0.00 0.01 0.01 0.00 0.01 0.05 0.05 0.03 0.03 0.03 0.03 0.03 0.02 0.01 0.03 0.04 0.08 0.18 0.47 0.39 0.45 0.40 0.19 0.05 0.17 0.17 0.44 0.69 0.52 0.44 0.48 0.52
0.05 0.11 0.02 0.00 0.00 0.00 0.00 0.00 0.00 0.00 0.04 0.09 0.09 0.04 0.02 0.03 0.05 0.07 0.15 0.06 0.16 0.05 0.05 0.09 0.21 0.37 0.39 0.15 0.26 0.22 0.20 0.43 0.39 0.46 0.56 0.47 0.47 0.59
0.05 0.00 0.00 0.00 0.00 0.00 0.00 0.00 0.00 0.00 0.04 0.06 0.11 0.11 0.06 0.05 0.05 0.05 0.18 0.25 0.29 0.17 0.11 0.06 0.06 0.09 0.15 0.22 0.29 0.19 0.25 0.31 0.51 0.70 0.67 0.57 0.62 0.92
0.00 0.00 0.00 0.00 0.00 0.00 0.00 0.01 0.01 0.02 0.06 0.10 0.09 0.10 0.16 0.15 0.16 0.10 0.16 0.25 0.28 0.17 0.18 0.14 0.10 0.10 0.09 0.11 0.26 0.45 0.45 0.45 0.60 0.67 0.67 0.75 0.76 0.89
0.00 0.00 0.01 0.01 0.01 0.01 0.01 0.04 0.05 0.04 0.09 0.14 0.15 0.18 0.24 0.18 0.14 0.15 0.15 0.17 0.15 0.13 0.16 0.19 0.19 0.31 0.33 0.16 0.14 0.46 0.80 0.69 0.60 0.55 0.60 0.67 0.89 1.00
0.01 0.02 0.02 0.01 0.01 0.03 0.05 0.10 0.11 0.07 0.07 0.11 0.20 0.21 0.21 0.26 0.17 0.17 0.15 0.22 0.23 0.17 0.12 0.10 0.12 0.37 0.67 0.59 0.45 0.51 0.58 0.78 0.79 0.81 0.84 0.69 0.87 0.77
0.01 0.01 0.01 0.01 0.03 0.06 0.09 0.12 0.14 0.17 0.22 0.25 0.16 0.17 0.17 0.29 0.17 0.11 0.14 0.12 0.17 0.15 0.13 0.10 0.09 0.21 0.31 0.22 0.24 0.26 0.45 0.51 0.59 0.90 0.90 0.62 0.52 0.33
0.01 0.01 0.01 0.01 0.05 0.12 0.15 0.14 0.14 0.08 0.11 0.12 0.13 0.18 0.18 0.24 0.30 0.21 0.15 0.19 0.13 0.15 0.16 0.05 0.01 0.05 0.11 0.19 0.19 0.19 0.20 0.21 0.22 0.19 0.41 0.94 1.14 1.27
0.02 0.02 0.01 0.03 0.09 0.13 0.14 0.12 0.11 0.08 0.11 0.20 0.18 0.19 0.22 0.27 0.18 0.18 0.16 0.15 0.19 0.19 0.12 0.08 0.02 0.01 0.03 0.11 0.13 0.12 0.10 0.10 0.12 0.13 0.32 0.50 0.80 1.08

GFSNE_prec_precacc_039.txt.gz
Total_Precipitation_Accumulation
0.00 0.00 0.00 0.00 0.00 0.00 0.00 0.00 0.00 0.00 0.00 0.00 0.00 0.00 0.00 0.00 0.00 0.00 0.00 0.00 0.00 0.00 0.00 0.00 0.00 0.01 0.02 0.02 0.04 0.07 0.08 0.08 0.14 0.23 0.34 0.43 0.53 0.69
0.01 0.00 0.00 0.00 0.00 0.00 0.00 0.00 0.00 0.00 0.00 0.00 0.00 0.00 0.00 0.00 0.00 0.00 0.00 0.00 0.00 0.00 0.01 0.01 0.02 0.03 0.02 0.02 0.02 0.02 0.04 0.06 0.10 0.18 0.30 0.40 0.48 0.56
0.02 0.01 0.00 0.00 0.00 0.00 0.00 0.00 0.00 0.00 0.00 0.00 0.00 0.00 0.00 0.00 0.00 0.00 0.00 0.01 0.02 0.02 0.02 0.01 0.02 0.00 0.01 0.01 0.03 0.06 0.07 0.10 0.16 0.21 0.28 0.42 0.55 0.59
0.07 0.05 0.00 0.00 0.00 0.00 0.00 0.00 0.00 0.00 0.00 0.02 0.00 0.00 0.00 0.00 0.00 0.00 0.01 0.02 0.01 0.00 0.00 0.00 0.00 0.00 0.01 0.02 0.06 0.09 0.13 0.16 0.21 0.25 0.27 0.27 0.29 0.36
0.02 0.01 0.00 0.00 0.00 0.00 0.00 0.00 0.00 0.00 0.01 0.03 0.01 0.00 0.00 0.03 0.04 0.01 0.00 0.00 0.00 0.00 0.00 0.00 0.01 0.01 0.02 0.05 0.08 0.10 0.13 0.12 0.11 0.09 0.10 0.12 0.14 0.17
0.02 0.02 0.03 0.03 0.01 0.00 0.00 0.00 0.01 0.01 0.01 0.02 0.12 0.13 0.13 0.07 0.03 0.01 0.00 0.00 0.00 0.00 0.00 0.01 0.02 0.04 0.05 0.05 0.03 0.02 0.01 0.02 0.03 0.06 0.09 0.11 0.12 0.12
0.18 0.10 0.04 0.01 0.00 0.00 0.01 0.01 0.02 0.04 0.18 0.34 0.30 0.24 0.11 0.03 0.00 0.00 0.01 0.02 0.02 0.01 0.01 0.02 0.03 0.02 0.00 0.00 0.00 0.01 0.02 0.07 0.11 0.13 0.16 0.16 0.18 0.18
0.07 0.03 0.01 0.00 0.00 0.00 0.01 0.03 0.06 0.23 0.33 0.42 0.34 0.14 0.02 0.00 0.01 0.05 0.16 0.14 0.10 0.00 0.03 0.02 0.00 0.00 0.00 0.00 0.02 0.03 0.04 0.05 0.06 0.10 0.13 0.14 0.15 0.17
0.01 0.00 0.00 0.00 0.00 0.00 0.01 0.06 0.19 0.25 0.24 0.14 0.04 0.01 0.02 0.05 0.23 0.23 0.14 0.15 0.09 0.01 0.05 0.07 0.01 0.01 0.01 0.01 0.01 0.01 0.03 0.04 0.07 0.09 0.12 0.13 0.13 0.13
0.00 0.00 0.00 0.00 0.01 0.03 0.08 0.21 0.15 0.09 0.01 0.00 0.01 0.03 0.08 0.09 0.10 0.22 0.19 0.12 0.05 0.01 0.03 0.14 0.02 0.01 0.00 0.00 0.01 0.01 0.03 0.12 0.18 0.19 0.20 0.20 0.18 0.16
0.00 0.00 0.02 0.02 0.02 0.10 0.16 0.22 0.07 0.00 0.00 0.01 0.07 0.05 0.02 0.01 0.01 0.13 0.20 0.19 0.13 0.01 0.01 0.09 0.04 0.02 0.01 0.00 0.00 0.04 0.06 0.07 0.05 0.06 0.07 0.09 0.11 0.12
0.00 0.00 0.01 0.02 0.05 0.21 0.14 0.04 0.01 0.01 0.07 0.06 0.01 0.00 0.00 0.00 0.01 0.04 0.19 0.56 0.26 0.20 0.01 0.28 0.16 0.11 0.36 0.03 0.01 0.02 0.01 0.01 0.05 0.05 0.05 0.07 0.08 0.12
0.01 0.01 0.00 0.05 0.16 0.13 0.04 0.00 0.02 0.04 0.03 0.00 0.00 0.00 0.00 0.01 0.01 0.01 0.07 0.47 0.75 0.46 0.02 0.53 0.64 0.11 0.32 0.12 0.01 0.01 0.01 0.08 0.17 0.16 0.18 0.23 0.25 0.30
0.02 0.01 0.04 0.13 0.08 0.00 0.00 0.02 0.03 0.02 0.00 0.00 0.01 0.01 0.02 0.02 0.01 0.01 0.02 0.06 0.20 0.49 0.17 0.32 0.95 0.35 0.54 0.29 0.04 0.01 0.01 0.13 0.38 0.50 0.51 0.52 0.53 0.47
0.03 0.07 0.09 0.02 0.00 0.00 0.00 0.01 0.01 0.00 0.01 0.05 0.05 0.03 0.03 0.03 0.03 0.03 0.02 0.01 0.03 0.04 0.08 0.18 0.49 0.40 0.48 0.42 0.21 0.05 0.17 0.17 0.44 0.69 0.52 0.44 0.48 0.52
0.05 0.11 0.02 0.00 0.00 0.00 0.00 0.00 0.00 0.00 0.04 0.09 0.09 0.04 0.02 0.03 0.05 0.07 0.16 0.06 0.17 0.05 0.05 0.09 0.21 0.37 0.41 0.16 0.28 0.23 0.20 0.43 0.39 0.46 0.56 0.47 0.47 0.59
0.05 0.00 0.00 0.00 0.00 0.00 0.00 0.00 0.00 0.00 0.04 0.06 0.11 0.11 0.06 0.05 0.05 0.05 0.18 0.25 0.30 0.17 0.11 0.06 0.06 0.09 0.15 0.23 0.32 0.20 0.25 0.31 0.51 0.70 0.67 0.57 0.62 0.92
0.00 0.00 0.00 0.00 0.00 0.00 0.00 0.01 0.01 0.02 0.06 0.10 0.09 0.11 0.17 0.15 0.16 0.11 0.16 0.26 0.29 0.17 0.18 0.14 0.10 0.10 0.09 0.11 0.27 0.47 0.47 0.45 0.60 0.67 0.68 0.78 0.77 0.89
0.00 0.00 0.01 0.01 0.01 0.01 0.01 0.04 0.05 0.04 0.09 0.14 0.16 0.18 0.24 0.19 0.14 0.16 0.16 0.18 0.15 0.13 0.16 0.19 0.21 0.34 0.37 0.16 0.14 0.47 0.88 0.76 0.62 0.56 0.60 0.67 0.89 1.00
0.01 0.02 0.02 0.01 0.01 0.03 0.05 0.10 0.12 0.07 0.07 0.11 0.20 0.21 0.22 0.27 0.18 0.17 0.16 0.23 0.25 0.18 0.13 0.10 0.12 0.41 0.75 0.64 0.50 0.51 0.58 0.83 0.86 0.87 0.85 0.69 0.87 0.77
0.01 0.01 0.01 0.01 0.03 0.06 0.09 0.12 0.14 0.17 0.23 0.26 0.16 0.18 0.18 0.31 0.18 0.11 0.14 0.12 0.18 0.16 0.14 0.11 0.09 0.22 0.33 0.24 0.26 0.26 0.45 0.51 0.62 1.01 1.00 0.70 0.54 0.33
0.01 0.01 0.01 0.01 0.06 0.12 0.15 0.14 0.14 0.08 0.11 0.12 0.14 0.18 0.19 0.25 0.31 0.22 0.16 0.21 0.14 0.15 0.17 0.05 0.01 0.05 0.12 0.24 0.21 0.20 0.20 0.21 0.22 0.19 0.43 1.03 1.24 1.37
0.02 0.02 0.01 0.04 0.10 0.13 0.15 0.12 0.11 0.08 0.11 0.20 0.19 0.20 0.23 0.27 0.18 0.19 0.16 0.16 0.21 0.21 0.12 0.09 0.02 0.01 0.03 0.13 0.16 0.15 0.11 0.10 0.12 0.13 0.32 0.50 0.80 1.09

GFSNE_prec_precacc_042.txt.gz
Total_Precipitation_Accumulation
0.01 0.01 0.01 0.01 0.00 0.00 0.00 0.00 0.00 0.00 0.00 0.00 0.00 0.00 0.00 0.00 0.00 0.00 0.00 0.00 0.00 0.00 0.00 0.00 0.00 0.01 0.02 0.02 0.04 0.07 0.08 0.08 0.14 0.23 0.35 0.44 0.54 0.71
0.01 0.01 0.01 0.01 0.01 0.01 0.00 0.00 0.00 0.00 0.00 0.00 0.00 0.00 0.00 0.00 0.00 0.00 0.00 0.00 0.00 0.00 0.01 0.01 0.02 0.03 0.02 0.02 0.02 0.03 0.04 0.06 0.10 0.18 0.30 0.41 0.50 0.58
0.03 0.03 0.04 0.03 0.03 0.03 0.03 0.02 0.01 0.00 0.00 0.00 0.00 0.00 0.00 0.00 0.00 0.00 0.00 0.01 0.02 0.02 0.02 0.01 0.02 0.01 0.01 0.01 0.03 0.06 0.07 0.10 0.16 0.22 0.29 0.44 0.57 0.62
0.10 0.11 0.11 0.11 0.09 0.07 0.05 0.04 0.02 0.01 0.00 0.02 0.00 0.00 0.00 0.00 0.00 0.00 0.01 0.02 0.01 0.00 0.00 0.00 0.00 0.00 0.01 0.02 0.06 0.09 0.13 0.16 0.22 0.25 0.28 0.28 0.30 0.37
0.04 0.04 0.05 0.05 0.08 0.09 0.09 0.05 0.02 0.01 0.01 0.03 0.01 0.00 0.00 0.03 0.04 0.01 0.00 0.00 0.00 0.00 0.00 0.00 0.01 0.01 0.02 0.05 0.08 0.10 0.13 0.12 0.11 0.09 0.10 0.12 0.14 0.18
0.07 0.08 0.12 0.16 0.16 0.13 0.07 0.03 0.02 0.01 0.01 0.02 0.12 0.13 0.13 0.07 0.03 0.01 0.00 0.00 0.00 0.00 0.00 0.01 0.02 0.04 0.05 0.05 0.03 0.02 0.01 0.02 0.03 0.06 0.09 0.12 0.12 0.12
0.33 0.31 0.25 0.17 0.09 0.05 0.03 0.02 0.02 0.04 0.18 0.34 0.30 0.24 0.11 0.03 0.00 0.00 0.01 0.02 0.02 0.01 0.01 0.02 0.03 0.02 0.00 0.00 0.00 0.01 0.02 0.07 0.11 0.14 0.16 0.17 0.18 0.19
0.20 0.12 0.07 0.04 0.02 0.01 0.01 0.03 0.06 0.23 0.33 0.42 0.34 0.14 0.02 0.00 0.01 0.05 0.16 0.14 0.10 0.00 0.03 0.02 0.00 0.00 0.00 0.00 0.02 0.03 0.04 0.05 0.06 0.10 0.13 0.14 0.15 0.18
0.09 0.08 0.05 0.02 0.00 0.00 0.01 0.06 0.19 0.25 0.24 0.14 0.04 0.01 0.02 0.05 0.23 0.23 0.14 0.16 0.10 0.01 0.05 0.07 0.01 0.01 0.01 0.01 0.01 0.01 0.03 0.04 0.07 0.09 0.12 0.13 0.14 0.13
0.03 0.02 0.01 0.00 0.01 0.03 0.08 0.21 0.15 0.09 0.01 0.00 0.01 0.03 0.08 0.09 0.10 0.23 0.21 0.13 0.05 0.01 0.03 0.14 0.02 0.01 0.00 0.00 0.01 0.01 0.03 0.12 0.18 0.19 0.20 0.20 0.18 0.16
0.00 0.00 0.02 0.02 0.02 0.10 0.16 0.22 0.07 0.00 0.00 0.01 0.07 0.05 0.02 0.01 0.01 0.13 0.20 0.20 0.13 0.01 0.01 0.09 0.04 0.02 0.01 0.00 0.00 0.04 0.06 0.07 0.05 0.06 0.07 0.09 0.11 0.12
0.00 0.00 0.01 0.02 0.05 0.21 0.14 0.04 0.01 0.01 0.07 0.06 0.01 0.00 0.00 0.00 0.01 0.04 0.19 0.56 0.27 0.21 0.01 0.28 0.16 0.11 0.37 0.03 0.01 0.02 0.01 0.01 0.05 0.05 0.05 0.07 0.09 0.12
0.01 0.01 0.00 0.05 0.16 0.13 0.04 0.00 0.02 0.04 0.03 0.00 0.00 0.00 0.00 0.01 0.01 0.01 0.07 0.48 0.76 0.48 0.02 0.56 0.68 0.12 0.34 0.13 0.01 0.01 0.01 0.08 0.17 0.16 0.18 0.23 0.25 0.30
0.02 0.01 0.04 0.13 0.08 0.01 0.00 0.02 0.03 0.02 0.00 0.00 0.01 0.01 0.02 0.02 0.01 0.01 0.02 0.06 0.20 0.50 0.17 0.33 1.01 0.36 0.57 0.31 0.04 0.01 0.01 0.13 0.38 0.50 0.51 0.52 0.53 0.47
0.03 0.07 0.10 0.02 0.00 0.00 0.00 0.01 0.01 0.00 0.01 0.05 0.05 0.03 0.03 0.03 0.03 0.03 0.02 0.01 0.03 0.04 0.08 0.18 0.50 0.41 0.51 0.44 0.21 0.05 0.17 0.17 0.44 0.69 0.52 0.44 0.48 0.52
0.05 0.11 0.02 0.00 0.00 0.00 0.00 0.00 0.00 0.00 0.04 0.09 0.09 0.04 0.02 0.03 0.05 0.07 0.16 0.06 0.17 0.05 0.05 0.09 0.21 0.38 0.43 0.17 0.30 0.24 0.20 0.43 0.39 0.46 0.56 0.47 0.47 0.59
0.05 0.00 0.00 0.00 0.00 0.00 0.00 0.00 0.00 0.00 0.04 0.06 0.11 0.11 0.06 0.05 0.05 0.05 0.18 0.26 0.31 0.17 0.11 0.06 0.06 0.09 0.16 0.24 0.36 0.20 0.25 0.31 0.51 0.70 0.67 0.58 0.62 0.92
0.00 0.00 0.00 0.00 0.00 0.00 0.00 0.01 0.01 0.02 0.06 0.10 0.09 0.11 0.17 0.15 0.16 0.11 0.16 0.27 0.29 0.17 0.18 0.14 0.10 0.11 0.09 0.11 0.28 0.50 0.49 0.45 0.60 0.67 0.69 0.81 0.79 0.89
0.00 0.00 0.01 0.01 0.01 0.01 0.01 0.04 0.06 0.04 0.09 0.14 0.16 0.18 0.25 0.19 0.15 0.16 0.16 0.18 0.15 0.14 0.16 0.19 0.22 0.37 0.40 0.16 0.14 0.48 0.95 0.81 0.63 0.57 0.60 0.67 0.90 1.00
0.01 0.02 0.02 0.01 0.01 0.03 0.06 0.10 0.12 0.07 0.08 0.11 0.21 0.21 0.23 0.28 0.18 0.18 0.16 0.24 0.25 0.19 0.13 0.10 0.13 0.44 0.82 0.70 0.54 0.51 0.59 0.89 0.94 0.92 0.86 0.70 0.87 0.77
0.01 0.01 0.01 0.01 0.03 0.06 0.09 0.13 0.15 0.18 0.23 0.26 0.16 0.18 0.19 0.32 0.19 0.12 0.15 0.13 0.19 0.17 0.15 0.11 0.09 0.22 0.35 0.27 0.27 0.26 0.45 0.52 0.67 1.11 1.09 0.78 0.55 0.34
0.01 0.01 0.01 0.02 0.06 0.13 0.16 0.14 0.14 0.08 0.12 0.12 0.14 0.19 0.19 0.26 0.32 0.22 0.16 0.21 0.14 0.16 0.18 0.06 0.01 0.05 0.13 0.29 0.24 0.20 0.20 0.21 0.22 0.19 0.45 1.10 1.33 1.46
0.02 0.02 0.01 0.04 0.10 0.14 0.15 0.12 0.11 0.08 0.11 0.20 0.19 0.20 0.23 0.28 0.19 0.19 0.16 0.16 0.22 0.22 0.13 0.09 0.02 0.01 0.04 0.16 0.20 0.18 0.12 0.10 0.12 0.13 0.32 0.50 0.81 1.09

GFSNE_prec_precacc_045.txt.gz
Total_Precipitation_Accumulation
0.02 0.02 0.02 0.02 0.02 0.02 0.01 0.01 0.00 0.00 0.00 0.00 0.00 0.00 0.00 0.00 0.00 0.00 0.00 0.00 0.00 0.00 0.00 0.00 0.00 0.01 0.02 0.02 0.04 0.07 0.08 0.08 0.14 0.23 0.35 0.44 0.54 0.72
0.02 0.01 0.01 0.02 0.02 0.02 0.01 0.01 0.01 0.00 0.00 0.00 0.00 0.00 0.00 0.00 0.00 0.00 0.00 0.00 0.00 0.00 0.01 0.01 0.02 0.03 0.02 0.02 0.02 0.03 0.04 0.06 0.10 0.19 0.31 0.41 0.51 0.60
0.03 0.03 0.04 0.05 0.05 0.05 0.06 0.06 0.06 0.05 0.06 0.03 0.03 0.03 0.04 0.02 0.01 0.00 0.00 0.01 0.02 0.02 0.02 0.01 0.02 0.01 0.01 0.01 0.03 0.06 0.07 0.10 0.16 0.22 0.29 0.45 0.58 0.65
0.11 0.13 0.14 0.14 0.13 0.12 0.09 0.09 0.09 0.10 0.09 0.06 0.02 0.02 0.03 0.01 0.00 0.00 0.01 0.02 0.01 0.00 0.00 0.00 0.00 0.00 0.01 0.02 0.06 0.09 0.13 0.17 0.22 0.26 0.29 0.29 0.31 0.38
0.07 0.08 0.09 0.11 0.15 0.18 0.19 0.17 0.15 0.10 0.07 0.06 0.02 0.01 0.01 0.03 0.04 0.01 0.00 0.00 0.00 0.00 0.00 0.00 0.01 0.01 0.02 0.05 0.08 0.10 0.13 0.12 0.11 0.09 0.10 0.12 0.14 0.18
0.14 0.17 0.21 0.26 0.29 0.26 0.20 0.13 0.09 0.05 0.03 0.04 0.12 0.13 0.13 0.07 0.03 0.01 0.00 0.00 0.00 0.00 0.00 0.01 0.02 0.04 0.05 0.05 0.03 0.02 0.01 0.02 0.03 0.06 0.09 0.12 0.12 0.12
0.43 0.42 0.36 0.28 0.20 0.13 0.09 0.06 0.05 0.06 0.18 0.34 0.30 0.24 0.11 0.03 0.00 0.00 0.01 0.02 0.02 0.01 0.01 0.02 0.03 0.02 0.00 0.00 0.00 0.01 0.02 0.07 0.11 0.14 0.16 0.17 0.18 0.20
0.25 0.18 0.13 0.10 0.08 0.07 0.06 0.05 0.08 0.23 0.33 0.42 0.34 0.14 0.02 0.00 0.01 0.05 0.16 0.14 0.10 0.00 0.03 0.02 0.00 0.00 0.00 0.00 0.02 0.03 0.04 0.05 0.06 0.10 0.13 0.15 0.16 0.19
0.16 0.14 0.10 0.06 0.04 0.02 0.01 0.06 0.19 0.25 0.24 0.14 0.04 0.01 0.02 0.05 0.23 0.23 0.14 0.16 0.10 0.01 0.05 0.07 0.01 0.01 0.01 0.01 0.01 0.01 0.03 0.04 0.07 0.10 0.13 0.14 0.14 0.14
0.08 0.05 0.03 0.01 0.01 0.03 0.08 0.21 0.15 0.09 0.01 0.00 0.01 0.03 0.08 0.09 0.10 0.23 0.22 0.13 0.05 0.01 0.03 0.14 0.02 0.01 0.00 0.00 0.01 0.01 0.03 0.12 0.18 0.19 0.21 0.20 0.18 0.16
0.03 0.01 0.02 0.02 0.02 0.10 0.16 0.22 0.07 0.00 0.00 0.01 0.07 0.05 0.02 0.01 0.01 0.13 0.20 0.20 0.13 0.01 0.01 0.09 0.04 0.02 0.01 0.00 0.00 0.04 0.06 0.07 0.05 0.06 0.07 0.09 0.11 0.13
0.00 0.00 0.01 0.02 0.05 0.21 0.14 0.04 0.01 0.01 0.07 0.06 0.01 0.00 0.00 0.00 0.01 0.04 0.19 0.56 0.27 0.22 0.01 0.29 0.16 0.11 0.37 0.03 0.01 0.02 0.01 0.01 0.05 0.05 0.05 0.07 0.09 0.12
0.01 0.01 0.00 0.05 0.16 0.13 0.04 0.00 0.02 0.04 0.03 0.00 0.00 0.00 0.00 0.01 0.01 0.01 0.07 0.48 0.77 0.48 0.02 0.58 0.69 0.12 0.35 0.13 0.01 0.01 0.01 0.08 0.17 0.16 0.18 0.23 0.25 0.30
0.02 0.01 0.04 0.14 0.08 0.01 0.00 0.02 0.03 0.02 0.00 0.00 0.01 0.01 0.02 0.02 0.01 0.01 0.02 0.06 0.20 0.50 0.17 0.34 1.05 0.36 0.59 0.32 0.04 0.01 0.01 0.13 0.38 0.50 0.51 0.52 0.53 0.47
0.03 0.07 0.10 0.02 0.00 0.00 0.00 0.01 0.01 0.00 0.01 0.05 0.05 0.03 0.03 0.03 0.03 0.03 0.02 0.01 0.03 0.04 0.08 0.18 0.52 0.42 0.53 0.46 0.22 0.05 0.17 0.17 0.44 0.69 0.52 0.44 0.48 0.52
0.05 0.11 0.02 0.00 0.00 0.00 0.00 0.00 0.00 0.00 0.04 0.09 0.09 0.04 0.02 0.03 0.05 0.07 0.16 0.06 0.17 0.05 0.05 0.09 0.21 0.39 0.45 0.17 0.31 0.25 0.20 0.43 0.39 0.46 0.56 0.47 0.47 0.59
0.05 0.00 0.00 0.00 0.00 0.00 0.00 0.00 0.00 0.00 0.04 0.06 0.11 0.11 0.06 0.05 0.05 0.05 0.18 0.26 0.31 0.17 0.11 0.06 0.06 0.09 0.16 0.25 0.37 0.20 0.25 0.31 0.51 0.70 0.67 0.58 0.62 0.92
0.00 0.00 0.00 0.00 0.00 0.00 0.00 0.01 0.01 0.02 0.06 0.10 0.09 0.11 0.17 0.15 0.16 0.11 0.16 0.27 0.30 0.17 0.18 0.14 0.10 0.11 0.10 0.11 0.28 0.50 0.50 0.45 0.60 0.67 0.69 0.84 0.79 0.89
0.00 0.00 0.01 0.01 0.01 0.01 0.01 0.04 0.06 0.04 0.09 0.14 0.16 0.18 0.25 0.20 0.15 0.16 0.16 0.18 0.16 0.14 0.16 0.19 0.22 0.39 0.44 0.17 0.14 0.48 1.00 0.84 0.63 0.57 0.60 0.67 0.90 1.00
0.01 0.02 0.02 0.01 0.01 0.03 0.06 0.10 0.12 0.07 0.08 0.11 0.21 0.22 0.24 0.29 0.19 0.18 0.16 0.25 0.26 0.19 0.13 0.10 0.13 0.44 0.86 0.73 0.57 0.52 0.59 0.93 0.98 0.94 0.86 0.70 0.87 0.77
0.01 0.01 0.01 0.01 0.03 0.06 0.09 0.13 0.15 0.18 0.23 0.26 0.16 0.18 0.19 0.33 0.19 0.12 0.15 0.13 0.19 0.18 0.15 0.11 0.09 0.22 0.35 0.29 0.29 0.26 0.45 0.52 0.70 1.20 1.15 0.82 0.55 0.34
0.01 0.01 0.01 0.02 0.06 0.13 0.16 0.15 0.15 0.08 0.12 0.12 0.14 0.19 0.19 0.27 0.32 0.23 0.16 0.22 0.14 0.16 0.18 0.06 0.01 0.05 0.14 0.32 0.26 0.21 0.20 0.21 0.22 0.20 0.48 1.18 1.40 1.50
0.02 0.02 0.01 0.04 0.10 0.14 0.15 0.13 0.11 0.08 0.12 0.21 0.19 0.20 0.24 0.29 0.19 0.20 0.17 0.16 0.22 0.23 0.14 0.10 0.03 0.01 0.04 0.18 0.23 0.19 0.12 0.10 0.12 0.13 0.32 0.51 0.81 1.10

GFSNE_prec_precacc_048.txt.gz
Total_Precipitation_Accumulation
0.07 0.04 0.03 0.03 0.03 0.02 0.02 0.01 0.01 0.01 0.02 0.02 0.01 0.00 0.00 0.00 0.00 0.00 0.00 0.00 0.00 0.00 0.00 0.00 0.00 0.01 0.02 0.02 0.04 0.07 0.08 0.08 0.14 0.23 0.35 0.44 0.54 0.72
0.07 0.04 0.03 0.02 0.03 0.03 0.02 0.02 0.02 0.03 0.04 0.03 0.03 0.03 0.02 0.02 0.03 0.03 0.01 0.00 0.00 0.00 0.01 0.01 0.02 0.03 0.02 0.02 0.02 0.03 0.04 0.06 0.10 0.19 0.31 0.42 0.51 0.61
0.06 0.06 0.07 0.08 0.09 0.09 0.07 0.06 0.08 0.10 0.14 0.11 0.10 0.11 0.10 0.07 0.05 0.03 0.01 0.02 0.02 0.02 0.02 0.01 0.02 0.01 0.01 0.01 0.03 0.06 0.07 0.10 0.16 0.22 0.30 0.45 0.59 0.67
0.12 0.14 0.16 0.16 0.15 0.15 0.15 0.16 0.19 0.21 0.20 0.17 0.12 0.12 0.10 0.06 0.03 0.01 0.01 0.02 0.01 0.00 0.00 0.00 0.00 0.00 0.01 0.02 0.06 0.09 0.13 0.17 0.22 0.26 0.30 0.30 0.33 0.40
0.08 0.10 0.14 0.18 0.26 0.31 0.32 0.30 0.30 0.25 0.17 0.14 0.07 0.04 0.02 0.03 0.04 0.01 0.00 0.00 0.00 0.00 0.00 0.00 0.01 0.01 0.02 0.05 0.08 0.10 0.13 0.12 0.11 0.09 0.11 0.12 0.14 0.18
0.15 0.20 0.27 0.35 0.39 0.39 0.35 0.31 0.23 0.13 0.07 0.06 0.13 0.14 0.13 0.07 0.03 0.01 0.00 0.00 0.00 0.00 0.00 0.01 0.02 0.04 0.05 0.05 0.03 0.02 0.01 0.02 0.03 0.06 0.10 0.12 0.12 0.12
0.46 0.47 0.43 0.38 0.31 0.24 0.19 0.14 0.10 0.10 0.21 0.36 0.31 0.24 0.11 0.03 0.00 0.00 0.01 0.02 0.02 0.01 0.01 0.02 0.03 0.02 0.00 0.00 0.00 0.01 0.02 0.07 0.11 0.14 0.16 0.17 0.19 0.20
0.32 0.26 0.21 0.19 0.13 0.10 0.07 0.06 0.08 0.23 0.33 0.42 0.34 0.14 0.02 0.00 0.01 0.05 0.16 0.14 0.10 0.00 0.03 0.02 0.00 0.00 0.00 0.00 0.02 0.03 0.04 0.05 0.06 0.10 0.13 0.15 0.16 0.19
0.21 0.18 0.14 0.09 0.05 0.03 0.02 0.06 0.19 0.25 0.24 0.14 0.04 0.01 0.02 0.05 0.23 0.23 0.14 0.16 0.10 0.01 0.05 0.07 0.01 0.01 0.01 0.01 0.01 0.01 0.03 0.04 0.07 0.10 0.13 0.14 0.14 0.14
0.09 0.06 0.03 0.01 0.01 0.03 0.08 0.21 0.15 0.09 0.01 0.00 0.01 0.03 0.08 0.09 0.10 0.23 0.22 0.13 0.05 0.01 0.03 0.14 0.02 0.01 0.00 0.00 0.01 0.01 0.03 0.12 0.18 0.19 0.21 0.21 0.18 0.17
0.03 0.01 0.02 0.02 0.02 0.10 0.16 0.22 0.07 0.00 0.00 0.01 0.07 0.05 0.02 0.01 0.01 0.13 0.20 0.20 0.13 0.01 0.01 0.09 0.04 0.02 0.01 0.00 0.00 0.04 0.06 0.07 0.05 0.06 0.07 0.09 0.11 0.13
0.00 0.00 0.01 0.02 0.05 0.21 0.14 0.04 0.01 0.01 0.07 0.06 0.01 0.00 0.00 0.00 0.01 0.04 0.19 0.56 0.28 0.22 0.01 0.29 0.16 0.12 0.38 0.03 0.01 0.02 0.01 0.01 0.05 0.05 0.05 0.07 0.09 0.12
0.01 0.01 0.00 0.05 0.16 0.13 0.04 0.00 0.02 0.04 0.03 0.00 0.00 0.00 0.00 0.01 0.01 0.01 0.07 0.48 0.77 0.49 0.02 0.60 0.70 0.12 0.36 0.13 0.01 0.01 0.01 0.08 0.17 0.16 0.18 0.23 0.25 0.30
0.02 0.01 0.04 0.14 0.08 0.01 0.00 0.02 0.03 0.02 0.00 0.00 0.01 0.01 0.02 0.02 0.01 0.01 0.02 0.06 0.21 0.50 0.17 0.35 1.08 0.37 0.60 0.33 0.04 0.01 0.01 0.13 0.38 0.50 0.51 0.52 0.53 0.47
0.03 0.07 0.10 0.02 0.00 0.00 0.00 0.01 0.01 0.00 0.01 0.05 0.05 0.03 0.03 0.03 0.03 0.03 0.02 0.01 0.03 0.04 0.08 0.18 0.52 0.42 0.54 0.47 0.23 0.05 0.17 0.17 0.44 0.69 0.52 0.44 0.48 0.52
0.05 0.11 0.02 0.00 0.00 0.00 0.00 0.00 0.00 0.00 0.04 0.09 0.09 0.04 0.02 0.03 0.05 0.07 0.16 0.06 0.17 0.05 0.05 0.09 0.21 0.40 0.46 0.18 0.31 0.26 0.20 0.43 0.39 0.46 0.56 0.47 0.47 0.60
0.05 0.00 0.00 0.00 0.00 0.00 0.00 0.00 0.00 0.00 0.04 0.06 0.11 0.11 0.06 0.05 0.05 0.05 0.18 0.26 0.32 0.18 0.11 0.06 0.06 0.09 0.16 0.25 0.38 0.21 0.25 0.31 0.51 0.70 0.68 0.59 0.62 0.92
0.00 0.00 0.00 0.00 0.00 0.00 0.00 0.01 0.01 0.02 0.06 0.10 0.10 0.11 0.17 0.15 0.16 0.11 0.16 0.27 0.30 0.18 0.19 0.14 0.11 0.12 0.10 0.11 0.29 0.50 0.50 0.46 0.60 0.67 0.70 0.85 0.80 0.89
0.00 0.00 0.01 0.01 0.01 0.01 0.01 0.04 0.06 0.04 0.09 0.14 0.16 0.19 0.25 0.20 0.15 0.16 0.16 0.19 0.16 0.14 0.16 0.19 0.22 0.41 0.47 0.18 0.14 0.48 1.01 0.85 0.63 0.57 0.60 0.68 0.91 1.00
0.01 0.02 0.02 0.01 0.01 0.03 0.06 0.10 0.12 0.07 0.08 0.11 0.21 0.22 0.24 0.30 0.19 0.18 0.17 0.25 0.27 0.20 0.14 0.11 0.13 0.44 0.88 0.74 0.59 0.52 0.59 0.94 1.00 0.95 0.86 0.70 0.87 0.77
0.01 0.01 0.01 0.01 0.03 0.06 0.09 0.13 0.15 0.18 0.24 0.27 0.16 0.18 0.19 0.34 0.20 0.12 0.15 0.13 0.19 0.18 0.16 0.11 0.09 0.22 0.36 0.30 0.31 0.27 0.45 0.52 0.72 1.23 1.18 0.84 0.56 0.34
0.01 0.01 0.01 0.02 0.06 0.13 0.16 0.15 0.15 0.08 0.12 0.12 0.14 0.19 0.20 0.27 0.33 0.23 0.17 0.22 0.14 0.16 0.18 0.06 0.01 0.06 0.16 0.35 0.28 0.21 0.20 0.21 0.22 0.20 0.50 1.24 1.46 1.53
0.02 0.02 0.01 0.04 0.10 0.14 0.15 0.13 0.12 0.08 0.12 0.21 0.20 0.21 0.24 0.30 0.19 0.20 0.17 0.17 0.22 0.24 0.14 0.12 0.04 0.02 0.06 0.19 0.24 0.20 0.12 0.10 0.12 0.13 0.32 0.51 0.81 1.10

GFSNE_prec_precacc_054.txt.gz
Total_Precipitation_Accumulation
0.20 0.19 0.15 0.10 0.08 0.10 0.10 0.12 0.19 0.24 0.24 0.23 0.17 0.11 0.08 0.07 0.08 0.05 0.04 0.02 0.00 0.00 0.00 0.00 0.00 0.01 0.02 0.02 0.04 0.07 0.08 0.08 0.14 0.23 0.35 0.44 0.54 0.72
0.18 0.18 0.15 0.10 0.10 0.09 0.09 0.11 0.16 0.28 0.39 0.35 0.28 0.21 0.17 0.16 0.16 0.13 0.05 0.05 0.03 0.02 0.02 0.02 0.03 0.03 0.02 0.02 0.02 0.03 0.04 0.06 0.10 0.19 0.31 0.42 0.51 0.61
0.17 0.18 0.18 0.17 0.16 0.16 0.18 0.22 0.28 0.35 0.47 0.47 0.45 0.40 0.39 0.35 0.28 0.19 0.10 0.07 0.04 0.04 0.03 0.02 0.02 0.01 0.01 0.01 0.03 0.06 0.07 0.10 0.16 0.22 0.30 0.45 0.60 0.67
0.17 0.20 0.21 0.20 0.20 0.21 0.26 0.32 0.43 0.51 0.55 0.49 0.41 0.36 0.31 0.24 0.15 0.07 0.03 0.03 0.01 0.00 0.00 0.00 0.00 0.00 0.01 0.02 0.06 0.09 0.13 0.17 0.22 0.26 0.30 0.30 0.33 0.41
0.11 0.14 0.17 0.21 0.29 0.34 0.38 0.40 0.43 0.40 0.35 0.31 0.22 0.16 0.12 0.09 0.06 0.02 0.00 0.00 0.00 0.00 0.00 0.00 0.01 0.01 0.02 0.05 0.08 0.10 0.13 0.12 0.11 0.10 0.11 0.12 0.14 0.18
0.17 0.22 0.29 0.37 0.42 0.43 0.40 0.36 0.29 0.20 0.15 0.13 0.18 0.17 0.15 0.08 0.03 0.01 0.00 0.00 0.00 0.00 0.00 0.01 0.02 0.04 0.05 0.05 0.03 0.02 0.01 0.02 0.03 0.07 0.10 0.12 0.12 0.12
0.47 0.48 0.45 0.43 0.37 0.30 0.24 0.18 0.14 0.14 0.25 0.38 0.32 0.24 0.11 0.03 0.00 0.00 0.01 0.02 0.02 0.01 0.01 0.02 0.03 0.02 0.00 0.00 0.00 0.01 0.02 0.07 0.11 0.14 0.17 0.17 0.19 0.21
0.34 0.30 0.28 0.28 0.21 0.18 0.14 0.11 0.11 0.25 0.34 0.42 0.34 0.14 0.02 0.00 0.01 0.05 0.16 0.14 0.10 0.00 0.03 0.02 0.00 0.00 0.00 0.00 0.02 0.03 0.04 0.05 0.06 0.10 0.14 0.15 0.16 0.20
0.30 0.25 0.19 0.13 0.07 0.04 0.02 0.07 0.19 0.25 0.24 0.14 0.04 0.01 0.02 0.05 0.23 0.23 0.14 0.16 0.10 0.01 0.05 0.07 0.01 0.01 0.01 0.01 0.01 0.01 0.03 0.04 0.07 0.10 0.13 0.14 0.15 0.14
0.22 0.09 0.03 0.01 0.01 0.03 0.08 0.21 0.15 0.09 0.01 0.00 0.01 0.03 0.08 0.09 0.10 0.23 0.22 0.13 0.05 0.01 0.03 0.14 0.02 0.01 0.00 0.00 0.01 0.01 0.03 0.12 0.18 0.19 0.21 0.21 0.18 0.17
0.03 0.01 0.02 0.02 0.02 0.10 0.16 0.22 0.07 0.00 0.00 0.01 0.07 0.05 0.02 0.01 0.01 0.13 0.20 0.20 0.13 0.01 0.01 0.09 0.04 0.02 0.01 0.00 0.00 0.04 0.06 0.07 0.05 0.06 0.07 0.09 0.11 0.13
0.00 0.00 0.01 0.02 0.05 0.21 0.14 0.04 0.01 0.01 0.07 0.06 0.01 0.00 0.00 0.00 0.01 0.04 0.19 0.56 0.28 0.22 0.01 0.29 0.16 0.12 0.39 0.03 0.01 0.02 0.01 0.01 0.05 0.05 0.05 0.07 0.09 0.12
0.01 0.01 0.00 0.05 0.16 0.13 0.04 0.00 0.02 0.04 0.03 0.00 0.00 0.00 0.00 0.01 0.01 0.01 0.07 0.48 0.77 0.49 0.02 0.61 0.71 0.12 0.37 0.14 0.01 0.01 0.01 0.08 0.17 0.16 0.18 0.23 0.25 0.30
0.02 0.01 0.04 0.14 0.08 0.01 0.00 0.02 0.03 0.02 0.00 0.00 0.01 0.01 0.02 0.02 0.01 0.01 0.02 0.06 0.21 0.50 0.17 0.36 1.10 0.37 0.62 0.34 0.04 0.01 0.01 0.13 0.38 0.50 0.51 0.52 0.53 0.47
0.03 0.07 0.10 0.02 0.00 0.00 0.00 0.01 0.01 0.00 0.01 0.05 0.05 0.03 0.03 0.03 0.03 0.03 0.02 0.01 0.03 0.04 0.08 0.18 0.53 0.43 0.57 0.50 0.24 0.06 0.17 0.17 0.44 0.69 0.52 0.44 0.48 0.53
0.05 0.11 0.02 0.00 0.00 0.00 0.00 0.00 0.00 0.00 0.04 0.09 0.09 0.04 0.02 0.03 0.05 0.07 0.16 0.07 0.17 0.05 0.05 0.09 0.21 0.42 0.49 0.19 0.34 0.28 0.20 0.44 0.39 0.46 0.56 0.47 0.47 0.60
0.05 0.00 0.00 0.00 0.00 0.00 0.00 0.00 0.00 0.00 0.04 0.06 0.11 0.11 0.06 0.05 0.05 0.05 0.18 0.27 0.33 0.18 0.11 0.06 0.06 0.09 0.18 0.27 0.40 0.21 0.25 0.31 0.51 0.70 0.68 0.60 0.62 0.92
0.00 0.00 0.00 0.00 0.00 0.00 0.00 0.01 0.01 0.02 0.06 0.10 0.10 0.11 0.17 0.15 0.17 0.11 0.17 0.28 0.31 0.18 0.19 0.14 0.11 0.13 0.10 0.11 0.29 0.51 0.50 0.46 0.60 0.67 0.70 0.88 0.80 0.89
0.00 0.00 0.01 0.01 0.01 0.01 0.01 0.04 0.06 0.04 0.09 0.14 0.16 0.19 0.26 0.21 0.16 0.17 0.16 0.19 0.17 0.14 0.16 0.19 0.23 0.43 0.51 0.20 0.14 0.48 1.01 0.85 0.63 0.58 0.61 0.68 0.91 1.00
0.01 0.02 0.02 0.01 0.01 0.03 0.06 0.10 0.12 0.08 0.08 0.11 0.21 0.22 0.25 0.31 0.20 0.19 0.17 0.26 0.28 0.21 0.14 0.11 0.13 0.45 0.93 0.78 0.62 0.53 0.59 0.94 1.00 0.95 0.86 0.70 0.87 0.77
0.01 0.01 0.01 0.01 0.03 0.06 0.10 0.13 0.15 0.18 0.24 0.28 0.17 0.19 0.20 0.36 0.21 0.13 0.16 0.14 0.20 0.19 0.17 0.11 0.09 0.22 0.36 0.32 0.35 0.27 0.45 0.52 0.72 1.24 1.18 0.86 0.56 0.34
0.01 0.01 0.01 0.02 0.06 0.13 0.16 0.15 0.15 0.09 0.12 0.13 0.15 0.20 0.21 0.29 0.35 0.24 0.18 0.23 0.15 0.17 0.19 0.06 0.01 0.07 0.18 0.39 0.31 0.21 0.20 0.21 0.22 0.20 0.50 1.26 1.51 1.57
0.02 0.02 0.01 0.04 0.10 0.14 0.15 0.13 0.12 0.08 0.12 0.21 0.20 0.21 0.25 0.31 0.20 0.21 0.18 0.18 0.24 0.25 0.15 0.12 0.04 0.03 0.08 0.21 0.26 0.21 0.13 0.10 0.12 0.13 0.32 0.51 0.81 1.10

GFSNE_prec_precacc_057.txt.gz
Total_Precipitation_Accumulation
0.30 0.32 0.35 0.25 0.21 0.20 0.18 0.18 0.23 0.29 0.26 0.25 0.25 0.24 0.22 0.23 0.24 0.20 0.22 0.22 0.18 0.18 0.15 0.10 0.05 0.02 0.02 0.02 0.04 0.07 0.08 0.08 0.14 0.23 0.35 0.44 0.54 0.72
0.23 0.25 0.25 0.22 0.24 0.25 0.22 0.21 0.21 0.31 0.42 0.37 0.36 0.38 0.40 0.41 0.41 0.37 0.29 0.26 0.19 0.12 0.06 0.05 0.05 0.04 0.03 0.02 0.02 0.03 0.04 0.06 0.10 0.19 0.31 0.42 0.51 0.61
0.18 0.20 0.22 0.24 0.26 0.29 0.35 0.42 0.53 0.64 0.64 0.60 0.58 0.58 0.58 0.54 0.43 0.29 0.15 0.10 0.06 0.05 0.04 0.02 0.02 0.01 0.01 0.01 0.03 0.06 0.07 0.10 0.16 0.22 0.30 0.45 0.60 0.67
0.18 0.22 0.23 0.22 0.23 0.27 0.36 0.49 0.66 0.83 0.96 0.97 0.81 0.61 0.47 0.33 0.18 0.08 0.04 0.03 0.01 0.01 0.00 0.00 0.00 0.00 0.01 0.02 0.06 0.09 0.13 0.17 0.22 0.26 0.30 0.30 0.33 0.41
0.13 0.17 0.20 0.23 0.30 0.35 0.39 0.42 0.45 0.43 0.38 0.33 0.24 0.17 0.13 0.09 0.06 0.02 0.00 0.00 0.00 0.00 0.00 0.00 0.01 0.01 0.02 0.05 0.08 0.10 0.13 0.12 0.11 0.10 0.11 0.12 0.14 0.18
0.17 0.22 0.29 0.37 0.42 0.43 0.41 0.36 0.29 0.20 0.16 0.13 0.19 0.18 0.15 0.08 0.03 0.01 0.00 0.00 0.00 0.00 0.00 0.01 0.02 0.04 0.05 0.05 0.03 0.02 0.01 0.02 0.03 0.07 0.10 0.12 0.12 0.12
0.48 0.48 0.45 0.43 0.37 0.30 0.24 0.18 0.15 0.14 0.25 0.38 0.32 0.24 0.11 0.03 0.00 0.00 0.01 0.02 0.02 0.01 0.01 0.02 0.03 0.02 0.00 0.00 0.00 0.01 0.02 0.07 0.11 0.14 0.17 0.17 0.19 0.21
0.35 0.31 0.30 0.32 0.24 0.19 0.15 0.11 0.12 0.25 0.34 0.42 0.34 0.14 0.02 0.00 0.01 0.05 0.16 0.14 0.10 0.00 0.03 0.02 0.00 0.00 0.00 0.00 0.02 0.03 0.04 0.05 0.06 0.10 0.14 0.15 0.16 0.20
0.33 0.29 0.22 0.14 0.09 0.06 0.03 0.07 0.19 0.25 0.24 0.14 0.04 0.01 0.02 0.05 0.23 0.23 0.14 0.16 0.10 0.01 0.05 0.07 0.01 0.01 0.01 0.01 0.01 0.01 0.03 0.04 0.07 0.10 0.13 0.14 0.15 0.15
0.24 0.12 0.05 0.02 0.01 0.03 0.08 0.21 0.15 0.09 0.01 0.00 0.01 0.03 0.08 0.09 0.10 0.23 0.22 0.13 0.05 0.01 0.03 0.14 0.02 0.01 0.00 0.00 0.01 0.01 0.03 0.12 0.18 0.19 0.21 0.21 0.18 0.17
0.03 0.01 0.02 0.02 0.02 0.10 0.16 0.22 0.07 0.00 0.00 0.01 0.07 0.05 0.02 0.01 0.01 0.13 0.20 0.20 0.13 0.01 0.01 0.09 0.04 0.02 0.01 0.00 0.00 0.04 0.06 0.07 0.05 0.06 0.07 0.09 0.11 0.13
0.00 0.00 0.01 0.02 0.05 0.21 0.14 0.04 0.01 0.01 0.07 0.06 0.01 0.00 0.00 0.00 0.01 0.04 0.19 0.56 0.28 0.22 0.01 0.29 0.16 0.12 0.39 0.03 0.01 0.02 0.01 0.01 0.05 0.05 0.05 0.07 0.09 0.12
0.01 0.01 0.00 0.05 0.16 0.13 0.04 0.00 0.02 0.04 0.03 0.00 0.00 0.00 0.00 0.01 0.01 0.01 0.07 0.48 0.77 0.49 0.02 0.61 0.71 0.13 0.38 0.14 0.01 0.01 0.01 0.08 0.17 0.16 0.18 0.23 0.25 0.30
0.02 0.01 0.04 0.14 0.08 0.01 0.00 0.02 0.03 0.02 0.00 0.00 0.01 0.01 0.02 0.02 0.01 0.01 0.02 0.06 0.21 0.50 0.17 0.36 1.11 0.37 0.62 0.35 0.05 0.01 0.01 0.13 0.38 0.50 0.51 0.52 0.53 0.47
0.03 0.07 0.10 0.02 0.00 0.00 0.00 0.01 0.01 0.00 0.01 0.05 0.05 0.03 0.03 0.03 0.03 0.03 0.02 0.01 0.03 0.04 0.08 0.18 0.54 0.44 0.58 0.52 0.25 0.06 0.17 0.17 0.44 0.69 0.52 0.44 0.48 0.53
0.05 0.11 0.02 0.00 0.00 0.00 0.00 0.00 0.00 0.00 0.04 0.09 0.09 0.04 0.02 0.03 0.05 0.07 0.16 0.07 0.18 0.05 0.05 0.09 0.21 0.42 0.50 0.20 0.35 0.28 0.20 0.44 0.39 0.46 0.56 0.47 0.47 0.60
0.05 0.00 0.00 0.00 0.00 0.00 0.00 0.00 0.00 0.00 0.04 0.06 0.11 0.11 0.06 0.05 0.05 0.05 0.18 0.27 0.33 0.18 0.11 0.06 0.06 0.09 0.18 0.27 0.41 0.21 0.25 0.31 0.51 0.70 0.68 0.60 0.62 0.92
0.00 0.00 0.00 0.00 0.00 0.00 0.00 0.01 0.01 0.02 0.06 0.10 0.10 0.11 0.18 0.16 0.17 0.11 0.17 0.29 0.31 0.18 0.19 0.14 0.11 0.13 0.11 0.12 0.29 0.51 0.50 0.46 0.60 0.67 0.70 0.88 0.80 0.89
0.00 0.00 0.01 0.01 0.01 0.01 0.01 0.04 0.06 0.04 0.09 0.14 0.16 0.19 0.26 0.21 0.16 0.17 0.17 0.20 0.17 0.15 0.16 0.19 0.23 0.44 0.53 0.21 0.14 0.48 1.01 0.85 0.63 0.58 0.61 0.68 0.91 1.00
0.01 0.02 0.02 0.01 0.01 0.03 0.06 0.10 0.12 0.08 0.08 0.11 0.22 0.23 0.25 0.31 0.21 0.20 0.18 0.27 0.28 0.21 0.15 0.11 0.13 0.46 0.94 0.79 0.64 0.53 0.59 0.94 1.00 0.95 0.86 0.70 0.87 0.77
0.01 0.01 0.01 0.01 0.03 0.06 0.10 0.13 0.15 0.18 0.24 0.28 0.17 0.19 0.20 0.36 0.22 0.13 0.16 0.15 0.21 0.20 0.18 0.11 0.09 0.22 0.36 0.34 0.37 0.27 0.45 0.52 0.72 1.24 1.18 0.86 0.57 0.34
0.01 0.01 0.01 0.02 0.06 0.13 0.16 0.15 0.15 0.09 0.12 0.13 0.15 0.20 0.21 0.30 0.35 0.25 0.18 0.24 0.16 0.17 0.19 0.06 0.01 0.07 0.19 0.41 0.31 0.21 0.20 0.21 0.22 0.20 0.50 1.26 1.51 1.58
0.02 0.02 0.01 0.04 0.10 0.14 0.15 0.13 0.12 0.08 0.12 0.21 0.20 0.21 0.25 0.32 0.20 0.22 0.19 0.19 0.24 0.26 0.15 0.13 0.04 0.04 0.08 0.21 0.26 0.21 0.13 0.10 0.12 0.13 0.32 0.51 0.81 1.10

GFSNE_prec_precacc_060.txt.gz
Total_Precipitation_Accumulation
0.30 0.32 0.36 0.26 0.24 0.24 0.27 0.38 0.54 0.64 0.51 0.44 0.42 0.35 0.27 0.28 0.29 0.28 0.34 0.41 0.41 0.40 0.36 0.32 0.29 0.24 0.17 0.12 0.09 0.10 0.09 0.09 0.14 0.23 0.35 0.44 0.54 0.72
0.23 0.25 0.26 0.23 0.25 0.28 0.29 0.41 0.57 0.72 0.79 0.60 0.53 0.50 0.49 0.49 0.51 0.48 0.44 0.46 0.38 0.28 0.19 0.16 0.14 0.09 0.05 0.04 0.04 0.03 0.05 0.06 0.10 0.19 0.31 0.42 0.51 0.61
0.18 0.20 0.23 0.24 0.27 0.30 0.38 0.47 0.60 0.73 0.88 0.85 0.81 0.78 0.75 0.70 0.64 0.49 0.35 0.22 0.12 0.09 0.07 0.05 0.04 0.03 0.03 0.02 0.04 0.06 0.07 0.10 0.16 0.22 0.30 0.45 0.60 0.67
0.19 0.23 0.24 0.23 0.24 0.28 0.37 0.49 0.67 0.85 1.02 1.08 1.03 0.94 0.77 0.57 0.37 0.18 0.08 0.04 0.02 0.02 0.03 0.02 0.02 0.02 0.01 0.02 0.06 0.09 0.13 0.17 0.22 0.26 0.30 0.30 0.33 0.41
0.14 0.17 0.21 0.24 0.31 0.36 0.39 0.42 0.45 0.43 0.40 0.36 0.27 0.21 0.17 0.15 0.09 0.03 0.01 0.00 0.00 0.01 0.01 0.00 0.01 0.01 0.02 0.05 0.08 0.10 0.13 0.12 0.11 0.10 0.11 0.12 0.14 0.18
0.17 0.22 0.30 0.38 0.42 0.43 0.41 0.36 0.29 0.21 0.16 0.13 0.19 0.19 0.16 0.09 0.04 0.01 0.00 0.00 0.00 0.00 0.00 0.01 0.02 0.04 0.05 0.05 0.03 0.02 0.01 0.02 0.03 0.07 0.10 0.12 0.12 0.12
0.48 0.48 0.46 0.43 0.38 0.30 0.24 0.18 0.15 0.15 0.26 0.38 0.32 0.25 0.12 0.03 0.00 0.00 0.01 0.02 0.02 0.01 0.01 0.02 0.03 0.02 0.00 0.00 0.00 0.01 0.02 0.07 0.11 0.14 0.17 0.17 0.19 0.21
0.35 0.31 0.30 0.33 0.25 0.20 0.16 0.12 0.12 0.25 0.34 0.42 0.34 0.14 0.02 0.00 0.01 0.05 0.16 0.14 0.10 0.00 0.03 0.02 0.00 0.00 0.00 0.00 0.02 0.03 0.04 0.05 0.06 0.10 0.14 0.15 0.17 0.20
0.33 0.29 0.22 0.14 0.09 0.06 0.04 0.07 0.19 0.25 0.24 0.14 0.04 0.01 0.02 0.05 0.23 0.23 0.14 0.16 0.10 0.01 0.05 0.07 0.01 0.01 0.01 0.01 0.01 0.01 0.03 0.04 0.07 0.10 0.13 0.14 0.15 0.15
0.24 0.12 0.05 0.02 0.01 0.03 0.08 0.21 0.15 0.09 0.01 0.00 0.01 0.03 0.08 0.09 0.10 0.23 0.22 0.13 0.05 0.01 0.03 0.14 0.02 0.01 0.00 0.00 0.01 0.01 0.03 0.12 0.18 0.19 0.21 0.21 0.18 0.17
0.03 0.01 0.02 0.02 0.02 0.10 0.16 0.22 0.07 0.00 0.00 0.01 0.07 0.05 0.02 0.01 0.01 0.13 0.20 0.20 0.13 0.01 0.01 0.09 0.04 0.02 0.01 0.00 0.00 0.04 0.06 0.07 0.05 0.06 0.07 0.09 0.11 0.13
0.00 0.00 0.01 0.02 0.05 0.21 0.14 0.04 0.01 0.01 0.07 0.06 0.01 0.00 0.00 0.00 0.01 0.04 0.19 0.56 0.28 0.22 0.01 0.29 0.16 0.12 0.39 0.03 0.01 0.02 0.01 0.01 0.05 0.05 0.05 0.07 0.09 0.12
0.01 0.01 0.00 0.05 0.16 0.13 0.04 0.00 0.02 0.04 0.03 0.00 0.00 0.00 0.00 0.01 0.01 0.01 0.07 0.48 0.77 0.49 0.02 0.61 0.71 0.13 0.38 0.14 0.01 0.01 0.01 0.08 0.17 0.16 0.18 0.23 0.25 0.30
0.02 0.01 0.04 0.14 0.08 0.01 0.00 0.02 0.03 0.02 0.00 0.00 0.01 0.01 0.02 0.02 0.01 0.01 0.02 0.06 0.21 0.51 0.17 0.36 1.11 0.37 0.63 0.36 0.05 0.01 0.01 0.13 0.38 0.50 0.51 0.52 0.53 0.47
0.03 0.07 0.10 0.02 0.00 0.00 0.00 0.01 0.01 0.00 0.01 0.05 0.05 0.03 0.03 0.03 0.03 0.03 0.02 0.01 0.03 0.04 0.08 0.18 0.54 0.44 0.60 0.53 0.25 0.06 0.17 0.17 0.44 0.69 0.52 0.44 0.48 0.53
0.05 0.11 0.02 0.00 0.00 0.00 0.00 0.00 0.00 0.00 0.04 0.09 0.09 0.04 0.02 0.03 0.05 0.07 0.16 0.07 0.18 0.05 0.05 0.09 0.21 0.43 0.52 0.21 0.35 0.29 0.20 0.44 0.39 0.46 0.56 0.47 0.47 0.60
0.05 0.00 0.00 0.00 0.00 0.00 0.00 0.00 0.00 0.00 0.04 0.06 0.11 0.11 0.06 0.05 0.05 0.05 0.19 0.27 0.33 0.18 0.11 0.06 0.06 0.09 0.19 0.28 0.42 0.22 0.25 0.31 0.51 0.70 0.68 0.60 0.62 0.92
0.00 0.00 0.00 0.00 0.00 0.00 0.00 0.01 0.01 0.02 0.06 0.10 0.10 0.11 0.18 0.16 0.17 0.11 0.17 0.29 0.31 0.18 0.19 0.14 0.11 0.13 0.11 0.12 0.29 0.51 0.51 0.46 0.60 0.67 0.70 0.88 0.81 0.89
0.00 0.00 0.01 0.01 0.01 0.01 0.01 0.04 0.06 0.04 0.09 0.15 0.16 0.19 0.27 0.21 0.16 0.17 0.17 0.20 0.17 0.15 0.16 0.19 0.23 0.45 0.54 0.21 0.14 0.48 1.01 0.85 0.63 0.58 0.61 0.68 0.91 1.00
0.01 0.02 0.02 0.01 0.01 0.03 0.06 0.10 0.12 0.08 0.08 0.12 0.22 0.23 0.25 0.32 0.21 0.20 0.18 0.27 0.28 0.21 0.15 0.11 0.13 0.46 0.96 0.79 0.64 0.53 0.59 0.94 1.00 0.95 0.86 0.70 0.87 0.77
0.01 0.01 0.01 0.01 0.03 0.06 0.10 0.13 0.15 0.18 0.24 0.28 0.17 0.20 0.21 0.36 0.22 0.13 0.16 0.15 0.22 0.21 0.18 0.11 0.09 0.22 0.37 0.36 0.39 0.27 0.45 0.52 0.72 1.24 1.18 0.86 0.57 0.34
0.01 0.01 0.01 0.02 0.06 0.13 0.16 0.15 0.15 0.09 0.12 0.13 0.15 0.20 0.21 0.30 0.35 0.25 0.18 0.24 0.16 0.17 0.20 0.06 0.01 0.07 0.19 0.42 0.32 0.21 0.20 0.21 0.22 0.20 0.50 1.26 1.51 1.58
0.02 0.02 0.01 0.04 0.10 0.14 0.15 0.13 0.12 0.08 0.12 0.21 0.20 0.21 0.25 0.32 0.20 0.22 0.19 0.19 0.25 0.26 0.16 0.13 0.04 0.04 0.09 0.22 0.27 0.22 0.13 0.10 0.12 0.13 0.32 0.51 0.81 1.10

GFSNE_prec_precacc_066.txt.gz
Total_Precipitation_Accumulation
0.31 0.32 0.37 0.27 0.25 0.25 0.28 0.39 0.59 0.70 0.54 0.46 0.48 0.48 0.46 0.46 0.50 0.53 0.58 0.74 0.81 0.80 0.78 0.76 0.71 0.58 0.45 0.34 0.27 0.24 0.24 0.23 0.26 0.34 0.46 0.55 0.63 0.79
0.23 0.25 0.26 0.23 0.25 0.28 0.31 0.43 0.59 0.76 0.81 0.61 0.54 0.55 0.60 0.66 0.73 0.68 0.67 0.78 0.78 0.79 0.71 0.61 0.52 0.36 0.23 0.16 0.10 0.09 0.10 0.12 0.16 0.24 0.35 0.46 0.55 0.63
0.18 0.20 0.23 0.24 0.28 0.31 0.38 0.48 0.61 0.74 0.88 0.86 0.81 0.79 0.80 0.80 0.73 0.57 0.50 0.41 0.37 0.40 0.34 0.24 0.17 0.12 0.10 0.09 0.10 0.11 0.11 0.12 0.17 0.23 0.30 0.46 0.60 0.68
0.19 0.23 0.24 0.23 0.25 0.29 0.38 0.50 0.67 0.85 1.02 1.08 1.03 0.94 0.79 0.61 0.43 0.26 0.17 0.11 0.07 0.11 0.09 0.07 0.08 0.07 0.05 0.06 0.10 0.11 0.13 0.17 0.22 0.26 0.30 0.30 0.33 0.41
0.14 0.17 0.21 0.24 0.32 0.36 0.39 0.42 0.45 0.44 0.40 0.36 0.27 0.22 0.20 0.18 0.13 0.06 0.04 0.02 0.02 0.05 0.05 0.03 0.04 0.03 0.03 0.05 0.09 0.10 0.13 0.12 0.11 0.10 0.11 0.12 0.14 0.18
0.17 0.23 0.30 0.38 0.43 0.43 0.41 0.36 0.29 0.21 0.16 0.14 0.20 0.19 0.16 0.09 0.05 0.02 0.02 0.01 0.01 0.00 0.02 0.01 0.02 0.04 0.05 0.05 0.03 0.02 0.01 0.02 0.03 0.07 0.10 0.12 0.12 0.12
0.48 0.48 0.46 0.44 0.39 0.31 0.24 0.18 0.15 0.15 0.26 0.38 0.32 0.25 0.12 0.03 0.01 0.01 0.02 0.02 0.02 0.01 0.01 0.02 0.03 0.02 0.00 0.00 0.00 0.01 0.02 0.07 0.11 0.14 0.17 0.17 0.19 0.21
0.35 0.31 0.30 0.33 0.25 0.21 0.16 0.12 0.12 0.25 0.34 0.42 0.34 0.14 0.02 0.00 0.01 0.05 0.16 0.14 0.10 0.00 0.03 0.02 0.00 0.00 0.00 0.00 0.02 0.03 0.04 0.05 0.06 0.10 0.14 0.16 0.17 0.20
0.33 0.29 0.22 0.14 0.09 0.06 0.04 0.07 0.19 0.25 0.24 0.14 0.04 0.01 0.02 0.05 0.23 0.23 0.14 0.16 0.10 0.01 0.05 0.07 0.01 0.01 0.01 0.01 0.01 0.01 0.03 0.04 0.07 0.10 0.13 0.15 0.15 0.15
0.24 0.12 0.05 0.02 0.01 0.03 0.08 0.21 0.15 0.09 0.01 0.00 0.01 0.03 0.08 0.09 0.10 0.23 0.22 0.13 0.05 0.01 0.03 0.14 0.02 0.01 0.00 0.00 0.01 0.01 0.03 0.12 0.18 0.19 0.21 0.21 0.18 0.17
0.03 0.01 0.02 0.02 0.02 0.10 0.16 0.22 0.07 0.00 0.00 0.01 0.07 0.05 0.02 0.01 0.01 0.13 0.20 0.20 0.13 0.01 0.01 0.09 0.04 0.02 0.01 0.00 0.00 0.04 0.06 0.07 0.05 0.06 0.07 0.09 0.11 0.13
0.00 0.00 0.01 0.02 0.05 0.21 0.14 0.04 0.01 0.01 0.07 0.06 0.01 0.00 0.00 0.00 0.01 0.04 0.19 0.56 0.28 0.22 0.01 0.29 0.16 0.12 0.39 0.03 0.01 0.02 0.01 0.01 0.05 0.05 0.05 0.07 0.09 0.12
0.01 0.01 0.00 0.05 0.16 0.13 0.04 0.00 0.02 0.04 0.03 0.00 0.00 0.00 0.00 0.01 0.01 0.01 0.07 0.48 0.77 0.49 0.02 0.61 0.72 0.13 0.38 0.14 0.01 0.01 0.01 0.08 0.17 0.16 0.18 0.23 0.25 0.30
0.02 0.01 0.04 0.14 0.08 0.01 0.00 0.02 0.03 0.02 0.00 0.00 0.01 0.01 0.02 0.02 0.01 0.01 0.02 0.06 0.21 0.51 0.17 0.36 1.13 0.38 0.64 0.36 0.05 0.01 0.01 0.13 0.38 0.50 0.51 0.52 0.53 0.47
0.03 0.07 0.10 0.02 0.00 0.00 0.00 0.01 0.01 0.00 0.01 0.05 0.05 0.03 0.03 0.03 0.03 0.03 0.02 0.01 0.03 0.04 0.08 0.18 0.55 0.46 0.62 0.54 0.26 0.06 0.17 0.17 0.44 0.69 0.52 0.44 0.48 0.53
0.05 0.11 0.02 0.00 0.00 0.00 0.00 0.00 0.00 0.00 0.04 0.09 0.09 0.04 0.02 0.03 0.05 0.07 0.16 0.07 0.18 0.05 0.05 0.09 0.21 0.44 0.54 0.22 0.37 0.29 0.20 0.44 0.39 0.46 0.56 0.47 0.47 0.60
0.05 0.00 0.00 0.00 0.00 0.00 0.00 0.00 0.00 0.00 0.04 0.06 0.11 0.11 0.06 0.05 0.05 0.05 0.19 0.27 0.34 0.18 0.11 0.06 0.06 0.09 0.19 0.29 0.44 0.22 0.25 0.31 0.51 0.70 0.69 0.60 0.62 0.92
0.00 0.00 0.00 0.00 0.00 0.00 0.00 0.01 0.01 0.02 0.06 0.10 0.10 0.12 0.18 0.16 0.17 0.11 0.17 0.29 0.32 0.19 0.19 0.14 0.11 0.14 0.11 0.12 0.29 0.51 0.51 0.46 0.60 0.67 0.70 0.89 0.81 0.89
0.00 0.00 0.01 0.01 0.01 0.01 0.01 0.04 0.06 0.04 0.09 0.15 0.16 0.20 0.27 0.21 0.16 0.17 0.17 0.20 0.18 0.15 0.16 0.19 0.23 0.45 0.56 0.22 0.14 0.48 1.01 0.85 0.63 0.58 0.61 0.68 0.91 1.00
0.01 0.02 0.02 0.01 0.01 0.03 0.06 0.10 0.12 0.08 0.08 0.12 0.22 0.23 0.25 0.32 0.22 0.20 0.18 0.27 0.29 0.21 0.15 0.11 0.14 0.47 0.99 0.80 0.66 0.53 0.59 0.94 1.00 0.95 0.86 0.70 0.87 0.77
0.01 0.01 0.01 0.01 0.03 0.06 0.10 0.13 0.15 0.18 0.24 0.28 0.17 0.20 0.21 0.36 0.22 0.14 0.16 0.15 0.22 0.22 0.19 0.11 0.09 0.23 0.42 0.42 0.42 0.28 0.45 0.52 0.72 1.24 1.18 0.87 0.57 0.34
0.01 0.01 0.01 0.02 0.06 0.13 0.16 0.15 0.15 0.09 0.12 0.13 0.15 0.20 0.21 0.30 0.36 0.25 0.18 0.24 0.16 0.18 0.20 0.06 0.01 0.07 0.22 0.47 0.34 0.21 0.20 0.21 0.22 0.20 0.50 1.27 1.52 1.59
0.02 0.02 0.01 0.04 0.10 0.14 0.15 0.13 0.12 0.08 0.12 0.21 0.20 0.21 0.25 0.32 0.21 0.23 0.20 0.20 0.26 0.28 0.16 0.13 0.04 0.04 0.10 0.23 0.28 0.22 0.13 0.10 0.12 0.13 0.32 0.51 0.81 1.10

GFSNE_prec_precacc_072.txt.gz
Total_Precipitation_Accumulation
0.31 0.33 0.37 0.27 0.25 0.25 0.28 0.39 0.59 0.71 0.54 0.46 0.48 0.48 0.46 0.46 0.50 0.53 0.58 0.74 0.82 0.82 0.84 0.93 1.03 1.10 0.88 0.88 0.81 0.65 0.60 0.42 0.39 0.51 0.59 0.65 0.73 0.89
0.23 0.25 0.26 0.23 0.25 0.28 0.31 0.43 0.60 0.76 0.82 0.61 0.54 0.55 0.60 0.66 0.73 0.68 0.68 0.79 0.79 0.81 0.77 0.71 0.70 0.60 0.44 0.42 0.42 0.34 0.26 0.22 0.23 0.35 0.49 0.60 0.67 0.73
0.18 0.20 0.23 0.24 0.28 0.31 0.38 0.48 0.61 0.74 0.88 0.86 0.81 0.79 0.80 0.80 0.73 0.57 0.50 0.41 0.38 0.42 0.39 0.32 0.25 0.23 0.22 0.21 0.21 0.21 0.19 0.19 0.23 0.29 0.36 0.50 0.64 0.71
0.19 0.23 0.24 0.23 0.25 0.29 0.38 0.50 0.67 0.85 1.02 1.08 1.03 0.94 0.79 0.61 0.43 0.26 0.17 0.11 0.07 0.12 0.10 0.08 0.09 0.09 0.07 0.08 0.12 0.13 0.15 0.18 0.24 0.28 0.32 0.32 0.35 0.41
0.14 0.17 0.21 0.24 0.32 0.36 0.39 0.42 0.45 0.44 0.40 0.36 0.27 0.22 0.20 0.18 0.13 0.06 0.04 0.02 0.02 0.05 0.05 0.04 0.04 0.03 0.04 0.05 0.09 0.10 0.13 0.12 0.11 0.10 0.11 0.12 0.14 0.18
0.17 0.23 0.30 0.38 0.43 0.43 0.41 0.36 0.29 0.21 0.16 0.14 0.20 0.19 0.16 0.09 0.05 0.02 0.02 0.01 0.01 0.00 0.02 0.01 0.02 0.04 0.05 0.05 0.03 0.02 0.01 0.02 0.03 0.07 0.10 0.12 0.12 0.12
0.48 0.48 0.46 0.44 0.39 0.31 0.24 0.18 0.15 0.15 0.26 0.38 0.32 0.25 0.12 0.03 0.01 0.01 0.02 0.02 0.02 0.01 0.01 0.02 0.03 0.02 0.00 0.00 0.00 0.01 0.02 0.07 0.11 0.14 0.17 0.17 0.19 0.21
0.35 0.31 0.30 0.33 0.25 0.21 0.16 0.12 0.12 0.25 0.34 0.42 0.34 0.14 0.02 0.00 0.01 0.05 0.16 0.14 0.10 0.00 0.03 0.02 0.00 0.00 0.00 0.00 0.02 0.03 0.04 0.05 0.06 0.10 0.14 0.16 0.17 0.20
0.33 0.29 0.22 0.14 0.09 0.06 0.04 0.07 0.19 0.25 0.24 0.14 0.04 0.01 0.02 0.05 0.23 0.23 0.14 0.16 0.10 0.01 0.05 0.07 0.01 0.01 0.01 0.01 0.01 0.01 0.03 0.04 0.07 0.10 0.13 0.15 0.15 0.15
0.24 0.12 0.05 0.02 0.01 0.03 0.08 0.21 0.15 0.09 0.01 0.00 0.01 0.03 0.08 0.09 0.10 0.23 0.22 0.13 0.05 0.01 0.03 0.14 0.02 0.01 0.00 0.00 0.01 0.01 0.03 0.12 0.18 0.19 0.21 0.21 0.18 0.17
0.03 0.01 0.02 0.02 0.02 0.10 0.16 0.22 0.07 0.00 0.00 0.01 0.07 0.05 0.02 0.01 0.01 0.13 0.20 0.20 0.13 0.01 0.01 0.09 0.04 0.02 0.01 0.00 0.00 0.04 0.06 0.07 0.05 0.06 0.07 0.09 0.11 0.13
0.00 0.00 0.01 0.02 0.05 0.21 0.14 0.04 0.01 0.01 0.07 0.06 0.01 0.00 0.00 0.00 0.01 0.04 0.19 0.56 0.28 0.22 0.01 0.29 0.16 0.12 0.39 0.03 0.01 0.02 0.01 0.01 0.05 0.05 0.05 0.07 0.09 0.12
0.01 0.01 0.00 0.05 0.16 0.13 0.04 0.00 0.02 0.04 0.03 0.00 0.00 0.00 0.00 0.01 0.01 0.01 0.07 0.48 0.77 0.49 0.02 0.61 0.72 0.13 0.38 0.14 0.01 0.01 0.01 0.08 0.17 0.16 0.18 0.23 0.25 0.30
0.02 0.01 0.04 0.14 0.08 0.01 0.00 0.02 0.03 0.02 0.00 0.00 0.01 0.01 0.02 0.02 0.01 0.01 0.02 0.06 0.21 0.51 0.18 0.36 1.14 0.39 0.65 0.37 0.05 0.01 0.01 0.13 0.38 0.50 0.51 0.52 0.53 0.47
0.03 0.07 0.10 0.02 0.00 0.00 0.00 0.01 0.01 0.00 0.01 0.05 0.05 0.03 0.03 0.03 0.03 0.03 0.02 0.01 0.03 0.04 0.08 0.18 0.55 0.46 0.63 0.55 0.26 0.06 0.17 0.17 0.44 0.69 0.52 0.44 0.48 0.53
0.05 0.11 0.02 0.00 0.00 0.00 0.00 0.00 0.00 0.00 0.04 0.09 0.09 0.04 0.02 0.03 0.05 0.07 0.16 0.07 0.18 0.05 0.05 0.09 0.21 0.44 0.55 0.23 0.37 0.30 0.20 0.45 0.39 0.46 0.56 0.47 0.47 0.60
0.05 0.00 0.00 0.00 0.00 0.00 0.00 0.00 0.00 0.00 0.04 0.06 0.11 0.11 0.06 0.05 0.05 0.05 0.19 0.27 0.35 0.19 0.11 0.06 0.06 0.09 0.19 0.29 0.44 0.22 0.25 0.31 0.51 0.70 0.69 0.61 0.62 0.92
0.00 0.00 0.00 0.00 0.00 0.00 0.00 0.01 0.01 0.02 0.06 0.10 0.10 0.12 0.18 0.16 0.17 0.11 0.18 0.30 0.32 0.19 0.19 0.14 0.11 0.14 0.11 0.12 0.29 0.51 0.51 0.46 0.60 0.67 0.70 0.89 0.81 0.89
0.00 0.00 0.01 0.01 0.01 0.01 0.01 0.04 0.06 0.04 0.09 0.15 0.16 0.20 0.27 0.21 0.16 0.17 0.17 0.20 0.18 0.15 0.16 0.19 0.23 0.46 0.57 0.22 0.14 0.48 1.01 0.85 0.63 0.58 0.61 0.69 0.91 1.00
0.01 0.02 0.02 0.01 0.01 0.03 0.06 0.10 0.12 0.08 0.08 0.12 0.22 0.23 0.25 0.32 0.22 0.20 0.18 0.27 0.29 0.21 0.15 0.11 0.14 0.47 1.01 0.81 0.67 0.53 0.59 0.94 1.00 0.95 0.86 0.70 0.87 0.77
0.01 0.01 0.01 0.01 0.03 0.06 0.10 0.13 0.15 0.18 0.24 0.28 0.17 0.20 0.21 0.36 0.22 0.14 0.16 0.15 0.22 0.22 0.19 0.11 0.09 0.24 0.43 0.46 0.45 0.28 0.45 0.52 0.72 1.24 1.18 0.87 0.58 0.34
0.01 0.01 0.01 0.02 0.06 0.13 0.16 0.15 0.15 0.09 0.12 0.13 0.15 0.20 0.21 0.30 0.36 0.25 0.18 0.25 0.16 0.18 0.20 0.06 0.01 0.07 0.22 0.50 0.35 0.21 0.20 0.21 0.22 0.20 0.50 1.27 1.52 1.59
0.02 0.02 0.01 0.04 0.10 0.14 0.15 0.13 0.12 0.08 0.12 0.21 0.20 0.21 0.25 0.32 0.21 0.24 0.21 0.20 0.26 0.28 0.16 0.14 0.04 0.04 0.11 0.24 0.29 0.23 0.13 0.10 0.12 0.13 0.32 0.51 0.81 1.10

GFSNE_prec_precacc_075.txt.gz
Total_Precipitation_Accumulation
0.31 0.33 0.37 0.27 0.26 0.26 0.28 0.39 0.60 0.71 0.55 0.46 0.48 0.48 0.46 0.46 0.50 0.53 0.58 0.74 0.82 0.83 0.84 0.93 1.03 1.10 0.89 0.91 0.89 0.99 1.18 0.71 0.50 0.56 0.62 0.68 0.76 0.92
0.23 0.25 0.26 0.23 0.25 0.28 0.31 0.43 0.60 0.76 0.82 0.61 0.54 0.55 0.60 0.66 0.73 0.68 0.68 0.79 0.79 0.82 0.78 0.72 0.70 0.60 0.45 0.46 0.52 0.46 0.36 0.33 0.34 0.38 0.51 0.63 0.70 0.76
0.18 0.20 0.23 0.24 0.28 0.31 0.38 0.48 0.61 0.74 0.88 0.86 0.81 0.79 0.80 0.80 0.73 0.57 0.50 0.41 0.38 0.42 0.39 0.32 0.26 0.24 0.22 0.21 0.22 0.25 0.26 0.27 0.30 0.32 0.38 0.51 0.65 0.72
0.19 0.23 0.24 0.23 0.25 0.29 0.38 0.50 0.67 0.85 1.02 1.08 1.03 0.94 0.79 0.61 0.43 0.26 0.17 0.11 0.07 0.12 0.10 0.08 0.09 0.09 0.07 0.08 0.12 0.14 0.16 0.20 0.26 0.30 0.33 0.32 0.35 0.42
0.14 0.17 0.21 0.24 0.32 0.36 0.39 0.42 0.45 0.44 0.40 0.36 0.27 0.22 0.20 0.18 0.13 0.06 0.04 0.02 0.02 0.05 0.05 0.04 0.04 0.03 0.04 0.05 0.09 0.10 0.13 0.12 0.11 0.10 0.11 0.12 0.14 0.18
0.17 0.23 0.30 0.38 0.43 0.43 0.41 0.36 0.29 0.21 0.16 0.14 0.20 0.19 0.16 0.09 0.05 0.02 0.02 0.01 0.01 0.00 0.02 0.01 0.02 0.04 0.05 0.05 0.03 0.02 0.01 0.02 0.03 0.07 0.10 0.12 0.12 0.12
0.48 0.48 0.46 0.44 0.39 0.31 0.24 0.18 0.15 0.15 0.26 0.38 0.32 0.25 0.12 0.03 0.01 0.01 0.02 0.02 0.02 0.01 0.01 0.02 0.03 0.02 0.00 0.00 0.00 0.01 0.02 0.07 0.11 0.14 0.17 0.17 0.19 0.21
0.35 0.31 0.30 0.33 0.25 0.21 0.16 0.12 0.12 0.25 0.34 0.42 0.34 0.14 0.02 0.00 0.01 0.05 0.16 0.14 0.10 0.00 0.03 0.02 0.00 0.00 0.00 0.00 0.02 0.03 0.04 0.05 0.06 0.10 0.14 0.16 0.17 0.20
0.33 0.29 0.22 0.14 0.09 0.06 0.04 0.07 0.19 0.25 0.24 0.14 0.04 0.01 0.02 0.05 0.23 0.23 0.14 0.16 0.10 0.01 0.05 0.07 0.01 0.01 0.01 0.01 0.01 0.01 0.03 0.04 0.07 0.10 0.13 0.15 0.15 0.15
0.24 0.12 0.05 0.02 0.01 0.03 0.08 0.21 0.15 0.09 0.01 0.00 0.01 0.03 0.08 0.09 0.10 0.23 0.22 0.13 0.05 0.01 0.03 0.14 0.02 0.01 0.00 0.00 0.01 0.01 0.03 0.12 0.18 0.19 0.21 0.21 0.18 0.17
0.03 0.01 0.02 0.02 0.02 0.10 0.16 0.22 0.07 0.00 0.00 0.01 0.07 0.05 0.02 0.01 0.01 0.13 0.20 0.20 0.13 0.01 0.01 0.09 0.04 0.02 0.01 0.00 0.00 0.04 0.06 0.07 0.05 0.06 0.07 0.09 0.11 0.13
0.00 0.00 0.01 0.02 0.05 0.21 0.14 0.04 0.01 0.01 0.07 0.06 0.01 0.00 0.00 0.00 0.01 0.04 0.19 0.56 0.28 0.22 0.01 0.29 0.16 0.12 0.39 0.03 0.01 0.02 0.01 0.01 0.05 0.05 0.05 0.07 0.09 0.12
0.01 0.01 0.00 0.05 0.16 0.13 0.04 0.00 0.02 0.04 0.03 0.00 0.00 0.00 0.00 0.01 0.01 0.01 0.07 0.48 0.77 0.49 0.02 0.61 0.72 0.13 0.38 0.14 0.01 0.01 0.01 0.08 0.17 0.16 0.18 0.23 0.25 0.30
0.02 0.01 0.04 0.14 0.08 0.01 0.00 0.02 0.03 0.02 0.00 0.00 0.01 0.01 0.02 0.02 0.01 0.01 0.02 0.06 0.21 0.51 0.18 0.37 1.14 0.39 0.65 0.37 0.05 0.01 0.01 0.13 0.38 0.50 0.51 0.52 0.53 0.47
0.03 0.07 0.10 0.02 0.00 0.00 0.00 0.01 0.01 0.00 0.01 0.05 0.05 0.03 0.03 0.03 0.03 0.03 0.02 0.01 0.03 0.04 0.09 0.18 0.56 0.46 0.63 0.56 0.27 0.06 0.17 0.17 0.44 0.69 0.52 0.44 0.48 0.53
0.05 0.11 0.02 0.00 0.00 0.00 0.00 0.00 0.00 0.00 0.04 0.09 0.09 0.04 0.02 0.03 0.05 0.07 0.16 0.07 0.18 0.05 0.05 0.09 0.21 0.44 0.55 0.23 0.38 0.30 0.20 0.45 0.39 0.46 0.56 0.47 0.47 0.60
0.05 0.00 0.00 0.00 0.00 0.00 0.00 0.00 0.00 0.00 0.04 0.06 0.11 0.11 0.06 0.05 0.05 0.05 0.19 0.27 0.35 0.19 0.11 0.06 0.06 0.09 0.19 0.29 0.44 0.22 0.25 0.31 0.51 0.70 0.69 0.61 0.62 0.92
0.00 0.00 0.00 0.00 0.00 0.00 0.00 0.01 0.01 0.02 0.06 0.10 0.10 0.12 0.18 0.16 0.17 0.11 0.18 0.30 0.32 0.19 0.19 0.14 0.11 0.14 0.11 0.12 0.29 0.51 0.51 0.46 0.60 0.67 0.70 0.90 0.81 0.89
0.00 0.00 0.01 0.01 0.01 0.01 0.01 0.04 0.06 0.04 0.09 0.15 0.16 0.20 0.27 0.21 0.16 0.17 0.17 0.20 0.18 0.15 0.16 0.19 0.23 0.46 0.57 0.22 0.14 0.48 1.01 0.85 0.63 0.58 0.61 0.69 0.91 1.00
0.01 0.02 0.02 0.01 0.01 0.03 0.06 0.10 0.12 0.08 0.08 0.12 0.22 0.23 0.25 0.32 0.22 0.20 0.18 0.27 0.29 0.21 0.15 0.11 0.14 0.47 1.01 0.81 0.67 0.53 0.59 0.94 1.00 0.95 0.86 0.70 0.87 0.77
0.01 0.01 0.01 0.01 0.03 0.06 0.10 0.13 0.15 0.18 0.24 0.28 0.17 0.20 0.21 0.36 0.22 0.14 0.16 0.15 0.22 0.22 0.19 0.11 0.10 0.24 0.45 0.48 0.47 0.28 0.45 0.52 0.72 1.24 1.18 0.88 0.58 0.34
0.01 0.01 0.01 0.02 0.06 0.13 0.16 0.15 0.15 0.09 0.12 0.13 0.15 0.20 0.21 0.30 0.36 0.25 0.18 0.25 0.16 0.18 0.21 0.06 0.01 0.07 0.23 0.51 0.35 0.22 0.20 0.21 0.22 0.20 0.50 1.27 1.52 1.59
0.02 0.02 0.01 0.04 0.10 0.14 0.15 0.13 0.12 0.08 0.12 0.21 0.20 0.21 0.25 0.32 0.21 0.24 0.21 0.21 0.27 0.28 0.16 0.14 0.05 0.05 0.11 0.25 0.29 0.23 0.13 0.10 0.12 0.13 0.32 0.51 0.81 1.10

GFSNE_prec_precacc_078.txt.gz
Total_Precipitation_Accumulation
0.31 0.33 0.37 0.28 0.26 0.27 0.30 0.41 0.60 0.71 0.55 0.46 0.48 0.48 0.46 0.46 0.50 0.53 0.58 0.75 0.83 0.84 0.86 0.94 1.04 1.10 0.89 0.91 0.90 1.00 1.19 0.89 1.08 0.89 0.72 0.71 0.78 0.93
0.23 0.25 0.26 0.23 0.25 0.29 0.31 0.43 0.60 0.76 0.82 0.61 0.54 0.55 0.60 0.66 0.73 0.68 0.68 0.79 0.80 0.83 0.79 0.72 0.70 0.60 0.46 0.46 0.53 0.49 0.39 0.36 0.45 0.62 0.67 0.71 0.75 0.79
0.18 0.20 0.23 0.24 0.28 0.31 0.38 0.48 0.61 0.74 0.88 0.86 0.81 0.79 0.80 0.80 0.73 0.57 0.50 0.41 0.38 0.42 0.39 0.32 0.26 0.24 0.22 0.21 0.22 0.26 0.28 0.31 0.35 0.42 0.51 0.64 0.75 0.78
0.19 0.23 0.24 0.23 0.25 0.29 0.38 0.50 0.67 0.85 1.02 1.08 1.03 0.94 0.79 0.61 0.43 0.26 0.17 0.11 0.07 0.12 0.10 0.08 0.09 0.10 0.08 0.08 0.12 0.14 0.16 0.21 0.27 0.32 0.36 0.36 0.39 0.45
0.14 0.17 0.21 0.24 0.32 0.36 0.39 0.42 0.45 0.44 0.40 0.36 0.27 0.22 0.20 0.18 0.13 0.06 0.04 0.02 0.02 0.05 0.05 0.04 0.04 0.03 0.04 0.05 0.09 0.10 0.13 0.12 0.11 0.10 0.11 0.12 0.14 0.18
0.17 0.23 0.30 0.38 0.43 0.43 0.41 0.36 0.29 0.21 0.16 0.14 0.20 0.19 0.16 0.09 0.05 0.02 0.02 0.01 0.01 0.00 0.02 0.01 0.02 0.04 0.05 0.05 0.03 0.02 0.01 0.02 0.03 0.07 0.10 0.12 0.12 0.12
0.48 0.48 0.46 0.44 0.39 0.31 0.24 0.18 0.15 0.15 0.26 0.38 0.32 0.25 0.12 0.03 0.01 0.01 0.02 0.02 0.02 0.01 0.01 0.02 0.03 0.02 0.00 0.00 0.00 0.01 0.02 0.07 0.11 0.14 0.17 0.17 0.19 0.21
0.35 0.31 0.30 0.33 0.25 0.21 0.16 0.12 0.12 0.25 0.34 0.42 0.34 0.14 0.02 0.00 0.01 0.05 0.16 0.14 0.10 0.00 0.03 0.02 0.00 0.00 0.00 0.00 0.02 0.03 0.04 0.05 0.06 0.10 0.14 0.16 0.17 0.20
0.33 0.29 0.22 0.14 0.09 0.06 0.04 0.07 0.19 0.25 0.24 0.14 0.04 0.01 0.02 0.05 0.23 0.23 0.14 0.16 0.10 0.01 0.05 0.07 0.01 0.01 0.01 0.01 0.01 0.01 0.03 0.04 0.07 0.10 0.13 0.15 0.15 0.15
0.24 0.12 0.05 0.02 0.01 0.03 0.08 0.21 0.15 0.09 0.01 0.00 0.01 0.03 0.08 0.09 0.10 0.23 0.22 0.13 0.05 0.01 0.03 0.14 0.02 0.01 0.00 0.00 0.01 0.01 0.03 0.12 0.18 0.19 0.21 0.21 0.18 0.17
0.03 0.01 0.02 0.02 0.02 0.10 0.16 0.22 0.07 0.00 0.00 0.01 0.07 0.05 0.02 0.01 0.01 0.13 0.20 0.20 0.13 0.01 0.01 0.09 0.04 0.02 0.01 0.00 0.00 0.04 0.06 0.07 0.05 0.06 0.07 0.09 0.11 0.13
0.00 0.00 0.01 0.02 0.05 0.21 0.14 0.04 0.01 0.01 0.07 0.06 0.01 0.00 0.00 0.00 0.01 0.04 0.19 0.56 0.28 0.22 0.01 0.29 0.16 0.12 0.39 0.03 0.01 0.02 0.01 0.01 0.05 0.05 0.05 0.07 0.09 0.12
0.01 0.01 0.00 0.05 0.16 0.13 0.04 0.00 0.02 0.04 0.03 0.00 0.00 0.00 0.00 0.01 0.01 0.01 0.07 0.48 0.77 0.49 0.02 0.61 0.72 0.13 0.38 0.14 0.01 0.01 0.01 0.08 0.17 0.16 0.18 0.23 0.25 0.30
0.02 0.01 0.04 0.14 0.08 0.01 0.00 0.02 0.03 0.02 0.00 0.00 0.01 0.01 0.02 0.02 0.01 0.01 0.02 0.06 0.21 0.51 0.18 0.37 1.14 0.39 0.65 0.37 0.05 0.01 0.01 0.13 0.38 0.50 0.51 0.52 0.53 0.47
0.03 0.07 0.10 0.02 0.00 0.00 0.00 0.01 0.01 0.00 0.01 0.05 0.05 0.03 0.03 0.03 0.03 0.03 0.02 0.01 0.03 0.04 0.09 0.18 0.56 0.46 0.63 0.56 0.27 0.06 0.17 0.17 0.44 0.69 0.52 0.44 0.48 0.53
0.05 0.11 0.02 0.00 0.00 0.00 0.00 0.00 0.00 0.00 0.04 0.09 0.09 0.04 0.02 0.03 0.05 0.07 0.16 0.07 0.18 0.05 0.05 0.09 0.21 0.44 0.55 0.23 0.38 0.30 0.20 0.45 0.39 0.46 0.56 0.47 0.47 0.60
0.05 0.00 0.00 0.00 0.00 0.00 0.00 0.00 0.00 0.00 0.04 0.06 0.11 0.11 0.06 0.05 0.05 0.05 0.19 0.27 0.35 0.19 0.11 0.06 0.06 0.09 0.19 0.29 0.44 0.22 0.25 0.31 0.51 0.70 0.69 0.61 0.62 0.92
0.00 0.00 0.00 0.00 0.00 0.00 0.00 0.01 0.01 0.02 0.06 0.10 0.10 0.12 0.18 0.16 0.17 0.11 0.18 0.30 0.32 0.19 0.19 0.14 0.11 0.14 0.11 0.12 0.29 0.51 0.51 0.46 0.60 0.68 0.70 0.90 0.81 0.89
0.00 0.00 0.01 0.01 0.01 0.01 0.01 0.04 0.06 0.04 0.09 0.15 0.16 0.20 0.27 0.21 0.16 0.17 0.17 0.20 0.18 0.15 0.16 0.19 0.23 0.46 0.58 0.22 0.14 0.48 1.01 0.85 0.63 0.58 0.61 0.69 0.91 1.00
0.01 0.02 0.02 0.01 0.01 0.03 0.06 0.10 0.12 0.08 0.08 0.12 0.22 0.23 0.25 0.32 0.22 0.20 0.18 0.27 0.29 0.21 0.15 0.11 0.14 0.47 1.02 0.81 0.67 0.53 0.59 0.94 1.00 0.95 0.86 0.70 0.87 0.77
0.01 0.01 0.01 0.01 0.03 0.06 0.10 0.13 0.15 0.18 0.24 0.28 0.17 0.20 0.21 0.36 0.22 0.14 0.16 0.15 0.22 0.22 0.19 0.11 0.10 0.24 0.47 0.50 0.48 0.28 0.45 0.52 0.72 1.24 1.19 0.88 0.58 0.34
0.01 0.01 0.01 0.02 0.06 0.13 0.16 0.15 0.15 0.09 0.12 0.13 0.15 0.20 0.21 0.30 0.36 0.25 0.18 0.25 0.16 0.18 0.21 0.06 0.02 0.07 0.24 0.52 0.36 0.22 0.20 0.21 0.22 0.20 0.50 1.28 1.53 1.60
0.02 0.02 0.01 0.04 0.10 0.14 0.15 0.13 0.12 0.08 0.12 0.21 0.20 0.21 0.25 0.32 0.21 0.24 0.21 0.21 0.27 0.29 0.17 0.14 0.05 0.05 0.12 0.25 0.30 0.24 0.13 0.10 0.12 0.13 0.32 0.51 0.81 1.10

GFSNE_prec_precacc_081.txt.gz
Total_Precipitation_Accumulation
0.31 0.33 0.37 0.28 0.26 0.27 0.30 0.41 0.61 0.72 0.55 0.46 0.48 0.48 0.46 0.46 0.50 0.53 0.58 0.75 0.83 0.85 0.87 0.95 1.04 1.11 0.90 0.92 0.90 1.00 1.19 0.90 1.13 1.01 0.84 0.78 0.86 1.05
0.23 0.25 0.26 0.23 0.25 0.29 0.31 0.43 0.60 0.76 0.82 0.61 0.54 0.55 0.60 0.66 0.73 0.68 0.68 0.79 0.80 0.83 0.80 0.73 0.71 0.61 0.46 0.47 0.54 0.49 0.39 0.37 0.48 0.75 0.89 0.89 0.91 0.95
0.18 0.20 0.23 0.24 0.28 0.31 0.38 0.48 0.61 0.74 0.88 0.86 0.81 0.79 0.80 0.80 0.73 0.57 0.50 0.41 0.38 0.42 0.40 0.32 0.26 0.24 0.22 0.21 0.22 0.26 0.28 0.32 0.37 0.48 0.64 0.82 0.87 0.87
0.19 0.23 0.24 0.23 0.25 0.29 0.38 0.50 0.67 0.85 1.02 1.08 1.03 0.94 0.79 0.61 0.43 0.26 0.17 0.11 0.07 0.12 0.10 0.08 0.09 0.10 0.08 0.08 0.12 0.14 0.16 0.21 0.28 0.34 0.39 0.39 0.41 0.47
0.14 0.17 0.21 0.24 0.32 0.36 0.39 0.42 0.45 0.44 0.40 0.36 0.27 0.22 0.20 0.18 0.13 0.06 0.04 0.02 0.02 0.05 0.05 0.04 0.04 0.03 0.04 0.05 0.09 0.10 0.13 0.12 0.11 0.10 0.12 0.13 0.15 0.19
0.17 0.23 0.30 0.38 0.43 0.43 0.41 0.36 0.29 0.21 0.16 0.14 0.20 0.19 0.16 0.09 0.05 0.02 0.02 0.01 0.01 0.00 0.02 0.01 0.02 0.04 0.05 0.05 0.03 0.02 0.01 0.02 0.03 0.07 0.10 0.12 0.12 0.12
0.48 0.48 0.46 0.44 0.39 0.31 0.24 0.18 0.15 0.15 0.26 0.38 0.32 0.25 0.12 0.03 0.01 0.01 0.02 0.02 0.02 0.01 0.01 0.02 0.03 0.02 0.00 0.00 0.00 0.01 0.02 0.07 0.11 0.14 0.17 0.17 0.19 0.21
0.35 0.31 0.30 0.33 0.25 0.21 0.16 0.12 0.12 0.25 0.34 0.42 0.34 0.14 0.02 0.00 0.01 0.05 0.16 0.14 0.10 0.00 0.03 0.02 0.00 0.00 0.00 0.00 0.02 0.03 0.04 0.05 0.06 0.10 0.14 0.16 0.17 0.20
0.33 0.29 0.22 0.14 0.09 0.06 0.04 0.07 0.19 0.25 0.24 0.14 0.04 0.01 0.02 0.05 0.23 0.23 0.14 0.16 0.10 0.01 0.05 0.07 0.01 0.01 0.01 0.01 0.01 0.01 0.03 0.04 0.07 0.10 0.13 0.15 0.15 0.15
0.24 0.12 0.05 0.02 0.01 0.03 0.08 0.21 0.15 0.09 0.01 0.00 0.01 0.03 0.08 0.09 0.10 0.23 0.22 0.13 0.05 0.01 0.03 0.14 0.02 0.01 0.00 0.00 0.01 0.01 0.03 0.12 0.18 0.19 0.21 0.21 0.18 0.17
0.03 0.01 0.02 0.02 0.02 0.10 0.16 0.22 0.07 0.00 0.00 0.01 0.07 0.05 0.02 0.01 0.01 0.13 0.20 0.20 0.13 0.01 0.01 0.09 0.04 0.02 0.01 0.00 0.00 0.04 0.06 0.07 0.05 0.06 0.07 0.09 0.11 0.13
0.00 0.00 0.01 0.02 0.05 0.21 0.14 0.04 0.01 0.01 0.07 0.06 0.01 0.00 0.00 0.00 0.01 0.04 0.19 0.56 0.28 0.22 0.01 0.29 0.16 0.12 0.39 0.03 0.01 0.02 0.01 0.01 0.05 0.05 0.05 0.07 0.09 0.12
0.01 0.01 0.00 0.05 0.16 0.13 0.04 0.00 0.02 0.04 0.03 0.00 0.00 0.00 0.00 0.01 0.01 0.01 0.07 0.48 0.77 0.49 0.02 0.61 0.72 0.13 0.38 0.14 0.01 0.01 0.01 0.08 0.17 0.16 0.18 0.23 0.25 0.30
0.02 0.01 0.04 0.14 0.08 0.01 0.00 0.02 0.03 0.02 0.00 0.00 0.01 0.01 0.02 0.02 0.01 0.01 0.02 0.06 0.21 0.51 0.18 0.37 1.14 0.39 0.65 0.37 0.05 0.01 0.01 0.13 0.38 0.50 0.51 0.52 0.53 0.47
0.03 0.07 0.10 0.02 0.00 0.00 0.00 0.01 0.01 0.00 0.01 0.05 0.05 0.03 0.03 0.03 0.03 0.03 0.02 0.01 0.03 0.04 0.09 0.18 0.56 0.46 0.63 0.56 0.27 0.06 0.17 0.17 0.44 0.69 0.52 0.44 0.48 0.53
0.05 0.11 0.02 0.00 0.00 0.00 0.00 0.00 0.00 0.00 0.04 0.09 0.09 0.04 0.02 0.03 0.05 0.07 0.16 0.07 0.18 0.05 0.05 0.09 0.21 0.44 0.55 0.23 0.38 0.30 0.20 0.45 0.39 0.46 0.56 0.47 0.47 0.60
0.05 0.00 0.00 0.00 0.00 0.00 0.00 0.00 0.00 0.00 0.04 0.06 0.11 0.11 0.06 0.05 0.05 0.05 0.19 0.27 0.35 0.19 0.11 0.06 0.06 0.09 0.19 0.29 0.44 0.22 0.25 0.31 0.51 0.70 0.69 0.61 0.62 0.92
0.00 0.00 0.00 0.00 0.00 0.00 0.00 0.01 0.01 0.02 0.06 0.10 0.10 0.12 0.18 0.16 0.17 0.11 0.18 0.30 0.32 0.19 0.19 0.14 0.11 0.14 0.11 0.12 0.29 0.51 0.51 0.46 0.60 0.68 0.70 0.90 0.81 0.89
0.00 0.00 0.01 0.01 0.01 0.01 0.01 0.04 0.06 0.05 0.09 0.15 0.16 0.20 0.27 0.21 0.16 0.17 0.17 0.20 0.18 0.15 0.16 0.19 0.23 0.46 0.58 0.22 0.14 0.48 1.01 0.85 0.63 0.58 0.61 0.69 0.91 1.00
0.01 0.02 0.02 0.01 0.01 0.03 0.06 0.10 0.12 0.08 0.08 0.12 0.22 0.23 0.25 0.32 0.22 0.20 0.18 0.27 0.29 0.21 0.15 0.11 0.14 0.47 1.02 0.81 0.67 0.53 0.59 0.94 1.00 0.95 0.86 0.70 0.87 0.77
0.01 0.01 0.01 0.01 0.03 0.06 0.10 0.13 0.15 0.18 0.24 0.28 0.17 0.20 0.21 0.36 0.22 0.14 0.16 0.15 0.22 0.22 0.19 0.11 0.10 0.24 0.48 0.52 0.49 0.28 0.45 0.52 0.72 1.24 1.19 0.88 0.59 0.34
0.02 0.01 0.01 0.02 0.06 0.13 0.16 0.15 0.15 0.09 0.12 0.13 0.15 0.20 0.21 0.30 0.36 0.25 0.18 0.25 0.16 0.18 0.21 0.06 0.02 0.07 0.24 0.53 0.36 0.22 0.20 0.21 0.22 0.20 0.50 1.28 1.53 1.60
0.02 0.02 0.01 0.04 0.10 0.14 0.15 0.13 0.12 0.08 0.12 0.21 0.20 0.21 0.25 0.32 0.21 0.24 0.21 0.21 0.27 0.29 0.17 0.14 0.05 0.05 0.12 0.26 0.30 0.24 0.13 0.10 0.12 0.13 0.32 0.51 0.81 1.10

GFSNE_prec_precacc_084.txt.gz
Total_Precipitation_Accumulation
0.31 0.33 0.37 0.28 0.26 0.27 0.30 0.41 0.61 0.72 0.55 0.46 0.48 0.48 0.46 0.46 0.50 0.53 0.58 0.75 0.83 0.85 0.88 0.95 1.05 1.12 0.90 0.93 0.91 1.00 1.20 0.90 1.14 1.02 0.89 0.84 0.92 1.18
0.23 0.25 0.26 0.23 0.25 0.29 0.31 0.43 0.60 0.76 0.82 0.61 0.54 0.55 0.60 0.66 0.73 0.68 0.68 0.79 0.80 0.83 0.80 0.73 0.71 0.62 0.46 0.47 0.54 0.50 0.41 0.38 0.49 0.76 0.95 0.99 1.04 1.16
0.18 0.20 0.23 0.24 0.28 0.31 0.38 0.48 0.61 0.74 0.88 0.86 0.81 0.79 0.80 0.80 0.73 0.57 0.50 0.41 0.38 0.42 0.40 0.33 0.26 0.24 0.22 0.21 0.22 0.26 0.29 0.33 0.38 0.49 0.75 1.09 1.05 0.91
0.19 0.23 0.24 0.23 0.25 0.29 0.38 0.50 0.67 0.85 1.02 1.08 1.03 0.94 0.79 0.61 0.43 0.26 0.17 0.11 0.07 0.12 0.10 0.08 0.09 0.10 0.08 0.08 0.12 0.14 0.16 0.21 0.29 0.35 0.42 0.47 0.51 0.52
0.14 0.17 0.21 0.24 0.32 0.36 0.39 0.42 0.45 0.44 0.40 0.36 0.27 0.22 0.20 0.18 0.13 0.06 0.04 0.02 0.02 0.05 0.05 0.04 0.04 0.03 0.04 0.05 0.09 0.10 0.13 0.12 0.11 0.10 0.12 0.14 0.16 0.20
0.17 0.23 0.30 0.38 0.43 0.43 0.41 0.36 0.29 0.21 0.16 0.14 0.20 0.19 0.16 0.09 0.05 0.02 0.02 0.01 0.01 0.00 0.02 0.01 0.02 0.04 0.05 0.05 0.03 0.02 0.01 0.02 0.03 0.07 0.10 0.12 0.12 0.12
0.48 0.48 0.46 0.44 0.39 0.31 0.24 0.18 0.15 0.15 0.26 0.38 0.32 0.25 0.12 0.03 0.01 0.01 0.02 0.02 0.02 0.01 0.01 0.02 0.03 0.02 0.00 0.00 0.00 0.01 0.02 0.07 0.11 0.14 0.17 0.17 0.19 0.21
0.35 0.31 0.30 0.33 0.25 0.21 0.16 0.12 0.12 0.25 0.34 0.42 0.34 0.14 0.02 0.00 0.01 0.05 0.16 0.14 0.10 0.00 0.03 0.02 0.00 0.00 0.00 0.00 0.02 0.03 0.04 0.05 0.06 0.10 0.14 0.16 0.17 0.20
0.33 0.29 0.22 0.14 0.09 0.06 0.04 0.07 0.19 0.25 0.24 0.14 0.04 0.01 0.02 0.05 0.23 0.23 0.14 0.16 0.10 0.01 0.05 0.07 0.01 0.01 0.01 0.01 0.01 0.01 0.03 0.04 0.07 0.10 0.13 0.15 0.15 0.15
0.24 0.12 0.05 0.02 0.01 0.03 0.08 0.21 0.15 0.09 0.01 0.00 0.01 0.03 0.08 0.09 0.10 0.23 0.22 0.13 0.05 0.01 0.03 0.14 0.02 0.01 0.00 0.00 0.01 0.01 0.03 0.12 0.18 0.19 0.21 0.21 0.18 0.17
0.03 0.01 0.02 0.02 0.02 0.10 0.16 0.22 0.07 0.00 0.00 0.01 0.07 0.05 0.02 0.01 0.01 0.13 0.20 0.20 0.13 0.01 0.01 0.09 0.04 0.02 0.01 0.00 0.00 0.04 0.06 0.07 0.05 0.06 0.07 0.09 0.11 0.13
0.00 0.00 0.01 0.02 0.05 0.21 0.14 0.04 0.01 0.01 0.07 0.06 0.01 0.00 0.00 0.00 0.01 0.04 0.19 0.56 0.28 0.22 0.01 0.29 0.16 0.12 0.39 0.03 0.01 0.02 0.01 0.01 0.05 0.05 0.05 0.07 0.09 0.12
0.01 0.01 0.00 0.05 0.16 0.13 0.04 0.00 0.02 0.04 0.03 0.00 0.00 0.00 0.00 0.01 0.01 0.01 0.07 0.48 0.77 0.49 0.02 0.61 0.72 0.13 0.38 0.14 0.01 0.01 0.01 0.08 0.17 0.16 0.18 0.23 0.25 0.30
0.02 0.01 0.04 0.14 0.08 0.01 0.00 0.02 0.03 0.02 0.00 0.00 0.01 0.01 0.02 0.02 0.01 0.01 0.02 0.06 0.21 0.51 0.18 0.37 1.14 0.39 0.65 0.37 0.05 0.01 0.01 0.13 0.38 0.50 0.51 0.52 0.53 0.47
0.03 0.07 0.10 0.02 0.00 0.00 0.00 0.01 0.01 0.00 0.01 0.05 0.05 0.03 0.03 0.03 0.03 0.03 0.02 0.01 0.03 0.04 0.09 0.18 0.56 0.46 0.63 0.56 0.27 0.06 0.17 0.17 0.44 0.69 0.52 0.44 0.48 0.53
0.05 0.11 0.02 0.00 0.00 0.00 0.00 0.00 0.00 0.00 0.04 0.09 0.09 0.04 0.02 0.03 0.05 0.07 0.16 0.07 0.18 0.05 0.05 0.09 0.21 0.44 0.55 0.23 0.38 0.30 0.20 0.45 0.39 0.46 0.56 0.47 0.47 0.60
0.05 0.00 0.00 0.00 0.00 0.00 0.00 0.00 0.00 0.00 0.04 0.06 0.11 0.11 0.06 0.05 0.05 0.05 0.19 0.27 0.35 0.19 0.11 0.06 0.06 0.09 0.19 0.29 0.45 0.22 0.25 0.31 0.51 0.70 0.69 0.61 0.62 0.92
0.00 0.00 0.00 0.00 0.00 0.00 0.01 0.01 0.01 0.02 0.06 0.11 0.10 0.12 0.18 0.16 0.17 0.11 0.18 0.30 0.32 0.19 0.19 0.14 0.11 0.14 0.11 0.12 0.29 0.51 0.51 0.46 0.60 0.68 0.70 0.90 0.81 0.89
0.00 0.00 0.01 0.01 0.01 0.01 0.01 0.05 0.06 0.05 0.09 0.15 0.16 0.20 0.27 0.21 0.16 0.17 0.17 0.20 0.18 0.15 0.16 0.19 0.23 0.46 0.58 0.23 0.14 0.48 1.01 0.85 0.63 0.58 0.61 0.69 0.91 1.00
0.01 0.02 0.02 0.01 0.01 0.03 0.06 0.10 0.12 0.08 0.08 0.12 0.22 0.23 0.25 0.32 0.22 0.20 0.18 0.27 0.29 0.21 0.15 0.11 0.14 0.47 1.02 0.81 0.67 0.53 0.59 0.94 1.00 0.95 0.86 0.70 0.87 0.77
0.01 0.01 0.01 0.01 0.03 0.06 0.10 0.13 0.15 0.18 0.24 0.28 0.17 0.20 0.21 0.36 0.22 0.14 0.16 0.15 0.22 0.22 0.19 0.11 0.10 0.24 0.48 0.53 0.50 0.28 0.45 0.52 0.72 1.24 1.19 0.89 0.59 0.34
0.02 0.01 0.01 0.02 0.06 0.13 0.16 0.15 0.15 0.09 0.12 0.13 0.15 0.20 0.21 0.30 0.36 0.25 0.18 0.25 0.16 0.18 0.21 0.06 0.02 0.07 0.24 0.54 0.36 0.22 0.20 0.21 0.22 0.20 0.50 1.28 1.53 1.61
0.02 0.02 0.01 0.04 0.10 0.14 0.16 0.13 0.12 0.08 0.12 0.21 0.20 0.21 0.26 0.32 0.21 0.24 0.21 0.21 0.27 0.29 0.17 0.14 0.05 0.05 0.13 0.26 0.30 0.24 0.13 0.10 0.12 0.13 0.32 0.51 0.81 1.10

GFSNE_prec_precacc_087.txt.gz
Total_Precipitation_Accumulation
0.31 0.33 0.37 0.28 0.26 0.27 0.30 0.41 0.62 0.73 0.56 0.46 0.48 0.48 0.47 0.46 0.50 0.53 0.58 0.75 0.83 0.85 0.88 0.95 1.06 1.12 0.90 0.93 0.91 1.01 1.21 0.92 1.15 1.03 0.89 0.86 1.01 1.30
0.23 0.25 0.26 0.23 0.25 0.29 0.31 0.44 0.60 0.77 0.83 0.61 0.55 0.56 0.60 0.66 0.74 0.68 0.68 0.79 0.80 0.83 0.80 0.74 0.72 0.62 0.47 0.47 0.55 0.50 0.42 0.39 0.49 0.76 0.95 1.02 1.12 1.29
0.18 0.20 0.23 0.24 0.28 0.31 0.39 0.48 0.61 0.74 0.89 0.86 0.82 0.79 0.81 0.80 0.73 0.57 0.50 0.41 0.38 0.42 0.40 0.33 0.26 0.24 0.22 0.22 0.22 0.26 0.29 0.34 0.38 0.50 0.76 1.17 1.14 0.94
0.19 0.23 0.24 0.23 0.25 0.29 0.38 0.50 0.67 0.85 1.02 1.08 1.03 0.94 0.79 0.61 0.43 0.26 0.17 0.11 0.07 0.12 0.10 0.08 0.09 0.10 0.08 0.08 0.12 0.14 0.16 0.21 0.29 0.37 0.45 0.53 0.62 0.58
0.14 0.17 0.21 0.24 0.32 0.36 0.39 0.42 0.45 0.44 0.40 0.36 0.27 0.22 0.20 0.18 0.13 0.06 0.04 0.02 0.02 0.05 0.05 0.04 0.04 0.03 0.04 0.05 0.09 0.10 0.13 0.12 0.11 0.10 0.14 0.17 0.20 0.28
0.17 0.23 0.30 0.38 0.43 0.43 0.41 0.36 0.29 0.21 0.16 0.14 0.20 0.19 0.16 0.09 0.05 0.02 0.02 0.01 0.01 0.00 0.02 0.01 0.02 0.04 0.05 0.05 0.03 0.02 0.01 0.02 0.03 0.07 0.10 0.12 0.13 0.13
0.48 0.48 0.46 0.44 0.39 0.31 0.24 0.18 0.15 0.15 0.26 0.38 0.32 0.25 0.12 0.03 0.01 0.01 0.02 0.02 0.02 0.01 0.01 0.02 0.03 0.02 0.00 0.00 0.00 0.01 0.02 0.07 0.11 0.14 0.17 0.17 0.19 0.21
0.35 0.31 0.30 0.33 0.25 0.21 0.16 0.12 0.12 0.25 0.34 0.42 0.34 0.14 0.02 0.00 0.01 0.05 0.16 0.14 0.10 0.00 0.03 0.02 0.00 0.00 0.00 0.00 0.02 0.03 0.04 0.05 0.06 0.10 0.14 0.16 0.17 0.20
0.33 0.29 0.22 0.14 0.09 0.06 0.04 0.07 0.19 0.25 0.24 0.14 0.04 0.01 0.02 0.05 0.23 0.23 0.14 0.16 0.10 0.01 0.05 0.07 0.01 0.01 0.01 0.01 0.01 0.01 0.03 0.04 0.07 0.10 0.13 0.15 0.15 0.15
0.24 0.12 0.05 0.02 0.01 0.03 0.08 0.21 0.15 0.09 0.01 0.00 0.01 0.03 0.08 0.09 0.10 0.23 0.22 0.13 0.05 0.01 0.03 0.14 0.02 0.01 0.00 0.00 0.01 0.01 0.03 0.12 0.18 0.19 0.21 0.21 0.18 0.17
0.03 0.01 0.02 0.02 0.02 0.10 0.16 0.22 0.07 0.00 0.00 0.01 0.07 0.05 0.02 0.01 0.01 0.13 0.20 0.20 0.13 0.01 0.01 0.09 0.04 0.02 0.01 0.00 0.00 0.04 0.06 0.07 0.05 0.06 0.07 0.09 0.11 0.13
0.00 0.00 0.01 0.02 0.05 0.21 0.15 0.04 0.01 0.01 0.07 0.06 0.01 0.00 0.00 0.00 0.01 0.04 0.19 0.56 0.28 0.22 0.01 0.29 0.16 0.12 0.39 0.03 0.01 0.02 0.01 0.01 0.05 0.05 0.05 0.07 0.09 0.12
0.01 0.01 0.00 0.05 0.16 0.13 0.04 0.00 0.02 0.04 0.03 0.00 0.00 0.00 0.00 0.01 0.01 0.01 0.07 0.48 0.77 0.49 0.02 0.61 0.72 0.13 0.38 0.14 0.01 0.01 0.01 0.08 0.17 0.16 0.18 0.23 0.25 0.30
0.02 0.01 0.04 0.14 0.08 0.01 0.00 0.02 0.03 0.02 0.00 0.00 0.01 0.01 0.02 0.02 0.01 0.01 0.02 0.06 0.21 0.51 0.18 0.37 1.14 0.39 0.65 0.37 0.05 0.01 0.01 0.13 0.38 0.50 0.51 0.52 0.53 0.47
0.03 0.07 0.10 0.02 0.00 0.00 0.00 0.01 0.01 0.00 0.01 0.05 0.05 0.03 0.03 0.03 0.03 0.03 0.02 0.01 0.03 0.04 0.09 0.18 0.56 0.46 0.63 0.56 0.27 0.06 0.17 0.17 0.44 0.69 0.52 0.44 0.48 0.53
0.05 0.11 0.02 0.00 0.00 0.00 0.00 0.00 0.00 0.00 0.04 0.09 0.09 0.04 0.02 0.03 0.05 0.07 0.16 0.07 0.18 0.05 0.05 0.09 0.21 0.44 0.55 0.23 0.38 0.30 0.20 0.45 0.39 0.46 0.56 0.47 0.47 0.60
0.05 0.00 0.00 0.00 0.00 0.00 0.00 0.00 0.00 0.00 0.04 0.06 0.11 0.11 0.06 0.05 0.05 0.05 0.19 0.27 0.35 0.19 0.11 0.06 0.06 0.09 0.19 0.29 0.45 0.22 0.25 0.31 0.51 0.70 0.69 0.61 0.62 0.92
0.00 0.00 0.00 0.00 0.00 0.00 0.01 0.01 0.01 0.02 0.06 0.11 0.10 0.12 0.18 0.16 0.17 0.11 0.18 0.30 0.32 0.19 0.19 0.14 0.11 0.14 0.11 0.12 0.29 0.51 0.51 0.46 0.60 0.68 0.70 0.90 0.81 0.89
0.00 0.01 0.01 0.01 0.01 0.01 0.01 0.05 0.06 0.05 0.09 0.15 0.16 0.20 0.27 0.21 0.16 0.17 0.17 0.20 0.18 0.15 0.16 0.19 0.23 0.46 0.58 0.23 0.14 0.48 1.01 0.85 0.63 0.58 0.61 0.69 0.91 1.00
0.01 0.02 0.02 0.01 0.01 0.03 0.06 0.10 0.12 0.08 0.08 0.12 0.22 0.23 0.25 0.32 0.22 0.20 0.18 0.27 0.29 0.21 0.15 0.11 0.14 0.47 1.02 0.81 0.67 0.53 0.59 0.94 1.00 0.95 0.86 0.70 0.87 0.77
0.01 0.01 0.01 0.01 0.03 0.06 0.10 0.13 0.15 0.18 0.24 0.28 0.17 0.20 0.21 0.36 0.22 0.14 0.16 0.15 0.22 0.22 0.19 0.11 0.10 0.24 0.48 0.53 0.50 0.28 0.45 0.52 0.72 1.24 1.19 0.89 0.59 0.34
0.02 0.01 0.01 0.02 0.06 0.13 0.16 0.15 0.15 0.09 0.12 0.13 0.15 0.20 0.21 0.30 0.36 0.25 0.18 0.25 0.16 0.18 0.21 0.06 0.02 0.07 0.24 0.54 0.36 0.22 0.20 0.21 0.22 0.20 0.50 1.28 1.54 1.61
0.02 0.02 0.01 0.04 0.10 0.14 0.17 0.15 0.13 0.09 0.12 0.21 0.20 0.21 0.26 0.33 0.22 0.24 0.21 0.21 0.27 0.29 0.17 0.15 0.05 0.05 0.13 0.26 0.30 0.24 0.13 0.10 0.12 0.13 0.32 0.51 0.81 1.10

GFSNE_prec_precacc_090.txt.gz
Total_Precipitation_Accumulation
0.31 0.33 0.37 0.28 0.26 0.27 0.30 0.42 0.63 0.74 0.56 0.46 0.49 0.48 0.47 0.46 0.51 0.53 0.58 0.75 0.83 0.85 0.88 0.95 1.06 1.13 0.91 0.94 0.92 1.02 1.22 0.92 1.15 1.03 0.90 0.86 1.02 1.37
0.23 0.25 0.26 0.23 0.25 0.29 0.31 0.44 0.61 0.78 0.84 0.61 0.55 0.56 0.61 0.66 0.74 0.69 0.68 0.79 0.80 0.83 0.80 0.74 0.72 0.62 0.47 0.48 0.55 0.51 0.42 0.39 0.50 0.77 0.96 1.02 1.14 1.37
0.18 0.20 0.23 0.24 0.28 0.31 0.39 0.48 0.61 0.75 0.90 0.86 0.82 0.80 0.81 0.80 0.73 0.57 0.50 0.41 0.38 0.42 0.40 0.33 0.26 0.24 0.23 0.22 0.23 0.26 0.29 0.34 0.39 0.52 0.78 1.18 1.16 0.96
0.19 0.23 0.24 0.23 0.25 0.29 0.38 0.50 0.67 0.85 1.02 1.09 1.04 0.95 0.80 0.61 0.43 0.26 0.17 0.11 0.07 0.12 0.10 0.08 0.09 0.10 0.08 0.08 0.12 0.14 0.16 0.21 0.30 0.38 0.48 0.56 0.67 0.60
0.14 0.17 0.21 0.24 0.32 0.36 0.39 0.42 0.45 0.44 0.40 0.36 0.27 0.22 0.20 0.18 0.13 0.06 0.04 0.02 0.02 0.05 0.05 0.04 0.04 0.03 0.04 0.05 0.09 0.10 0.13 0.12 0.11 0.11 0.17 0.21 0.23 0.31
0.17 0.23 0.30 0.38 0.43 0.43 0.41 0.36 0.29 0.21 0.16 0.14 0.21 0.20 0.17 0.09 0.05 0.02 0.02 0.01 0.01 0.00 0.02 0.01 0.02 0.04 0.05 0.05 0.03 0.02 0.01 0.02 0.03 0.07 0.10 0.14 0.15 0.15
0.48 0.48 0.46 0.44 0.39 0.31 0.24 0.18 0.15 0.15 0.26 0.38 0.32 0.25 0.12 0.03 0.01 0.01 0.02 0.02 0.02 0.01 0.01 0.02 0.03 0.02 0.00 0.00 0.00 0.01 0.02 0.07 0.11 0.14 0.17 0.17 0.19 0.21
0.35 0.31 0.30 0.33 0.25 0.21 0.16 0.12 0.12 0.25 0.34 0.42 0.34 0.14 0.02 0.00 0.01 0.05 0.16 0.14 0.10 0.00 0.03 0.02 0.00 0.00 0.00 0.00 0.02 0.03 0.04 0.05 0.06 0.10 0.14 0.16 0.17 0.20
0.33 0.29 0.22 0.14 0.09 0.06 0.04 0.07 0.19 0.25 0.24 0.14 0.04 0.01 0.02 0.05 0.23 0.23 0.14 0.16 0.10 0.01 0.05 0.07 0.01 0.01 0.01 0.01 0.01 0.01 0.03 0.04 0.07 0.10 0.13 0.15 0.15 0.15
0.24 0.12 0.05 0.02 0.01 0.03 0.08 0.21 0.15 0.09 0.01 0.00 0.01 0.03 0.08 0.09 0.10 0.23 0.22 0.13 0.05 0.01 0.03 0.14 0.02 0.01 0.00 0.00 0.01 0.01 0.03 0.12 0.18 0.19 0.21 0.21 0.18 0.17
0.03 0.01 0.02 0.02 0.02 0.10 0.16 0.22 0.07 0.00 0.00 0.01 0.07 0.05 0.02 0.01 0.01 0.13 0.20 0.20 0.13 0.01 0.01 0.09 0.04 0.02 0.01 0.00 0.00 0.04 0.06 0.07 0.05 0.06 0.07 0.09 0.11 0.13
0.00 0.00 0.01 0.02 0.05 0.21 0.15 0.04 0.01 0.01 0.07 0.06 0.01 0.00 0.00 0.00 0.01 0.04 0.19 0.56 0.28 0.22 0.01 0.29 0.16 0.12 0.39 0.03 0.01 0.02 0.01 0.01 0.05 0.05 0.05 0.07 0.09 0.12
0.01 0.01 0.00 0.05 0.16 0.13 0.04 0.00 0.02 0.04 0.03 0.00 0.00 0.00 0.00 0.01 0.01 0.01 0.07 0.48 0.77 0.49 0.02 0.61 0.72 0.13 0.38 0.14 0.01 0.01 0.01 0.08 0.17 0.16 0.18 0.23 0.25 0.30
0.02 0.01 0.04 0.14 0.08 0.01 0.00 0.02 0.03 0.02 0.00 0.00 0.01 0.01 0.02 0.02 0.01 0.01 0.02 0.06 0.21 0.51 0.18 0.37 1.14 0.39 0.65 0.37 0.05 0.01 0.01 0.13 0.38 0.50 0.51 0.52 0.53 0.47
0.03 0.07 0.10 0.02 0.00 0.00 0.00 0.01 0.01 0.00 0.01 0.05 0.05 0.03 0.03 0.03 0.03 0.03 0.02 0.01 0.03 0.04 0.09 0.18 0.56 0.46 0.63 0.56 0.27 0.06 0.17 0.17 0.44 0.69 0.52 0.44 0.48 0.53
0.05 0.11 0.02 0.00 0.00 0.00 0.00 0.00 0.00 0.00 0.04 0.09 0.09 0.04 0.02 0.03 0.05 0.07 0.16 0.07 0.18 0.05 0.05 0.09 0.21 0.44 0.55 0.23 0.38 0.30 0.20 0.45 0.39 0.46 0.56 0.47 0.47 0.60
0.05 0.00 0.00 0.00 0.00 0.00 0.00 0.00 0.00 0.00 0.04 0.06 0.11 0.11 0.06 0.05 0.05 0.05 0.19 0.27 0.35 0.19 0.11 0.06 0.06 0.09 0.19 0.29 0.45 0.22 0.25 0.31 0.51 0.70 0.69 0.61 0.62 0.92
0.00 0.00 0.00 0.00 0.00 0.00 0.01 0.01 0.01 0.02 0.06 0.11 0.10 0.12 0.18 0.16 0.17 0.11 0.18 0.30 0.32 0.19 0.19 0.14 0.11 0.14 0.11 0.12 0.29 0.51 0.51 0.46 0.60 0.68 0.70 0.90 0.81 0.89
0.00 0.01 0.01 0.01 0.01 0.01 0.01 0.05 0.06 0.05 0.09 0.15 0.16 0.20 0.27 0.21 0.16 0.17 0.17 0.20 0.18 0.15 0.16 0.19 0.23 0.46 0.58 0.23 0.14 0.48 1.01 0.85 0.63 0.58 0.61 0.69 0.91 1.00
0.01 0.02 0.02 0.01 0.01 0.03 0.06 0.10 0.12 0.08 0.08 0.12 0.22 0.23 0.25 0.32 0.22 0.20 0.18 0.27 0.29 0.21 0.15 0.11 0.14 0.47 1.02 0.81 0.67 0.53 0.59 0.94 1.00 0.95 0.86 0.70 0.87 0.77
0.02 0.02 0.01 0.01 0.03 0.06 0.10 0.13 0.15 0.18 0.24 0.28 0.17 0.20 0.21 0.36 0.22 0.14 0.16 0.15 0.22 0.22 0.19 0.11 0.10 0.24 0.48 0.53 0.50 0.28 0.45 0.52 0.72 1.24 1.19 0.89 0.59 0.34
0.02 0.01 0.01 0.02 0.06 0.13 0.16 0.15 0.15 0.09 0.12 0.13 0.15 0.20 0.21 0.30 0.36 0.25 0.18 0.25 0.16 0.18 0.21 0.06 0.02 0.08 0.24 0.54 0.36 0.22 0.20 0.21 0.22 0.20 0.50 1.28 1.54 1.61
0.02 0.02 0.01 0.04 0.10 0.14 0.17 0.15 0.14 0.09 0.12 0.22 0.20 0.21 0.26 0.33 0.22 0.25 0.21 0.21 0.27 0.29 0.17 0.15 0.06 0.07 0.13 0.26 0.31 0.24 0.13 0.11 0.12 0.13 0.32 0.51 0.81 1.10

GFSNE_prec_precacc_093.txt.gz
Total_Precipitation_Accumulation
0.31 0.33 0.37 0.28 0.26 0.27 0.30 0.42 0.63 0.74 0.56 0.46 0.49 0.48 0.47 0.46 0.51 0.53 0.58 0.75 0.83 0.85 0.88 0.96 1.06 1.13 0.91 0.94 0.93 1.03 1.22 0.93 1.16 1.04 0.90 0.86 1.02 1.38
0.23 0.25 0.26 0.23 0.25 0.29 0.31 0.44 0.61 0.78 0.85 0.61 0.55 0.56 0.61 0.66 0.75 0.69 0.68 0.79 0.80 0.83 0.80 0.74 0.72 0.62 0.47 0.48 0.56 0.51 0.42 0.40 0.50 0.78 0.96 1.02 1.14 1.38
0.18 0.20 0.23 0.24 0.28 0.31 0.39 0.48 0.61 0.75 0.90 0.86 0.82 0.80 0.82 0.80 0.74 0.58 0.50 0.41 0.38 0.42 0.40 0.33 0.26 0.24 0.23 0.22 0.23 0.26 0.29 0.34 0.39 0.53 0.79 1.18 1.16 0.96
0.19 0.23 0.24 0.23 0.25 0.29 0.38 0.50 0.67 0.85 1.02 1.09 1.04 0.95 0.80 0.62 0.44 0.27 0.17 0.11 0.07 0.12 0.10 0.08 0.09 0.10 0.08 0.08 0.12 0.14 0.16 0.21 0.30 0.40 0.49 0.58 0.70 0.62
0.14 0.17 0.21 0.24 0.32 0.36 0.39 0.42 0.45 0.44 0.40 0.36 0.27 0.22 0.20 0.18 0.13 0.07 0.04 0.02 0.02 0.05 0.05 0.04 0.04 0.03 0.04 0.05 0.09 0.10 0.13 0.12 0.11 0.12 0.21 0.23 0.27 0.36
0.17 0.23 0.30 0.38 0.43 0.43 0.41 0.36 0.29 0.21 0.16 0.15 0.21 0.20 0.17 0.09 0.05 0.02 0.02 0.01 0.01 0.00 0.02 0.01 0.02 0.04 0.05 0.05 0.03 0.02 0.01 0.02 0.03 0.07 0.11 0.16 0.17 0.16
0.48 0.48 0.46 0.44 0.39 0.31 0.24 0.18 0.15 0.15 0.26 0.39 0.32 0.25 0.12 0.04 0.01 0.01 0.02 0.02 0.02 0.01 0.01 0.02 0.03 0.02 0.00 0.00 0.00 0.01 0.02 0.07 0.11 0.14 0.17 0.18 0.20 0.23
0.35 0.31 0.30 0.33 0.25 0.21 0.16 0.12 0.12 0.25 0.34 0.42 0.34 0.14 0.02 0.00 0.01 0.05 0.16 0.14 0.10 0.00 0.03 0.02 0.00 0.00 0.00 0.00 0.02 0.03 0.04 0.05 0.06 0.10 0.14 0.16 0.17 0.20
0.33 0.29 0.22 0.14 0.09 0.06 0.04 0.07 0.19 0.25 0.24 0.14 0.04 0.01 0.02 0.05 0.23 0.24 0.14 0.16 0.10 0.01 0.05 0.07 0.01 0.01 0.01 0.01 0.01 0.01 0.03 0.04 0.07 0.10 0.13 0.15 0.15 0.15
0.24 0.12 0.05 0.02 0.01 0.03 0.08 0.21 0.15 0.09 0.01 0.00 0.01 0.03 0.08 0.09 0.10 0.23 0.22 0.13 0.05 0.01 0.03 0.14 0.02 0.01 0.00 0.00 0.01 0.01 0.03 0.12 0.18 0.19 0.21 0.21 0.18 0.17
0.03 0.01 0.02 0.02 0.02 0.10 0.16 0.22 0.07 0.00 0.00 0.01 0.07 0.05 0.02 0.01 0.01 0.13 0.20 0.20 0.13 0.01 0.01 0.09 0.04 0.02 0.01 0.00 0.00 0.04 0.06 0.07 0.05 0.06 0.07 0.09 0.11 0.13
0.00 0.00 0.01 0.02 0.05 0.21 0.15 0.04 0.01 0.01 0.07 0.06 0.01 0.00 0.00 0.00 0.01 0.04 0.19 0.56 0.28 0.22 0.01 0.29 0.16 0.12 0.39 0.03 0.01 0.02 0.01 0.01 0.05 0.05 0.05 0.07 0.09 0.12
0.01 0.01 0.00 0.05 0.16 0.13 0.04 0.00 0.02 0.04 0.03 0.00 0.00 0.00 0.00 0.01 0.01 0.01 0.07 0.48 0.77 0.49 0.02 0.61 0.72 0.13 0.38 0.14 0.01 0.01 0.01 0.08 0.17 0.16 0.18 0.23 0.25 0.30
0.02 0.01 0.04 0.14 0.08 0.01 0.00 0.02 0.03 0.02 0.00 0.00 0.01 0.01 0.02 0.02 0.01 0.01 0.02 0.06 0.21 0.51 0.18 0.37 1.14 0.39 0.65 0.37 0.05 0.01 0.01 0.13 0.38 0.50 0.51 0.52 0.53 0.47
0.03 0.07 0.10 0.02 0.00 0.00 0.00 0.01 0.01 0.00 0.01 0.05 0.05 0.03 0.03 0.03 0.03 0.03 0.02 0.01 0.03 0.04 0.09 0.18 0.56 0.46 0.63 0.56 0.27 0.06 0.17 0.17 0.44 0.69 0.52 0.44 0.48 0.53
0.05 0.11 0.02 0.00 0.00 0.00 0.00 0.00 0.00 0.00 0.04 0.09 0.09 0.04 0.02 0.03 0.05 0.07 0.16 0.07 0.18 0.05 0.05 0.09 0.21 0.44 0.55 0.23 0.38 0.30 0.20 0.45 0.39 0.46 0.56 0.47 0.47 0.60
0.05 0.00 0.00 0.00 0.00 0.00 0.00 0.00 0.00 0.00 0.04 0.06 0.11 0.11 0.06 0.05 0.05 0.05 0.19 0.27 0.35 0.19 0.11 0.06 0.06 0.09 0.19 0.29 0.45 0.22 0.25 0.31 0.51 0.70 0.69 0.61 0.62 0.92
0.00 0.00 0.00 0.00 0.00 0.00 0.01 0.01 0.01 0.02 0.06 0.11 0.10 0.12 0.18 0.16 0.17 0.11 0.18 0.30 0.32 0.19 0.19 0.14 0.11 0.14 0.11 0.12 0.29 0.51 0.51 0.46 0.60 0.68 0.70 0.90 0.81 0.89
0.00 0.02 0.02 0.01 0.01 0.01 0.01 0.05 0.06 0.05 0.09 0.15 0.16 0.20 0.27 0.21 0.16 0.17 0.17 0.20 0.18 0.15 0.16 0.19 0.23 0.46 0.58 0.23 0.14 0.48 1.01 0.85 0.63 0.58 0.61 0.69 0.91 1.00
0.01 0.02 0.02 0.01 0.01 0.03 0.06 0.10 0.12 0.08 0.08 0.12 0.22 0.23 0.25 0.32 0.22 0.20 0.18 0.27 0.29 0.21 0.15 0.11 0.14 0.47 1.02 0.81 0.67 0.53 0.59 0.94 1.00 0.95 0.86 0.70 0.87 0.77
0.02 0.02 0.01 0.01 0.03 0.06 0.10 0.13 0.15 0.18 0.24 0.28 0.17 0.20 0.21 0.36 0.22 0.14 0.16 0.15 0.22 0.22 0.19 0.11 0.10 0.24 0.48 0.53 0.50 0.28 0.45 0.52 0.72 1.24 1.19 0.89 0.59 0.34
0.02 0.01 0.01 0.02 0.06 0.13 0.16 0.15 0.15 0.09 0.12 0.13 0.15 0.20 0.21 0.30 0.36 0.25 0.18 0.25 0.16 0.18 0.21 0.06 0.02 0.08 0.24 0.54 0.36 0.22 0.20 0.21 0.22 0.20 0.50 1.28 1.54 1.61
0.02 0.03 0.01 0.04 0.10 0.15 0.17 0.15 0.14 0.09 0.12 0.22 0.20 0.21 0.26 0.33 0.22 0.25 0.21 0.21 0.27 0.29 0.17 0.15 0.06 0.07 0.13 0.26 0.31 0.24 0.13 0.11 0.12 0.13 0.32 0.51 0.81 1.10

GFSNE_prec_precacc_096.txt.gz
Total_Precipitation_Accumulation
0.31 0.33 0.37 0.28 0.26 0.27 0.30 0.42 0.63 0.74 0.56 0.46 0.49 0.48 0.47 0.46 0.51 0.53 0.58 0.76 0.84 0.85 0.88 0.96 1.06 1.13 0.91 0.94 0.93 1.03 1.23 0.93 1.16 1.05 0.91 0.86 1.02 1.38
0.23 0.25 0.26 0.23 0.25 0.29 0.31 0.44 0.61 0.78 0.85 0.61 0.55 0.56 0.61 0.66 0.75 0.69 0.68 0.79 0.80 0.83 0.80 0.74 0.72 0.62 0.47 0.48 0.56 0.52 0.43 0.40 0.51 0.79 0.97 1.02 1.14 1.38
0.18 0.20 0.23 0.24 0.28 0.31 0.39 0.48 0.61 0.76 0.91 0.87 0.82 0.80 0.82 0.80 0.74 0.58 0.50 0.41 0.38 0.43 0.40 0.33 0.26 0.24 0.23 0.22 0.23 0.26 0.29 0.35 0.39 0.53 0.79 1.18 1.16 0.97
0.19 0.23 0.24 0.23 0.25 0.29 0.38 0.50 0.67 0.85 1.02 1.09 1.04 0.95 0.80 0.62 0.44 0.27 0.17 0.11 0.07 0.12 0.10 0.08 0.09 0.10 0.08 0.08 0.12 0.14 0.16 0.21 0.30 0.43 0.50 0.59 0.71 0.63
0.14 0.17 0.21 0.24 0.32 0.36 0.39 0.42 0.45 0.44 0.40 0.36 0.27 0.22 0.20 0.18 0.13 0.07 0.04 0.02 0.02 0.05 0.05 0.04 0.04 0.03 0.04 0.05 0.09 0.10 0.13 0.12 0.11 0.14 0.24 0.25 0.28 0.42
0.17 0.23 0.30 0.38 0.43 0.43 0.41 0.36 0.29 0.21 0.16 0.15 0.21 0.21 0.17 0.09 0.05 0.02 0.02 0.01 0.01 0.00 0.02 0.01 0.02 0.04 0.05 0.05 0.03 0.02 0.01 0.02 0.03 0.07 0.16 0.20 0.20 0.20
0.48 0.48 0.46 0.44 0.39 0.31 0.24 0.18 0.15 0.15 0.26 0.39 0.32 0.25 0.13 0.04 0.01 0.01 0.02 0.02 0.02 0.01 0.01 0.02 0.03 0.02 0.00 0.00 0.00 0.01 0.02 0.07 0.11 0.14 0.17 0.20 0.23 0.27
0.35 0.31 0.30 0.33 0.25 0.21 0.16 0.12 0.12 0.25 0.34 0.42 0.35 0.14 0.02 0.00 0.01 0.05 0.16 0.14 0.11 0.00 0.03 0.02 0.00 0.00 0.00 0.00 0.02 0.03 0.04 0.05 0.06 0.10 0.14 0.16 0.17 0.21
0.33 0.29 0.22 0.14 0.09 0.06 0.04 0.07 0.19 0.25 0.24 0.14 0.04 0.01 0.02 0.05 0.23 0.24 0.14 0.16 0.11 0.01 0.05 0.07 0.01 0.01 0.01 0.01 0.01 0.01 0.03 0.04 0.07 0.10 0.13 0.15 0.15 0.15
0.24 0.12 0.05 0.02 0.01 0.03 0.08 0.21 0.15 0.09 0.01 0.00 0.01 0.03 0.08 0.09 0.10 0.23 0.22 0.13 0.05 0.01 0.03 0.14 0.02 0.01 0.00 0.00 0.01 0.01 0.03 0.12 0.18 0.19 0.21 0.21 0.18 0.17
0.03 0.01 0.02 0.02 0.02 0.10 0.16 0.22 0.07 0.00 0.00 0.01 0.07 0.05 0.02 0.01 0.01 0.13 0.20 0.20 0.13 0.01 0.01 0.09 0.04 0.02 0.01 0.00 0.00 0.04 0.06 0.07 0.05 0.06 0.07 0.09 0.11 0.13
0.00 0.00 0.01 0.02 0.05 0.21 0.15 0.04 0.01 0.01 0.07 0.06 0.01 0.00 0.00 0.00 0.01 0.04 0.19 0.56 0.28 0.22 0.01 0.29 0.16 0.12 0.39 0.03 0.01 0.02 0.01 0.01 0.05 0.05 0.05 0.07 0.09 0.12
0.01 0.01 0.00 0.05 0.16 0.13 0.04 0.00 0.02 0.04 0.03 0.00 0.00 0.00 0.00 0.01 0.01 0.01 0.07 0.48 0.77 0.49 0.02 0.61 0.72 0.13 0.38 0.14 0.01 0.01 0.01 0.08 0.17 0.16 0.18 0.23 0.25 0.30
0.02 0.01 0.04 0.14 0.08 0.01 0.00 0.02 0.03 0.02 0.00 0.00 0.01 0.01 0.02 0.02 0.01 0.01 0.02 0.06 0.21 0.51 0.18 0.37 1.14 0.39 0.65 0.37 0.05 0.01 0.01 0.13 0.38 0.50 0.51 0.52 0.53 0.47
0.03 0.07 0.10 0.02 0.00 0.00 0.00 0.01 0.01 0.00 0.01 0.05 0.05 0.03 0.03 0.03 0.03 0.03 0.02 0.01 0.03 0.04 0.09 0.18 0.56 0.46 0.63 0.56 0.27 0.06 0.17 0.17 0.44 0.69 0.52 0.44 0.48 0.53
0.05 0.11 0.02 0.00 0.00 0.00 0.00 0.00 0.00 0.00 0.04 0.09 0.09 0.04 0.02 0.03 0.05 0.07 0.16 0.07 0.18 0.05 0.05 0.09 0.21 0.44 0.55 0.23 0.38 0.30 0.20 0.45 0.39 0.46 0.56 0.47 0.47 0.60
0.05 0.00 0.00 0.00 0.00 0.00 0.00 0.00 0.00 0.00 0.04 0.06 0.11 0.11 0.06 0.05 0.05 0.05 0.19 0.27 0.35 0.19 0.11 0.06 0.06 0.09 0.19 0.29 0.45 0.22 0.25 0.31 0.51 0.70 0.69 0.61 0.62 0.92
0.00 0.00 0.00 0.00 0.00 0.00 0.01 0.01 0.01 0.02 0.06 0.11 0.10 0.12 0.18 0.16 0.17 0.11 0.18 0.30 0.32 0.19 0.19 0.14 0.11 0.14 0.11 0.12 0.29 0.51 0.51 0.46 0.60 0.68 0.70 0.90 0.81 0.89
0.00 0.02 0.02 0.01 0.01 0.01 0.02 0.05 0.06 0.05 0.09 0.15 0.16 0.20 0.27 0.21 0.16 0.17 0.17 0.20 0.18 0.15 0.16 0.19 0.23 0.46 0.58 0.23 0.14 0.48 1.01 0.85 0.63 0.58 0.61 0.69 0.91 1.00
0.01 0.02 0.02 0.01 0.01 0.03 0.06 0.10 0.12 0.08 0.08 0.12 0.22 0.23 0.25 0.32 0.22 0.20 0.18 0.27 0.29 0.21 0.15 0.11 0.14 0.47 1.02 0.81 0.67 0.53 0.59 0.94 1.00 0.95 0.86 0.70 0.87 0.77
0.02 0.02 0.01 0.01 0.03 0.06 0.10 0.13 0.15 0.18 0.24 0.28 0.17 0.20 0.21 0.36 0.22 0.14 0.16 0.15 0.22 0.22 0.19 0.11 0.10 0.24 0.48 0.53 0.50 0.28 0.45 0.52 0.72 1.24 1.19 0.89 0.59 0.34
0.02 0.01 0.01 0.02 0.06 0.13 0.16 0.15 0.15 0.09 0.12 0.13 0.15 0.20 0.21 0.30 0.36 0.25 0.18 0.25 0.16 0.18 0.21 0.06 0.02 0.08 0.24 0.54 0.36 0.22 0.20 0.21 0.22 0.20 0.50 1.28 1.54 1.61
0.03 0.03 0.02 0.04 0.11 0.16 0.17 0.15 0.14 0.09 0.12 0.22 0.20 0.21 0.26 0.33 0.22 0.25 0.21 0.21 0.27 0.29 0.17 0.15 0.06 0.07 0.13 0.26 0.31 0.24 0.13 0.11 0.12 0.13 0.32 0.51 0.81 1.10

GFSNE_prec_precacc_099.txt.gz
Total_Precipitation_Accumulation
0.31 0.33 0.37 0.28 0.26 0.27 0.30 0.42 0.63 0.74 0.56 0.46 0.49 0.48 0.47 0.46 0.52 0.53 0.58 0.77 0.84 0.85 0.88 0.96 1.06 1.13 0.91 0.94 0.93 1.03 1.23 0.94 1.17 1.06 0.93 0.88 1.03 1.38
0.23 0.25 0.26 0.23 0.25 0.29 0.31 0.44 0.61 0.78 0.85 0.61 0.55 0.56 0.61 0.66 0.75 0.69 0.68 0.80 0.80 0.83 0.80 0.74 0.72 0.62 0.47 0.48 0.56 0.52 0.43 0.41 0.51 0.80 0.98 1.03 1.14 1.38
0.18 0.20 0.23 0.24 0.28 0.31 0.39 0.48 0.61 0.76 0.92 0.87 0.82 0.80 0.82 0.80 0.74 0.58 0.50 0.41 0.38 0.43 0.40 0.33 0.26 0.24 0.23 0.22 0.23 0.26 0.29 0.35 0.40 0.53 0.80 1.19 1.17 0.97
0.19 0.23 0.24 0.23 0.25 0.29 0.38 0.50 0.67 0.85 1.03 1.09 1.04 0.95 0.80 0.62 0.44 0.27 0.17 0.11 0.07 0.14 0.11 0.08 0.09 0.10 0.08 0.08 0.12 0.14 0.16 0.21 0.30 0.43 0.51 0.60 0.72 0.64
0.14 0.17 0.21 0.24 0.32 0.36 0.39 0.42 0.45 0.44 0.40 0.36 0.28 0.22 0.20 0.18 0.13 0.07 0.04 0.02 0.02 0.05 0.05 0.04 0.04 0.03 0.04 0.05 0.09 0.10 0.13 0.12 0.11 0.15 0.26 0.27 0.29 0.43
0.17 0.23 0.30 0.38 0.43 0.43 0.41 0.36 0.29 0.21 0.16 0.15 0.21 0.21 0.17 0.09 0.05 0.02 0.02 0.01 0.01 0.00 0.02 0.01 0.02 0.04 0.05 0.05 0.03 0.02 0.01 0.02 0.03 0.07 0.18 0.27 0.24 0.24
0.48 0.48 0.46 0.44 0.39 0.31 0.24 0.18 0.15 0.15 0.26 0.39 0.32 0.25 0.13 0.04 0.01 0.01 0.02 0.02 0.02 0.01 0.01 0.02 0.03 0.02 0.00 0.00 0.00 0.01 0.02 0.07 0.11 0.14 0.18 0.24 0.30 0.35
0.35 0.31 0.30 0.33 0.25 0.21 0.16 0.12 0.12 0.25 0.34 0.42 0.35 0.14 0.02 0.00 0.01 0.05 0.16 0.14 0.11 0.00 0.03 0.02 0.00 0.00 0.00 0.00 0.02 0.03 0.04 0.05 0.06 0.10 0.14 0.16 0.18 0.24
0.33 0.29 0.22 0.14 0.09 0.06 0.04 0.07 0.19 0.25 0.24 0.14 0.04 0.01 0.02 0.05 0.23 0.24 0.14 0.16 0.11 0.01 0.05 0.07 0.01 0.01 0.01 0.01 0.01 0.01 0.03 0.04 0.07 0.10 0.13 0.15 0.15 0.15
0.24 0.12 0.05 0.02 0.01 0.03 0.08 0.21 0.15 0.09 0.01 0.00 0.01 0.03 0.08 0.09 0.10 0.23 0.22 0.13 0.05 0.01 0.03 0.14 0.02 0.01 0.00 0.00 0.01 0.01 0.03 0.12 0.18 0.19 0.21 0.21 0.18 0.17
0.03 0.01 0.02 0.02 0.02 0.10 0.16 0.22 0.07 0.00 0.00 0.01 0.07 0.05 0.02 0.01 0.01 0.13 0.20 0.20 0.13 0.01 0.01 0.09 0.04 0.02 0.01 0.00 0.00 0.04 0.06 0.07 0.05 0.06 0.07 0.09 0.11 0.13
0.00 0.00 0.01 0.02 0.05 0.21 0.15 0.04 0.01 0.01 0.07 0.06 0.01 0.00 0.00 0.00 0.01 0.04 0.19 0.56 0.28 0.22 0.01 0.29 0.16 0.12 0.39 0.03 0.01 0.02 0.01 0.01 0.05 0.05 0.05 0.07 0.09 0.12
0.01 0.01 0.00 0.05 0.16 0.13 0.04 0.00 0.02 0.04 0.03 0.00 0.00 0.00 0.00 0.01 0.01 0.01 0.07 0.48 0.77 0.49 0.02 0.61 0.72 0.13 0.38 0.14 0.01 0.01 0.01 0.08 0.17 0.16 0.18 0.23 0.25 0.30
0.02 0.01 0.04 0.14 0.08 0.01 0.00 0.02 0.03 0.02 0.00 0.00 0.01 0.01 0.02 0.02 0.01 0.01 0.02 0.06 0.21 0.51 0.18 0.37 1.14 0.39 0.65 0.37 0.05 0.01 0.01 0.13 0.38 0.50 0.51 0.52 0.53 0.47
0.03 0.07 0.10 0.02 0.00 0.00 0.00 0.01 0.01 0.00 0.01 0.05 0.05 0.03 0.03 0.03 0.03 0.03 0.02 0.01 0.03 0.04 0.09 0.18 0.56 0.46 0.63 0.56 0.27 0.06 0.17 0.17 0.44 0.69 0.52 0.44 0.48 0.53
0.05 0.11 0.02 0.00 0.00 0.00 0.00 0.00 0.00 0.00 0.04 0.09 0.09 0.04 0.02 0.03 0.05 0.07 0.16 0.07 0.18 0.05 0.05 0.09 0.21 0.44 0.55 0.23 0.38 0.30 0.20 0.45 0.39 0.46 0.56 0.47 0.47 0.60
0.05 0.00 0.00 0.00 0.00 0.00 0.00 0.00 0.00 0.00 0.04 0.06 0.11 0.11 0.06 0.05 0.05 0.05 0.19 0.27 0.35 0.19 0.11 0.06 0.06 0.09 0.19 0.29 0.45 0.22 0.25 0.31 0.51 0.70 0.69 0.61 0.62 0.92
0.00 0.00 0.00 0.00 0.00 0.00 0.01 0.01 0.01 0.02 0.06 0.11 0.10 0.12 0.18 0.16 0.17 0.11 0.18 0.30 0.32 0.19 0.19 0.14 0.11 0.14 0.11 0.12 0.29 0.51 0.51 0.46 0.60 0.68 0.70 0.90 0.81 0.89
0.00 0.02 0.02 0.01 0.01 0.01 0.02 0.05 0.06 0.05 0.09 0.15 0.17 0.20 0.27 0.21 0.16 0.17 0.17 0.20 0.18 0.15 0.16 0.19 0.23 0.46 0.58 0.23 0.14 0.48 1.01 0.85 0.63 0.58 0.61 0.69 0.91 1.00
0.01 0.02 0.02 0.01 0.01 0.03 0.06 0.10 0.12 0.08 0.08 0.12 0.22 0.23 0.25 0.32 0.22 0.20 0.18 0.27 0.29 0.21 0.15 0.11 0.14 0.47 1.02 0.81 0.67 0.53 0.59 0.94 1.00 0.95 0.86 0.70 0.87 0.77
0.02 0.02 0.02 0.02 0.04 0.06 0.10 0.13 0.15 0.18 0.24 0.28 0.17 0.20 0.21 0.36 0.22 0.14 0.16 0.15 0.22 0.22 0.19 0.11 0.10 0.24 0.48 0.53 0.50 0.28 0.45 0.52 0.72 1.24 1.19 0.89 0.59 0.34
0.02 0.01 0.01 0.02 0.06 0.13 0.16 0.15 0.15 0.09 0.12 0.13 0.15 0.20 0.21 0.30 0.36 0.25 0.18 0.25 0.16 0.18 0.21 0.06 0.02 0.08 0.24 0.54 0.36 0.22 0.20 0.21 0.22 0.20 0.50 1.28 1.54 1.61
0.03 0.03 0.02 0.04 0.12 0.16 0.18 0.15 0.14 0.09 0.12 0.22 0.20 0.21 0.26 0.33 0.22 0.25 0.21 0.21 0.27 0.29 0.17 0.15 0.06 0.07 0.13 0.26 0.31 0.24 0.13 0.11 0.12 0.13 0.32 0.51 0.81 1.10

GFSNE_prec_precacc_102.txt.gz
Total_Precipitation_Accumulation
0.31 0.33 0.37 0.28 0.26 0.27 0.30 0.42 0.63 0.74 0.56 0.46 0.49 0.48 0.47 0.46 0.52 0.53 0.58 0.77 0.84 0.85 0.88 0.96 1.06 1.13 0.91 0.94 0.93 1.04 1.23 0.94 1.18 1.07 0.94 0.89 1.04 1.39
0.23 0.25 0.26 0.23 0.25 0.29 0.31 0.44 0.61 0.78 0.85 0.61 0.55 0.56 0.61 0.66 0.75 0.69 0.68 0.80 0.80 0.83 0.80 0.74 0.72 0.62 0.47 0.48 0.56 0.52 0.43 0.41 0.52 0.80 0.99 1.04 1.15 1.39
0.18 0.20 0.23 0.24 0.28 0.31 0.39 0.48 0.61 0.76 0.92 0.87 0.82 0.80 0.82 0.80 0.74 0.58 0.50 0.41 0.38 0.43 0.40 0.33 0.26 0.24 0.23 0.22 0.23 0.26 0.29 0.35 0.40 0.54 0.80 1.19 1.18 0.97
0.19 0.23 0.24 0.23 0.25 0.29 0.38 0.50 0.67 0.85 1.03 1.09 1.04 0.95 0.80 0.62 0.44 0.27 0.17 0.11 0.07 0.14 0.11 0.08 0.09 0.10 0.08 0.08 0.12 0.14 0.16 0.21 0.31 0.43 0.51 0.61 0.73 0.65
0.14 0.17 0.21 0.24 0.32 0.36 0.39 0.42 0.45 0.44 0.40 0.36 0.28 0.22 0.20 0.18 0.13 0.07 0.04 0.02 0.02 0.05 0.05 0.04 0.04 0.03 0.04 0.05 0.09 0.10 0.13 0.12 0.11 0.15 0.27 0.29 0.31 0.44
0.17 0.23 0.30 0.38 0.43 0.43 0.41 0.36 0.29 0.21 0.16 0.15 0.21 0.21 0.17 0.09 0.05 0.02 0.02 0.01 0.01 0.00 0.02 0.01 0.02 0.04 0.05 0.05 0.03 0.02 0.01 0.02 0.03 0.07 0.19 0.33 0.28 0.27
0.48 0.48 0.46 0.44 0.39 0.31 0.24 0.18 0.15 0.15 0.26 0.39 0.32 0.25 0.13 0.04 0.01 0.01 0.02 0.02 0.02 0.01 0.01 0.02 0.03 0.02 0.00 0.00 0.00 0.01 0.02 0.07 0.11 0.14 0.18 0.30 0.38 0.40
0.35 0.31 0.30 0.33 0.25 0.21 0.16 0.12 0.12 0.25 0.34 0.42 0.35 0.14 0.02 0.00 0.01 0.05 0.16 0.14 0.11 0.00 0.03 0.02 0.00 0.00 0.00 0.00 0.02 0.03 0.04 0.05 0.06 0.10 0.14 0.17 0.22 0.31
0.33 0.29 0.22 0.14 0.09 0.06 0.04 0.07 0.19 0.25 0.24 0.14 0.04 0.01 0.02 0.05 0.23 0.24 0.14 0.16 0.11 0.01 0.05 0.07 0.01 0.01 0.01 0.01 0.01 0.01 0.03 0.04 0.07 0.10 0.13 0.15 0.15 0.15
0.24 0.12 0.05 0.02 0.01 0.03 0.08 0.21 0.15 0.09 0.01 0.00 0.01 0.03 0.08 0.09 0.10 0.23 0.22 0.13 0.05 0.01 0.03 0.14 0.02 0.01 0.00 0.00 0.01 0.01 0.03 0.12 0.18 0.19 0.21 0.21 0.18 0.17
0.03 0.01 0.02 0.02 0.02 0.10 0.16 0.22 0.07 0.00 0.00 0.01 0.07 0.05 0.02 0.01 0.01 0.13 0.20 0.20 0.13 0.01 0.01 0.09 0.04 0.02 0.01 0.00 0.00 0.04 0.06 0.07 0.05 0.06 0.07 0.09 0.11 0.13
0.00 0.00 0.01 0.02 0.05 0.21 0.15 0.04 0.01 0.01 0.07 0.06 0.01 0.00 0.00 0.00 0.01 0.04 0.19 0.56 0.28 0.22 0.01 0.29 0.16 0.12 0.39 0.03 0.01 0.02 0.01 0.01 0.05 0.05 0.05 0.07 0.09 0.12
0.01 0.01 0.00 0.05 0.16 0.13 0.04 0.00 0.02 0.04 0.03 0.00 0.00 0.00 0.00 0.01 0.01 0.01 0.07 0.48 0.77 0.49 0.02 0.61 0.72 0.13 0.38 0.14 0.01 0.01 0.01 0.08 0.17 0.16 0.18 0.23 0.25 0.30
0.02 0.01 0.04 0.14 0.08 0.01 0.00 0.02 0.03 0.02 0.00 0.00 0.01 0.01 0.02 0.02 0.01 0.01 0.02 0.06 0.21 0.51 0.18 0.37 1.14 0.39 0.65 0.37 0.05 0.01 0.01 0.13 0.38 0.50 0.51 0.52 0.53 0.47
0.04 0.08 0.10 0.02 0.00 0.00 0.00 0.01 0.01 0.00 0.01 0.05 0.05 0.03 0.03 0.03 0.03 0.03 0.02 0.01 0.03 0.04 0.09 0.18 0.56 0.46 0.63 0.56 0.27 0.06 0.17 0.17 0.44 0.69 0.52 0.44 0.48 0.53
0.09 0.12 0.02 0.01 0.00 0.00 0.00 0.00 0.00 0.00 0.04 0.09 0.09 0.04 0.02 0.03 0.05 0.07 0.16 0.07 0.18 0.05 0.05 0.09 0.21 0.44 0.55 0.23 0.38 0.30 0.20 0.45 0.39 0.46 0.56 0.47 0.47 0.60
0.20 0.08 0.02 0.01 0.00 0.00 0.00 0.00 0.00 0.00 0.04 0.06 0.11 0.11 0.06 0.05 0.05 0.05 0.19 0.27 0.35 0.19 0.11 0.06 0.06 0.09 0.19 0.29 0.45 0.22 0.25 0.31 0.51 0.70 0.69 0.61 0.62 0.92
0.26 0.16 0.07 0.03 0.01 0.00 0.01 0.01 0.01 0.02 0.06 0.11 0.10 0.12 0.18 0.16 0.17 0.11 0.18 0.30 0.32 0.19 0.19 0.14 0.11 0.14 0.11 0.12 0.29 0.51 0.51 0.46 0.60 0.68 0.70 0.90 0.81 0.89
0.17 0.10 0.09 0.06 0.03 0.01 0.02 0.05 0.06 0.05 0.09 0.15 0.17 0.20 0.27 0.21 0.16 0.17 0.17 0.20 0.18 0.15 0.16 0.19 0.23 0.46 0.58 0.23 0.14 0.48 1.01 0.85 0.63 0.58 0.61 0.69 0.91 1.00
0.08 0.05 0.07 0.03 0.02 0.03 0.06 0.10 0.12 0.08 0.08 0.12 0.22 0.23 0.25 0.32 0.22 0.20 0.18 0.27 0.29 0.21 0.15 0.11 0.14 0.47 1.02 0.81 0.67 0.53 0.59 0.94 1.00 0.95 0.86 0.70 0.87 0.77
0.09 0.07 0.07 0.05 0.05 0.07 0.10 0.13 0.15 0.18 0.24 0.28 0.17 0.20 0.21 0.36 0.22 0.14 0.16 0.15 0.22 0.22 0.19 0.11 0.10 0.24 0.48 0.53 0.50 0.28 0.45 0.52 0.72 1.24 1.19 0.89 0.59 0.34
0.15 0.13 0.11 0.10 0.11 0.14 0.16 0.15 0.15 0.09 0.12 0.13 0.15 0.20 0.21 0.30 0.36 0.25 0.18 0.25 0.16 0.18 0.21 0.06 0.02 0.08 0.24 0.54 0.36 0.22 0.20 0.21 0.22 0.20 0.50 1.28 1.54 1.61
0.19 0.15 0.10 0.09 0.14 0.17 0.18 0.15 0.14 0.09 0.12 0.22 0.20 0.21 0.26 0.33 0.22 0.25 0.21 0.21 0.27 0.29 0.17 0.15 0.06 0.07 0.13 0.26 0.31 0.24 0.13 0.11 0.12 0.13 0.32 0.51 0.81 1.10

GFSNE_prec_precacc_108.txt.gz
Total_Precipitation_Accumulation
0.33 0.34 0.38 0.28 0.27 0.27 0.30 0.42 0.63 0.74 0.56 0.46 0.49 0.48 0.47 0.46 0.52 0.53 0.58 0.77 0.84 0.85 0.88 0.96 1.06 1.13 0.91 0.94 0.93 1.04 1.24 0.94 1.19 1.09 0.96 0.92 1.07 1.41
0.25 0.26 0.26 0.23 0.25 0.29 0.31 0.44 0.61 0.78 0.85 0.61 0.55 0.56 0.61 0.66 0.75 0.69 0.68 0.80 0.80 0.83 0.80 0.74 0.72 0.62 0.47 0.48 0.56 0.52 0.43 0.41 0.53 0.82 1.01 1.07 1.19 1.41
0.21 0.22 0.23 0.24 0.28 0.31 0.39 0.48 0.61 0.76 0.92 0.87 0.82 0.80 0.82 0.80 0.74 0.58 0.50 0.41 0.38 0.43 0.40 0.33 0.26 0.24 0.23 0.22 0.23 0.26 0.29 0.35 0.40 0.55 0.82 1.21 1.20 0.99
0.26 0.29 0.30 0.30 0.27 0.31 0.40 0.50 0.67 0.85 1.03 1.09 1.04 0.95 0.80 0.62 0.44 0.27 0.17 0.11 0.07 0.14 0.11 0.08 0.09 0.10 0.08 0.08 0.12 0.14 0.16 0.21 0.31 0.44 0.52 0.61 0.74 0.67
0.26 0.29 0.31 0.32 0.34 0.38 0.41 0.42 0.45 0.44 0.40 0.36 0.28 0.22 0.20 0.18 0.13 0.07 0.04 0.02 0.02 0.05 0.05 0.04 0.04 0.03 0.04 0.05 0.09 0.10 0.13 0.12 0.11 0.15 0.27 0.31 0.34 0.47
0.25 0.31 0.37 0.45 0.47 0.47 0.42 0.38 0.30 0.21 0.16 0.15 0.21 0.21 0.17 0.09 0.05 0.02 0.02 0.01 0.01 0.00 0.02 0.01 0.02 0.04 0.05 0.05 0.03 0.02 0.01 0.02 0.04 0.08 0.20 0.36 0.34 0.33
0.51 0.52 0.50 0.49 0.45 0.37 0.27 0.21 0.18 0.15 0.26 0.39 0.32 0.25 0.13 0.04 0.01 0.01 0.02 0.02 0.02 0.01 0.01 0.02 0.03 0.02 0.00 0.00 0.00 0.01 0.02 0.07 0.11 0.14 0.19 0.32 0.47 0.50
0.36 0.31 0.31 0.34 0.26 0.22 0.17 0.14 0.15 0.27 0.35 0.42 0.35 0.14 0.02 0.00 0.01 0.05 0.16 0.14 0.11 0.00 0.03 0.02 0.00 0.00 0.00 0.00 0.02 0.03 0.04 0.05 0.06 0.10 0.14 0.19 0.31 0.37
0.33 0.29 0.22 0.14 0.10 0.07 0.04 0.08 0.20 0.27 0.26 0.14 0.04 0.01 0.02 0.05 0.23 0.24 0.14 0.16 0.11 0.01 0.05 0.07 0.01 0.01 0.01 0.01 0.01 0.01 0.03 0.04 0.07 0.10 0.13 0.15 0.18 0.16
0.24 0.12 0.05 0.02 0.01 0.03 0.08 0.21 0.15 0.09 0.01 0.00 0.01 0.03 0.08 0.09 0.10 0.23 0.22 0.13 0.05 0.01 0.03 0.14 0.02 0.01 0.00 0.00 0.01 0.01 0.03 0.12 0.18 0.19 0.21 0.21 0.18 0.17
0.03 0.01 0.02 0.02 0.02 0.10 0.16 0.22 0.07 0.00 0.00 0.01 0.07 0.05 0.02 0.01 0.01 0.13 0.20 0.20 0.13 0.01 0.01 0.09 0.04 0.02 0.01 0.00 0.00 0.04 0.06 0.07 0.05 0.06 0.07 0.09 0.11 0.13
0.00 0.00 0.01 0.02 0.06 0.21 0.15 0.04 0.01 0.01 0.07 0.06 0.01 0.00 0.00 0.00 0.01 0.04 0.19 0.56 0.28 0.22 0.01 0.29 0.16 0.12 0.39 0.03 0.01 0.02 0.01 0.01 0.05 0.05 0.05 0.07 0.09 0.12
0.01 0.01 0.00 0.05 0.17 0.13 0.04 0.00 0.02 0.04 0.03 0.00 0.00 0.00 0.00 0.01 0.01 0.01 0.07 0.48 0.77 0.49 0.02 0.61 0.72 0.13 0.38 0.14 0.01 0.01 0.01 0.08 0.17 0.16 0.18 0.23 0.25 0.30
0.04 0.02 0.07 0.21 0.12 0.03 0.02 0.02 0.03 0.02 0.00 0.00 0.01 0.01 0.02 0.02 0.01 0.01 0.02 0.06 0.21 0.51 0.18 0.37 1.14 0.39 0.65 0.37 0.05 0.01 0.01 0.13 0.38 0.50 0.51 0.52 0.53 0.47
0.10 0.17 0.26 0.27 0.21 0.16 0.12 0.08 0.06 0.03 0.02 0.05 0.05 0.03 0.03 0.03 0.03 0.03 0.02 0.01 0.03 0.04 0.09 0.18 0.56 0.46 0.63 0.56 0.27 0.06 0.17 0.17 0.44 0.69 0.52 0.44 0.48 0.53
0.18 0.23 0.18 0.21 0.25 0.20 0.20 0.25 0.21 0.13 0.12 0.15 0.11 0.05 0.02 0.03 0.05 0.07 0.16 0.07 0.18 0.05 0.05 0.09 0.21 0.44 0.55 0.23 0.38 0.30 0.20 0.45 0.39 0.46 0.56 0.47 0.47 0.60
0.32 0.22 0.21 0.15 0.15 0.18 0.18 0.18 0.20 0.18 0.25 0.23 0.23 0.15 0.07 0.07 0.06 0.05 0.19 0.27 0.35 0.19 0.11 0.06 0.06 0.09 0.19 0.29 0.45 0.22 0.25 0.31 0.51 0.70 0.69 0.61 0.62 0.92
0.41 0.24 0.15 0.14 0.14 0.15 0.16 0.19 0.21 0.21 0.23 0.28 0.24 0.17 0.21 0.17 0.17 0.11 0.18 0.30 0.32 0.19 0.19 0.14 0.11 0.14 0.11 0.12 0.29 0.51 0.51 0.46 0.60 0.68 0.70 0.90 0.81 0.89
0.35 0.20 0.17 0.16 0.14 0.15 0.18 0.24 0.22 0.19 0.23 0.30 0.28 0.27 0.31 0.22 0.16 0.17 0.17 0.20 0.18 0.15 0.16 0.19 0.23 0.46 0.58 0.23 0.14 0.48 1.01 0.85 0.63 0.58 0.61 0.69 0.91 1.00
0.15 0.14 0.17 0.17 0.20 0.22 0.25 0.28 0.30 0.26 0.25 0.24 0.30 0.28 0.29 0.33 0.22 0.20 0.18 0.27 0.29 0.21 0.15 0.11 0.14 0.47 1.02 0.81 0.67 0.53 0.59 0.94 1.00 0.95 0.86 0.70 0.87 0.77
0.16 0.16 0.18 0.24 0.30 0.33 0.33 0.32 0.31 0.31 0.35 0.37 0.24 0.25 0.23 0.37 0.22 0.14 0.16 0.15 0.22 0.22 0.19 0.11 0.10 0.24 0.48 0.53 0.50 0.28 0.45 0.52 0.72 1.24 1.19 0.89 0.59 0.34
0.26 0.32 0.32 0.37 0.40 0.42 0.41 0.36 0.31 0.21 0.23 0.20 0.19 0.23 0.22 0.30 0.36 0.25 0.18 0.25 0.16 0.18 0.21 0.06 0.02 0.08 0.24 0.54 0.36 0.22 0.20 0.21 0.22 0.20 0.50 1.28 1.54 1.61
0.36 0.39 0.37 0.41 0.45 0.44 0.38 0.30 0.27 0.22 0.24 0.31 0.26 0.23 0.26 0.33 0.22 0.25 0.21 0.21 0.27 0.29 0.17 0.15 0.06 0.07 0.13 0.26 0.31 0.24 0.13 0.11 0.12 0.13 0.32 0.51 0.81 1.10

GFSNE_prec_precacc_111.txt.gz
Total_Precipitation_Accumulation
0.36 0.38 0.42 0.31 0.29 0.30 0.38 0.52 0.74 0.82 0.60 0.47 0.49 0.48 0.47 0.46 0.52 0.53 0.58 0.77 0.84 0.85 0.88 0.96 1.06 1.13 0.91 0.94 0.93 1.04 1.24 0.94 1.19 1.09 0.97 0.93 1.08 1.43
0.27 0.28 0.29 0.25 0.26 0.29 0.31 0.44 0.62 0.79 0.85 0.61 0.55 0.56 0.61 0.66 0.75 0.69 0.68 0.80 0.80 0.83 0.80 0.74 0.72 0.62 0.47 0.48 0.56 0.52 0.43 0.41 0.53 0.82 1.02 1.08 1.20 1.43
0.23 0.24 0.26 0.26 0.29 0.31 0.39 0.49 0.63 0.77 0.92 0.87 0.82 0.80 0.82 0.80 0.74 0.58 0.50 0.41 0.38 0.43 0.40 0.33 0.26 0.24 0.23 0.22 0.23 0.26 0.29 0.35 0.40 0.55 0.82 1.22 1.21 1.01
0.26 0.32 0.34 0.37 0.38 0.41 0.48 0.57 0.72 0.88 1.05 1.09 1.04 0.95 0.80 0.62 0.44 0.27 0.17 0.11 0.07 0.14 0.11 0.08 0.09 0.10 0.08 0.08 0.12 0.14 0.16 0.21 0.31 0.44 0.52 0.62 0.75 0.68
0.27 0.31 0.35 0.44 0.58 0.70 0.76 0.70 0.62 0.51 0.44 0.38 0.28 0.22 0.20 0.18 0.13 0.07 0.04 0.02 0.02 0.05 0.05 0.04 0.04 0.03 0.04 0.05 0.09 0.10 0.13 0.12 0.11 0.15 0.28 0.31 0.35 0.49
0.25 0.31 0.39 0.47 0.52 0.56 0.56 0.55 0.49 0.33 0.21 0.17 0.22 0.21 0.17 0.09 0.05 0.02 0.02 0.01 0.01 0.00 0.02 0.01 0.02 0.04 0.05 0.05 0.03 0.02 0.01 0.02 0.04 0.08 0.20 0.37 0.35 0.35
0.51 0.52 0.50 0.50 0.47 0.40 0.36 0.34 0.36 0.39 0.47 0.54 0.41 0.30 0.16 0.05 0.01 0.01 0.02 0.02 0.02 0.01 0.01 0.02 0.03 0.02 0.00 0.00 0.00 0.01 0.02 0.07 0.11 0.14 0.19 0.33 0.48 0.52
0.36 0.31 0.31 0.35 0.27 0.23 0.19 0.18 0.21 0.39 0.52 0.60 0.52 0.26 0.10 0.07 0.03 0.05 0.16 0.14 0.11 0.00 0.03 0.02 0.00 0.00 0.00 0.00 0.02 0.03 0.04 0.05 0.06 0.10 0.14 0.20 0.33 0.39
0.33 0.29 0.22 0.14 0.10 0.07 0.06 0.10 0.22 0.29 0.28 0.18 0.11 0.08 0.10 0.12 0.26 0.24 0.14 0.16 0.11 0.01 0.05 0.07 0.01 0.01 0.01 0.01 0.01 0.01 0.03 0.04 0.07 0.10 0.13 0.15 0.18 0.17
0.24 0.12 0.05 0.02 0.01 0.03 0.08 0.22 0.16 0.10 0.03 0.02 0.02 0.04 0.08 0.09 0.10 0.23 0.22 0.13 0.05 0.01 0.03 0.14 0.02 0.01 0.00 0.00 0.01 0.01 0.03 0.12 0.18 0.19 0.21 0.21 0.19 0.18
0.03 0.01 0.02 0.02 0.02 0.11 0.16 0.23 0.08 0.01 0.00 0.01 0.07 0.05 0.02 0.01 0.01 0.13 0.20 0.20 0.13 0.01 0.01 0.09 0.04 0.02 0.01 0.00 0.00 0.04 0.06 0.07 0.05 0.06 0.07 0.09 0.11 0.13
0.00 0.00 0.01 0.03 0.06 0.22 0.15 0.04 0.01 0.01 0.09 0.09 0.03 0.00 0.00 0.00 0.01 0.04 0.19 0.56 0.28 0.22 0.01 0.29 0.16 0.12 0.39 0.03 0.01 0.02 0.01 0.01 0.05 0.05 0.05 0.07 0.09 0.12
0.01 0.01 0.00 0.06 0.18 0.15 0.07 0.02 0.03 0.05 0.05 0.01 0.00 0.00 0.00 0.01 0.01 0.01 0.07 0.48 0.77 0.49 0.02 0.61 0.72 0.13 0.38 0.14 0.01 0.01 0.01 0.08 0.17 0.16 0.18 0.23 0.25 0.30
0.04 0.03 0.07 0.22 0.15 0.07 0.06 0.06 0.06 0.06 0.02 0.01 0.01 0.01 0.02 0.02 0.01 0.01 0.02 0.06 0.21 0.51 0.18 0.37 1.14 0.39 0.65 0.37 0.05 0.01 0.01 0.13 0.38 0.50 0.51 0.52 0.53 0.47
0.10 0.18 0.28 0.29 0.24 0.20 0.18 0.14 0.12 0.09 0.05 0.09 0.06 0.03 0.03 0.03 0.03 0.03 0.02 0.01 0.03 0.04 0.09 0.18 0.56 0.46 0.63 0.56 0.27 0.06 0.17 0.17 0.44 0.69 0.52 0.44 0.48 0.53
0.19 0.25 0.21 0.25 0.29 0.25 0.27 0.33 0.30 0.19 0.18 0.22 0.20 0.17 0.14 0.07 0.05 0.07 0.16 0.07 0.18 0.05 0.05 0.09 0.21 0.44 0.55 0.23 0.38 0.30 0.20 0.45 0.39 0.46 0.56 0.47 0.47 0.60
0.33 0.23 0.22 0.17 0.18 0.22 0.23 0.23 0.29 0.26 0.33 0.35 0.41 0.36 0.23 0.13 0.09 0.08 0.21 0.28 0.35 0.19 0.11 0.06 0.06 0.09 0.19 0.29 0.45 0.22 0.25 0.31 0.51 0.70 0.69 0.61 0.62 0.92
0.42 0.25 0.16 0.14 0.15 0.16 0.19 0.23 0.30 0.32 0.35 0.41 0.41 0.40 0.38 0.28 0.27 0.18 0.21 0.31 0.33 0.19 0.19 0.14 0.11 0.14 0.11 0.12 0.29 0.51 0.51 0.46 0.60 0.68 0.70 0.90 0.81 0.89
0.36 0.21 0.19 0.16 0.14 0.16 0.20 0.27 0.27 0.25 0.32 0.44 0.46 0.44 0.46 0.38 0.31 0.28 0.24 0.23 0.18 0.15 0.16 0.19 0.23 0.46 0.58 0.23 0.14 0.48 1.01 0.85 0.63 0.58 0.61 0.69 0.91 1.00
0.16 0.16 0.21 0.20 0.22 0.23 0.28 0.32 0.34 0.31 0.31 0.30 0.37 0.36 0.37 0.44 0.32 0.28 0.24 0.30 0.29 0.21 0.15 0.11 0.14 0.47 1.02 0.81 0.67 0.53 0.59 0.94 1.00 0.95 0.86 0.70 0.87 0.77
0.16 0.17 0.20 0.27 0.31 0.34 0.35 0.35 0.34 0.34 0.37 0.40 0.28 0.30 0.29 0.42 0.27 0.18 0.21 0.18 0.22 0.22 0.19 0.11 0.10 0.24 0.48 0.53 0.50 0.28 0.45 0.52 0.72 1.24 1.19 0.89 0.59 0.34
0.27 0.33 0.33 0.39 0.42 0.44 0.43 0.39 0.35 0.24 0.25 0.23 0.23 0.27 0.28 0.36 0.39 0.28 0.21 0.25 0.16 0.18 0.21 0.06 0.02 0.08 0.24 0.54 0.36 0.22 0.20 0.21 0.22 0.20 0.50 1.28 1.54 1.61
0.37 0.40 0.38 0.42 0.47 0.46 0.41 0.34 0.31 0.25 0.27 0.35 0.31 0.30 0.33 0.39 0.26 0.27 0.22 0.21 0.27 0.29 0.17 0.15 0.06 0.07 0.13 0.26 0.31 0.24 0.13 0.11 0.12 0.13 0.32 0.51 0.81 1.10

GFSNE_prec_precacc_114.txt.gz
Total_Precipitation_Accumulation
0.38 0.39 0.43 0.33 0.31 0.33 0.42 0.59 0.89 1.02 0.71 0.54 0.57 0.55 0.54 0.53 0.56 0.54 0.58 0.77 0.84 0.85 0.88 0.96 1.06 1.13 0.91 0.94 0.93 1.04 1.24 0.94 1.19 1.09 0.97 0.93 1.08 1.44
0.28 0.29 0.31 0.29 0.32 0.37 0.41 0.55 0.71 0.85 0.88 0.62 0.57 0.61 0.67 0.72 0.77 0.69 0.68 0.80 0.80 0.83 0.80 0.74 0.72 0.62 0.47 0.48 0.56 0.52 0.43 0.41 0.53 0.82 1.02 1.08 1.21 1.44
0.24 0.25 0.26 0.28 0.33 0.37 0.44 0.53 0.65 0.79 0.96 0.91 0.86 0.86 0.86 0.83 0.74 0.58 0.50 0.41 0.38 0.43 0.40 0.33 0.26 0.24 0.23 0.22 0.23 0.26 0.29 0.35 0.40 0.55 0.82 1.22 1.22 1.03
0.29 0.34 0.36 0.38 0.40 0.45 0.56 0.68 0.88 1.09 1.27 1.25 1.17 1.09 0.89 0.64 0.45 0.27 0.17 0.11 0.07 0.14 0.11 0.08 0.09 0.10 0.08 0.08 0.12 0.14 0.16 0.21 0.31 0.44 0.52 0.62 0.76 0.69
0.27 0.32 0.36 0.44 0.60 0.72 0.80 0.84 0.87 0.84 0.79 0.66 0.48 0.38 0.33 0.30 0.22 0.10 0.04 0.02 0.02 0.05 0.05 0.04 0.04 0.03 0.04 0.05 0.09 0.10 0.13 0.12 0.11 0.15 0.28 0.32 0.35 0.49
0.25 0.31 0.39 0.47 0.52 0.56 0.58 0.57 0.53 0.48 0.44 0.40 0.42 0.37 0.32 0.24 0.21 0.15 0.10 0.04 0.01 0.00 0.02 0.01 0.02 0.04 0.05 0.05 0.03 0.02 0.01 0.02 0.04 0.08 0.20 0.37 0.36 0.36
0.51 0.52 0.50 0.50 0.47 0.40 0.37 0.35 0.39 0.44 0.56 0.68 0.60 0.50 0.34 0.23 0.20 0.18 0.16 0.09 0.04 0.01 0.01 0.02 0.03 0.02 0.00 0.00 0.00 0.01 0.02 0.07 0.11 0.14 0.19 0.33 0.48 0.53
0.36 0.31 0.31 0.35 0.27 0.24 0.21 0.20 0.23 0.40 0.54 0.64 0.57 0.35 0.20 0.19 0.20 0.19 0.27 0.23 0.15 0.01 0.03 0.02 0.00 0.00 0.00 0.00 0.02 0.03 0.04 0.05 0.06 0.10 0.14 0.20 0.33 0.39
0.33 0.29 0.22 0.14 0.10 0.07 0.06 0.11 0.23 0.31 0.30 0.20 0.12 0.11 0.13 0.17 0.36 0.34 0.20 0.20 0.12 0.01 0.05 0.07 0.01 0.01 0.01 0.01 0.01 0.01 0.03 0.04 0.07 0.10 0.13 0.15 0.18 0.17
0.24 0.12 0.05 0.02 0.01 0.03 0.08 0.22 0.16 0.11 0.04 0.05 0.05 0.08 0.13 0.15 0.15 0.25 0.23 0.13 0.05 0.01 0.03 0.14 0.02 0.01 0.00 0.00 0.01 0.01 0.03 0.12 0.18 0.19 0.21 0.21 0.19 0.18
0.03 0.01 0.02 0.02 0.02 0.11 0.16 0.23 0.08 0.01 0.01 0.05 0.09 0.08 0.06 0.05 0.05 0.15 0.21 0.20 0.14 0.01 0.01 0.09 0.04 0.02 0.01 0.00 0.00 0.04 0.06 0.07 0.05 0.06 0.07 0.09 0.11 0.13
0.00 0.00 0.02 0.03 0.06 0.22 0.16 0.05 0.03 0.03 0.11 0.15 0.12 0.10 0.05 0.01 0.02 0.04 0.19 0.56 0.28 0.23 0.01 0.29 0.16 0.12 0.39 0.03 0.01 0.02 0.01 0.01 0.05 0.05 0.05 0.07 0.09 0.12
0.02 0.01 0.01 0.07 0.19 0.16 0.09 0.04 0.05 0.07 0.11 0.12 0.10 0.08 0.10 0.12 0.11 0.09 0.11 0.48 0.77 0.49 0.02 0.61 0.72 0.13 0.38 0.14 0.01 0.01 0.01 0.08 0.17 0.16 0.18 0.23 0.25 0.30
0.05 0.03 0.07 0.24 0.16 0.08 0.08 0.10 0.11 0.11 0.06 0.05 0.06 0.07 0.08 0.08 0.05 0.06 0.08 0.09 0.21 0.51 0.18 0.37 1.14 0.39 0.65 0.37 0.05 0.01 0.01 0.13 0.38 0.50 0.51 0.52 0.53 0.47
0.11 0.18 0.29 0.30 0.25 0.21 0.21 0.18 0.18 0.15 0.09 0.13 0.09 0.06 0.06 0.09 0.13 0.12 0.07 0.02 0.03 0.04 0.09 0.18 0.56 0.46 0.63 0.56 0.27 0.06 0.17 0.17 0.44 0.69 0.52 0.44 0.48 0.53
0.19 0.25 0.22 0.25 0.30 0.27 0.31 0.39 0.39 0.26 0.21 0.26 0.24 0.23 0.27 0.21 0.15 0.15 0.22 0.10 0.19 0.05 0.05 0.09 0.21 0.44 0.55 0.23 0.38 0.30 0.20 0.45 0.39 0.46 0.56 0.47 0.47 0.60
0.33 0.23 0.22 0.17 0.18 0.23 0.25 0.28 0.37 0.34 0.40 0.43 0.53 0.47 0.36 0.25 0.20 0.17 0.28 0.32 0.36 0.19 0.12 0.06 0.06 0.09 0.19 0.29 0.45 0.22 0.25 0.31 0.51 0.70 0.69 0.61 0.62 0.92
0.42 0.25 0.17 0.15 0.15 0.17 0.20 0.26 0.34 0.39 0.41 0.48 0.50 0.52 0.54 0.41 0.33 0.24 0.27 0.38 0.38 0.24 0.22 0.15 0.11 0.14 0.11 0.12 0.29 0.51 0.51 0.46 0.60 0.68 0.70 0.90 0.81 0.89
0.36 0.22 0.20 0.17 0.16 0.17 0.23 0.31 0.31 0.29 0.39 0.52 0.54 0.53 0.55 0.45 0.38 0.36 0.30 0.29 0.24 0.19 0.20 0.21 0.24 0.46 0.58 0.23 0.14 0.48 1.01 0.85 0.63 0.58 0.61 0.69 0.91 1.00
0.16 0.16 0.22 0.20 0.23 0.25 0.30 0.35 0.38 0.36 0.37 0.34 0.43 0.42 0.46 0.52 0.40 0.34 0.31 0.37 0.34 0.26 0.18 0.13 0.15 0.48 1.02 0.82 0.67 0.53 0.59 0.94 1.00 0.95 0.86 0.70 0.87 0.77
0.16 0.18 0.21 0.27 0.32 0.35 0.37 0.39 0.40 0.40 0.43 0.46 0.34 0.34 0.32 0.47 0.31 0.23 0.30 0.29 0.31 0.26 0.21 0.12 0.10 0.24 0.48 0.53 0.50 0.28 0.45 0.52 0.72 1.24 1.19 0.89 0.59 0.34
0.27 0.33 0.33 0.39 0.43 0.45 0.45 0.43 0.40 0.31 0.30 0.27 0.28 0.32 0.32 0.39 0.41 0.30 0.25 0.32 0.21 0.20 0.21 0.08 0.02 0.08 0.24 0.54 0.36 0.22 0.20 0.21 0.22 0.20 0.50 1.28 1.54 1.61
0.37 0.40 0.39 0.43 0.48 0.47 0.44 0.38 0.34 0.28 0.31 0.38 0.35 0.34 0.37 0.43 0.29 0.31 0.26 0.24 0.29 0.31 0.18 0.15 0.06 0.07 0.13 0.26 0.31 0.24 0.13 0.11 0.12 0.13 0.32 0.51 0.81 1.10

GFSNE_prec_precacc_117.txt.gz
Total_Precipitation_Accumulation
0.41 0.42 0.46 0.36 0.35 0.39 0.48 0.63 0.94 1.09 0.76 0.56 0.58 0.57 0.57 0.58 0.64 0.64 0.63 0.81 0.85 0.85 0.88 0.96 1.06 1.13 0.91 0.94 0.93 1.04 1.24 0.94 1.19 1.09 0.97 0.93 1.08 1.44
0.30 0.31 0.33 0.32 0.35 0.41 0.44 0.58 0.78 0.99 1.01 0.64 0.59 0.63 0.69 0.77 0.86 0.78 0.74 0.85 0.81 0.83 0.80 0.74 0.72 0.62 0.47 0.48 0.56 0.52 0.43 0.41 0.53 0.82 1.02 1.08 1.21 1.45
0.29 0.27 0.28 0.33 0.40 0.43 0.49 0.59 0.72 0.87 1.05 0.96 0.89 0.87 0.89 0.89 0.86 0.71 0.60 0.45 0.40 0.45 0.40 0.33 0.26 0.24 0.23 0.22 0.23 0.26 0.29 0.35 0.40 0.55 0.82 1.22 1.23 1.04
0.30 0.35 0.37 0.39 0.40 0.46 0.57 0.69 0.92 1.17 1.41 1.40 1.25 1.13 0.96 0.75 0.55 0.37 0.24 0.16 0.11 0.16 0.11 0.08 0.09 0.10 0.08 0.08 0.12 0.14 0.16 0.21 0.31 0.44 0.52 0.62 0.77 0.70
0.27 0.32 0.36 0.44 0.60 0.72 0.80 0.85 0.88 0.85 0.81 0.71 0.53 0.44 0.38 0.34 0.30 0.22 0.16 0.12 0.09 0.11 0.08 0.05 0.04 0.03 0.04 0.05 0.09 0.10 0.13 0.12 0.11 0.15 0.28 0.32 0.36 0.50
0.25 0.31 0.39 0.47 0.52 0.56 0.59 0.58 0.53 0.49 0.44 0.41 0.45 0.41 0.37 0.29 0.29 0.26 0.25 0.22 0.17 0.12 0.09 0.05 0.03 0.04 0.05 0.05 0.03 0.02 0.01 0.02 0.04 0.08 0.20 0.37 0.36 0.37
0.51 0.52 0.50 0.50 0.47 0.40 0.37 0.35 0.39 0.44 0.56 0.69 0.61 0.52 0.37 0.27 0.24 0.22 0.21 0.17 0.15 0.10 0.07 0.05 0.03 0.02 0.00 0.00 0.00 0.01 0.02 0.07 0.11 0.14 0.19 0.33 0.49 0.53
0.36 0.31 0.31 0.35 0.27 0.24 0.21 0.20 0.23 0.41 0.54 0.65 0.58 0.37 0.22 0.22 0.24 0.25 0.34 0.27 0.20 0.06 0.10 0.06 0.01 0.00 0.00 0.00 0.02 0.03 0.04 0.05 0.06 0.10 0.14 0.20 0.34 0.40
0.33 0.29 0.22 0.14 0.10 0.07 0.06 0.11 0.23 0.32 0.32 0.22 0.14 0.12 0.15 0.19 0.41 0.40 0.29 0.27 0.14 0.03 0.08 0.08 0.02 0.01 0.01 0.01 0.01 0.01 0.03 0.04 0.07 0.10 0.13 0.15 0.18 0.17
0.24 0.12 0.05 0.02 0.01 0.03 0.08 0.22 0.16 0.11 0.04 0.06 0.06 0.10 0.18 0.22 0.26 0.38 0.33 0.21 0.10 0.03 0.04 0.14 0.02 0.01 0.00 0.00 0.01 0.01 0.03 0.12 0.18 0.19 0.21 0.21 0.19 0.18
0.03 0.01 0.02 0.03 0.02 0.11 0.16 0.23 0.08 0.01 0.02 0.06 0.13 0.13 0.17 0.21 0.24 0.37 0.42 0.35 0.24 0.07 0.05 0.11 0.04 0.02 0.01 0.00 0.00 0.04 0.06 0.07 0.05 0.06 0.07 0.09 0.11 0.13
0.00 0.00 0.02 0.03 0.07 0.23 0.16 0.05 0.03 0.03 0.11 0.16 0.15 0.15 0.15 0.14 0.16 0.14 0.30 0.73 0.42 0.33 0.11 0.37 0.17 0.12 0.39 0.03 0.01 0.02 0.01 0.01 0.05 0.05 0.05 0.07 0.09 0.12
0.02 0.01 0.01 0.07 0.19 0.16 0.10 0.05 0.06 0.09 0.12 0.14 0.13 0.13 0.15 0.19 0.23 0.22 0.26 0.63 0.85 0.52 0.03 0.62 0.72 0.13 0.38 0.14 0.01 0.01 0.01 0.08 0.17 0.16 0.18 0.23 0.25 0.30
0.05 0.03 0.07 0.24 0.16 0.08 0.09 0.10 0.12 0.15 0.11 0.09 0.10 0.11 0.13 0.14 0.16 0.19 0.30 0.40 0.51 0.74 0.30 0.41 1.15 0.39 0.65 0.37 0.05 0.01 0.01 0.13 0.38 0.50 0.51 0.52 0.53 0.47
0.11 0.18 0.29 0.30 0.25 0.22 0.21 0.19 0.19 0.18 0.12 0.16 0.12 0.10 0.12 0.17 0.25 0.30 0.26 0.17 0.20 0.27 0.31 0.33 0.59 0.47 0.63 0.56 0.27 0.06 0.17 0.17 0.44 0.69 0.52 0.44 0.48 0.53
0.19 0.25 0.22 0.25 0.30 0.28 0.31 0.40 0.39 0.29 0.26 0.30 0.29 0.29 0.33 0.33 0.28 0.26 0.34 0.25 0.36 0.21 0.17 0.17 0.24 0.44 0.55 0.23 0.38 0.30 0.20 0.45 0.39 0.46 0.56 0.47 0.47 0.60
0.34 0.23 0.22 0.17 0.18 0.23 0.26 0.29 0.38 0.37 0.46 0.49 0.60 0.55 0.46 0.35 0.28 0.24 0.35 0.41 0.45 0.29 0.26 0.17 0.09 0.09 0.19 0.29 0.45 0.22 0.25 0.31 0.51 0.70 0.69 0.61 0.62 0.92
0.42 0.25 0.17 0.15 0.16 0.17 0.21 0.26 0.35 0.42 0.43 0.51 0.55 0.60 0.63 0.49 0.41 0.30 0.32 0.42 0.43 0.31 0.30 0.24 0.20 0.17 0.11 0.12 0.29 0.51 0.51 0.46 0.60 0.68 0.70 0.90 0.81 0.89
0.36 0.22 0.20 0.18 0.16 0.18 0.24 0.31 0.33 0.30 0.41 0.54 0.58 0.56 0.59 0.51 0.46 0.43 0.37 0.36 0.29 0.25 0.26 0.28 0.30 0.50 0.60 0.24 0.14 0.48 1.01 0.85 0.63 0.58 0.61 0.69 0.91 1.00
0.16 0.16 0.22 0.21 0.23 0.26 0.31 0.36 0.39 0.37 0.38 0.37 0.45 0.44 0.48 0.55 0.44 0.39 0.38 0.44 0.40 0.31 0.23 0.17 0.19 0.50 1.05 0.86 0.69 0.54 0.59 0.94 1.00 0.95 0.86 0.70 0.87 0.77
0.16 0.18 0.21 0.28 0.32 0.36 0.38 0.40 0.41 0.42 0.46 0.48 0.36 0.37 0.35 0.51 0.34 0.26 0.35 0.36 0.38 0.31 0.24 0.14 0.12 0.27 0.50 0.55 0.51 0.29 0.45 0.52 0.72 1.24 1.19 0.89 0.59 0.34
0.27 0.33 0.34 0.40 0.43 0.46 0.46 0.45 0.42 0.33 0.32 0.28 0.29 0.35 0.36 0.44 0.45 0.32 0.30 0.40 0.30 0.29 0.29 0.14 0.06 0.09 0.24 0.54 0.37 0.22 0.20 0.21 0.22 0.20 0.50 1.28 1.54 1.61
0.37 0.40 0.39 0.43 0.48 0.48 0.45 0.39 0.36 0.30 0.32 0.40 0.37 0.37 0.39 0.47 0.32 0.34 0.31 0.29 0.35 0.39 0.25 0.18 0.07 0.07 0.13 0.27 0.31 0.25 0.13 0.11 0.12 0.13 0.32 0.51 0.81 1.10

GFSNE_prec_precacc_120.txt.gz
Total_Precipitation_Accumulation
0.48 0.52 0.54 0.43 0.43 0.46 0.56 0.73 1.06 1.18 0.78 0.57 0.59 0.57 0.57 0.59 0.65 0.64 0.64 0.85 0.91 0.88 0.89 0.96 1.07 1.13 0.91 0.94 0.93 1.04 1.24 0.94 1.19 1.09 0.97 0.93 1.08 1.44
0.42 0.41 0.42 0.40 0.41 0.45 0.49 0.65 0.89 1.12 1.12 0.66 0.60 0.63 0.70 0.77 0.87 0.78 0.75 0.89 0.84 0.85 0.80 0.74 0.72 0.62 0.47 0.48 0.56 0.52 0.43 0.41 0.53 0.82 1.02 1.08 1.21 1.45
0.42 0.39 0.33 0.34 0.42 0.46 0.54 0.65 0.78 0.94 1.12 0.98 0.89 0.88 0.90 0.90 0.88 0.73 0.62 0.48 0.43 0.47 0.41 0.33 0.26 0.24 0.23 0.22 0.23 0.26 0.29 0.35 0.40 0.55 0.82 1.22 1.23 1.04
0.33 0.39 0.39 0.41 0.43 0.48 0.60 0.72 0.93 1.17 1.41 1.41 1.25 1.13 0.96 0.75 0.56 0.38 0.25 0.17 0.12 0.18 0.13 0.09 0.09 0.10 0.08 0.08 0.12 0.14 0.16 0.21 0.31 0.44 0.52 0.62 0.77 0.71
0.28 0.32 0.36 0.45 0.60 0.72 0.80 0.85 0.88 0.86 0.82 0.72 0.54 0.44 0.38 0.34 0.31 0.24 0.18 0.14 0.10 0.14 0.11 0.07 0.05 0.04 0.04 0.05 0.09 0.10 0.13 0.12 0.11 0.15 0.28 0.32 0.36 0.50
0.25 0.31 0.39 0.47 0.52 0.56 0.59 0.58 0.53 0.49 0.44 0.41 0.45 0.41 0.37 0.30 0.31 0.29 0.28 0.25 0.21 0.17 0.13 0.08 0.06 0.06 0.06 0.05 0.03 0.02 0.01 0.02 0.04 0.08 0.20 0.37 0.36 0.37
0.51 0.52 0.50 0.50 0.47 0.40 0.37 0.35 0.39 0.44 0.56 0.69 0.61 0.52 0.37 0.27 0.25 0.24 0.25 0.22 0.22 0.17 0.16 0.12 0.09 0.05 0.02 0.02 0.00 0.01 0.02 0.07 0.11 0.14 0.19 0.33 0.49 0.54
0.36 0.31 0.31 0.35 0.27 0.24 0.21 0.20 0.23 0.41 0.55 0.65 0.58 0.38 0.22 0.22 0.25 0.28 0.39 0.38 0.34 0.16 0.19 0.14 0.09 0.08 0.04 0.02 0.02 0.03 0.04 0.05 0.06 0.10 0.14 0.20 0.34 0.40
0.33 0.29 0.22 0.14 0.10 0.07 0.06 0.11 0.23 0.32 0.32 0.22 0.14 0.13 0.16 0.20 0.44 0.44 0.34 0.35 0.26 0.10 0.16 0.16 0.07 0.05 0.03 0.03 0.03 0.02 0.03 0.04 0.07 0.10 0.13 0.15 0.18 0.17
0.24 0.12 0.05 0.02 0.01 0.03 0.08 0.22 0.16 0.11 0.05 0.06 0.07 0.11 0.19 0.23 0.29 0.44 0.42 0.34 0.25 0.15 0.12 0.21 0.05 0.03 0.02 0.03 0.02 0.01 0.03 0.12 0.18 0.19 0.21 0.21 0.19 0.18
0.03 0.01 0.02 0.03 0.02 0.11 0.17 0.23 0.08 0.01 0.02 0.06 0.13 0.14 0.19 0.26 0.30 0.46 0.54 0.49 0.41 0.20 0.17 0.26 0.13 0.07 0.03 0.03 0.01 0.04 0.06 0.07 0.05 0.06 0.07 0.09 0.11 0.13
0.00 0.00 0.02 0.03 0.07 0.23 0.17 0.05 0.03 0.03 0.12 0.16 0.15 0.15 0.16 0.16 0.23 0.20 0.36 0.83 0.59 0.50 0.29 0.64 0.44 0.35 0.56 0.10 0.04 0.02 0.01 0.01 0.05 0.05 0.05 0.07 0.09 0.12
0.02 0.01 0.01 0.07 0.19 0.16 0.10 0.05 0.07 0.09 0.13 0.15 0.13 0.13 0.16 0.21 0.27 0.29 0.32 0.72 0.97 0.66 0.17 0.87 1.04 0.51 0.74 0.32 0.06 0.01 0.01 0.08 0.17 0.16 0.18 0.23 0.25 0.30
0.05 0.03 0.07 0.25 0.17 0.09 0.09 0.10 0.13 0.16 0.12 0.10 0.11 0.12 0.14 0.17 0.21 0.31 0.41 0.54 0.65 0.90 0.45 0.54 1.25 0.51 0.83 0.51 0.11 0.01 0.01 0.13 0.38 0.50 0.51 0.52 0.53 0.47
0.11 0.18 0.29 0.31 0.26 0.22 0.21 0.19 0.19 0.18 0.12 0.17 0.13 0.10 0.12 0.20 0.33 0.41 0.34 0.26 0.29 0.39 0.47 0.48 0.75 0.58 0.70 0.61 0.30 0.06 0.17 0.17 0.44 0.69 0.52 0.44 0.48 0.53
0.19 0.25 0.22 0.25 0.30 0.28 0.31 0.40 0.39 0.29 0.28 0.32 0.30 0.29 0.35 0.35 0.33 0.35 0.44 0.34 0.45 0.31 0.33 0.38 0.53 0.67 0.68 0.31 0.41 0.30 0.20 0.45 0.39 0.46 0.56 0.47 0.47 0.60
0.34 0.23 0.22 0.17 0.18 0.23 0.26 0.29 0.38 0.37 0.46 0.50 0.61 0.57 0.50 0.40 0.32 0.30 0.42 0.48 0.51 0.34 0.36 0.35 0.30 0.30 0.33 0.37 0.48 0.22 0.25 0.31 0.51 0.70 0.69 0.61 0.62 0.92
0.42 0.25 0.17 0.15 0.16 0.17 0.21 0.26 0.35 0.42 0.44 0.52 0.55 0.61 0.65 0.53 0.45 0.35 0.37 0.49 0.48 0.37 0.37 0.34 0.37 0.35 0.25 0.15 0.30 0.51 0.51 0.46 0.60 0.68 0.70 0.90 0.81 0.89
0.36 0.22 0.20 0.18 0.16 0.18 0.24 0.32 0.33 0.31 0.41 0.55 0.59 0.56 0.59 0.52 0.49 0.46 0.41 0.40 0.34 0.30 0.32 0.33 0.38 0.62 0.74 0.33 0.16 0.48 1.01 0.85 0.63 0.58 0.61 0.69 0.91 1.00
0.16 0.16 0.22 0.21 0.23 0.26 0.31 0.37 0.39 0.38 0.39 0.38 0.46 0.44 0.49 0.57 0.46 0.40 0.40 0.48 0.48 0.37 0.28 0.22 0.24 0.56 1.10 0.92 0.75 0.57 0.60 0.94 1.00 0.96 0.86 0.70 0.87 0.77
0.16 0.18 0.21 0.28 0.33 0.36 0.38 0.41 0.42 0.43 0.46 0.49 0.37 0.37 0.36 0.53 0.36 0.27 0.38 0.41 0.45 0.38 0.30 0.18 0.17 0.33 0.55 0.57 0.53 0.31 0.46 0.55 0.73 1.24 1.19 0.89 0.59 0.34
0.27 0.33 0.34 0.40 0.44 0.46 0.47 0.45 0.42 0.34 0.32 0.29 0.30 0.36 0.37 0.47 0.47 0.33 0.33 0.43 0.33 0.35 0.36 0.20 0.11 0.13 0.29 0.55 0.37 0.23 0.22 0.23 0.22 0.20 0.50 1.28 1.54 1.61
0.37 0.41 0.39 0.43 0.48 0.48 0.45 0.40 0.37 0.30 0.33 0.41 0.39 0.38 0.41 0.49 0.35 0.37 0.34 0.33 0.38 0.46 0.31 0.25 0.11 0.10 0.15 0.29 0.32 0.25 0.16 0.13 0.13 0.13 0.32 0.51 0.81 1.10

GFSNE_prec_precacc_123.txt.gz
Total_Precipitation_Accumulation
0.50 0.53 0.56 0.47 0.48 0.52 0.65 0.83 1.13 1.20 0.79 0.57 0.59 0.57 0.57 0.59 0.65 0.65 0.64 0.85 0.91 0.89 0.90 0.97 1.07 1.13 0.91 0.94 0.93 1.04 1.24 0.94 1.19 1.09 0.97 0.93 1.08 1.44
0.45 0.46 0.48 0.48 0.54 0.56 0.56 0.68 0.90 1.15 1.17 0.67 0.60 0.63 0.70 0.77 0.87 0.78 0.75 0.89 0.84 0.85 0.80 0.74 0.72 0.62 0.47 0.48 0.56 0.52 0.43 0.41 0.53 0.82 1.02 1.08 1.21 1.45
0.49 0.45 0.43 0.45 0.48 0.49 0.55 0.67 0.80 0.96 1.17 1.01 0.90 0.88 0.90 0.90 0.88 0.73 0.62 0.48 0.44 0.48 0.42 0.34 0.27 0.25 0.23 0.22 0.23 0.26 0.29 0.35 0.40 0.55 0.82 1.22 1.23 1.04
0.38 0.43 0.43 0.44 0.45 0.51 0.62 0.74 0.96 1.20 1.44 1.43 1.25 1.13 0.96 0.75 0.56 0.38 0.25 0.17 0.12 0.21 0.18 0.15 0.15 0.13 0.10 0.09 0.12 0.14 0.16 0.21 0.31 0.44 0.52 0.62 0.77 0.71
0.33 0.37 0.40 0.47 0.62 0.73 0.81 0.85 0.88 0.86 0.82 0.72 0.54 0.44 0.38 0.34 0.31 0.24 0.18 0.14 0.11 0.18 0.18 0.16 0.16 0.12 0.10 0.10 0.11 0.11 0.13 0.12 0.11 0.15 0.28 0.32 0.36 0.50
0.25 0.31 0.39 0.47 0.52 0.56 0.59 0.58 0.53 0.49 0.44 0.41 0.45 0.42 0.37 0.30 0.31 0.29 0.28 0.25 0.22 0.19 0.19 0.18 0.20 0.18 0.14 0.12 0.08 0.04 0.02 0.02 0.04 0.08 0.20 0.37 0.36 0.37
0.51 0.52 0.50 0.50 0.47 0.40 0.37 0.35 0.39 0.44 0.57 0.69 0.61 0.52 0.38 0.28 0.26 0.24 0.25 0.22 0.23 0.18 0.17 0.17 0.19 0.18 0.15 0.14 0.10 0.07 0.07 0.08 0.12 0.15 0.19 0.33 0.49 0.54
0.36 0.31 0.31 0.35 0.27 0.24 0.21 0.20 0.23 0.41 0.55 0.65 0.59 0.38 0.23 0.24 0.27 0.29 0.40 0.39 0.34 0.16 0.20 0.16 0.14 0.14 0.10 0.09 0.10 0.10 0.11 0.10 0.09 0.12 0.15 0.20 0.34 0.40
0.33 0.29 0.22 0.14 0.10 0.07 0.06 0.11 0.23 0.32 0.32 0.23 0.14 0.13 0.16 0.21 0.45 0.46 0.35 0.37 0.27 0.12 0.18 0.20 0.14 0.17 0.17 0.19 0.25 0.20 0.17 0.16 0.14 0.13 0.15 0.15 0.18 0.17
0.24 0.12 0.05 0.02 0.01 0.03 0.08 0.22 0.16 0.11 0.05 0.06 0.07 0.11 0.20 0.24 0.30 0.46 0.44 0.36 0.28 0.19 0.18 0.31 0.11 0.11 0.14 0.13 0.21 0.20 0.15 0.19 0.23 0.23 0.23 0.21 0.19 0.18
0.03 0.01 0.02 0.03 0.02 0.11 0.17 0.23 0.08 0.01 0.02 0.06 0.14 0.14 0.19 0.26 0.31 0.47 0.56 0.52 0.45 0.23 0.19 0.31 0.21 0.17 0.15 0.15 0.20 0.29 0.23 0.16 0.10 0.09 0.08 0.09 0.11 0.13
0.00 0.00 0.02 0.03 0.07 0.23 0.17 0.05 0.03 0.03 0.12 0.16 0.15 0.15 0.16 0.17 0.23 0.21 0.38 0.87 0.65 0.56 0.31 0.71 0.54 0.44 0.71 0.27 0.18 0.19 0.20 0.19 0.14 0.08 0.05 0.07 0.09 0.12
0.02 0.01 0.01 0.07 0.19 0.16 0.10 0.05 0.07 0.10 0.14 0.15 0.13 0.13 0.16 0.21 0.27 0.29 0.33 0.76 1.04 0.72 0.22 0.95 1.11 0.62 0.95 0.53 0.30 0.28 0.28 0.24 0.24 0.17 0.18 0.23 0.25 0.30
0.05 0.03 0.07 0.25 0.17 0.09 0.09 0.10 0.13 0.16 0.12 0.10 0.11 0.12 0.15 0.18 0.22 0.31 0.43 0.56 0.69 0.95 0.54 0.64 1.33 0.60 1.00 0.70 0.32 0.25 0.22 0.27 0.50 0.55 0.51 0.52 0.53 0.47
0.11 0.18 0.29 0.31 0.26 0.22 0.21 0.19 0.19 0.18 0.13 0.17 0.13 0.11 0.13 0.20 0.33 0.41 0.35 0.27 0.31 0.45 0.56 0.59 0.87 0.72 0.83 0.70 0.42 0.26 0.35 0.25 0.49 0.70 0.52 0.44 0.48 0.53
0.19 0.25 0.22 0.25 0.30 0.28 0.31 0.40 0.39 0.29 0.28 0.32 0.31 0.30 0.35 0.36 0.33 0.36 0.45 0.34 0.47 0.34 0.39 0.47 0.63 0.78 0.77 0.38 0.48 0.38 0.29 0.50 0.41 0.46 0.56 0.47 0.47 0.60
0.34 0.23 0.22 0.17 0.18 0.23 0.26 0.29 0.38 0.37 0.46 0.50 0.61 0.57 0.50 0.41 0.33 0.32 0.44 0.50 0.53 0.35 0.40 0.43 0.41 0.42 0.43 0.46 0.56 0.30 0.29 0.34 0.51 0.70 0.69 0.61 0.62 0.92
0.42 0.25 0.17 0.15 0.16 0.17 0.21 0.26 0.35 0.42 0.44 0.52 0.56 0.61 0.65 0.53 0.46 0.37 0.39 0.50 0.51 0.39 0.39 0.38 0.43 0.45 0.37 0.28 0.40 0.57 0.53 0.47 0.61 0.68 0.70 0.90 0.81 0.89
0.36 0.22 0.20 0.18 0.16 0.18 0.24 0.32 0.34 0.31 0.42 0.55 0.59 0.57 0.60 0.53 0.51 0.47 0.43 0.42 0.36 0.32 0.34 0.35 0.42 0.69 0.85 0.44 0.26 0.53 1.02 0.86 0.64 0.58 0.61 0.69 0.91 1.00
0.16 0.16 0.22 0.21 0.23 0.26 0.31 0.37 0.40 0.38 0.39 0.38 0.47 0.45 0.50 0.59 0.47 0.41 0.42 0.50 0.49 0.39 0.29 0.24 0.27 0.61 1.18 1.03 0.82 0.61 0.62 0.94 1.00 0.96 0.86 0.70 0.87 0.77
0.16 0.18 0.21 0.28 0.33 0.36 0.38 0.41 0.42 0.43 0.46 0.49 0.38 0.38 0.37 0.55 0.38 0.28 0.39 0.42 0.47 0.40 0.32 0.20 0.19 0.35 0.60 0.63 0.57 0.33 0.47 0.57 0.74 1.24 1.19 0.89 0.59 0.34
0.27 0.33 0.34 0.40 0.44 0.46 0.47 0.45 0.43 0.34 0.32 0.29 0.31 0.37 0.38 0.49 0.49 0.35 0.34 0.44 0.35 0.37 0.40 0.24 0.14 0.16 0.31 0.57 0.38 0.24 0.23 0.27 0.25 0.20 0.50 1.28 1.54 1.61
0.37 0.41 0.39 0.43 0.48 0.48 0.45 0.40 0.37 0.31 0.33 0.42 0.39 0.40 0.43 0.51 0.37 0.38 0.36 0.34 0.39 0.48 0.33 0.28 0.14 0.13 0.17 0.31 0.33 0.25 0.16 0.17 0.14 0.13 0.32 0.51 0.81 1.10

GFSNE_prec_precacc_126.txt.gz
Total_Precipitation_Accumulation
0.57 0.63 0.65 0.50 0.49 0.53 0.66 0.85 1.16 1.22 0.79 0.57 0.59 0.57 0.57 0.59 0.65 0.65 0.64 0.85 0.91 0.89 0.90 0.97 1.07 1.13 0.91 0.94 0.93 1.04 1.24 0.94 1.19 1.09 0.97 0.93 1.08 1.44
0.48 0.50 0.53 0.52 0.56 0.59 0.59 0.71 0.92 1.17 1.19 0.67 0.60 0.64 0.70 0.77 0.87 0.78 0.75 0.89 0.84 0.85 0.80 0.74 0.72 0.62 0.47 0.48 0.56 0.52 0.43 0.41 0.53 0.82 1.02 1.08 1.21 1.45
0.53 0.49 0.48 0.49 0.54 0.55 0.59 0.68 0.81 0.98 1.21 1.03 0.92 0.89 0.91 0.90 0.88 0.73 0.62 0.48 0.44 0.48 0.42 0.35 0.28 0.26 0.24 0.23 0.24 0.27 0.30 0.35 0.40 0.55 0.82 1.22 1.23 1.04
0.46 0.50 0.49 0.49 0.49 0.53 0.63 0.75 0.97 1.22 1.47 1.45 1.26 1.14 0.96 0.75 0.56 0.38 0.25 0.17 0.12 0.21 0.18 0.15 0.16 0.16 0.13 0.14 0.18 0.19 0.21 0.25 0.34 0.46 0.53 0.62 0.77 0.71
0.37 0.40 0.43 0.49 0.64 0.74 0.81 0.85 0.88 0.86 0.82 0.72 0.54 0.44 0.39 0.34 0.31 0.24 0.18 0.14 0.11 0.18 0.18 0.16 0.17 0.14 0.12 0.13 0.16 0.17 0.21 0.18 0.15 0.17 0.29 0.32 0.36 0.50
0.25 0.31 0.39 0.47 0.52 0.56 0.59 0.58 0.53 0.49 0.44 0.41 0.45 0.42 0.37 0.30 0.31 0.30 0.28 0.25 0.22 0.19 0.20 0.18 0.20 0.19 0.17 0.15 0.11 0.08 0.06 0.07 0.08 0.11 0.22 0.38 0.36 0.37
0.51 0.52 0.50 0.50 0.47 0.40 0.37 0.35 0.39 0.44 0.57 0.69 0.61 0.53 0.38 0.28 0.26 0.25 0.26 0.22 0.23 0.19 0.17 0.17 0.19 0.18 0.16 0.18 0.15 0.13 0.12 0.16 0.23 0.25 0.27 0.38 0.51 0.55
0.36 0.31 0.31 0.35 0.27 0.24 0.21 0.20 0.23 0.41 0.55 0.65 0.59 0.39 0.23 0.24 0.27 0.30 0.40 0.39 0.35 0.16 0.20 0.17 0.14 0.14 0.10 0.10 0.15 0.16 0.17 0.19 0.22 0.25 0.24 0.26 0.36 0.41
0.33 0.29 0.22 0.14 0.10 0.07 0.06 0.11 0.23 0.32 0.32 0.23 0.14 0.13 0.16 0.21 0.46 0.47 0.36 0.37 0.28 0.13 0.19 0.21 0.15 0.18 0.17 0.19 0.30 0.30 0.30 0.34 0.40 0.37 0.32 0.27 0.24 0.19
0.24 0.12 0.05 0.02 0.01 0.03 0.08 0.22 0.16 0.11 0.05 0.06 0.07 0.11 0.20 0.24 0.30 0.46 0.45 0.37 0.29 0.19 0.18 0.32 0.12 0.12 0.15 0.14 0.26 0.33 0.35 0.43 0.49 0.47 0.45 0.41 0.32 0.26
0.03 0.01 0.02 0.03 0.02 0.11 0.17 0.23 0.08 0.01 0.02 0.06 0.14 0.14 0.19 0.26 0.31 0.48 0.57 0.53 0.46 0.23 0.19 0.32 0.22 0.19 0.16 0.16 0.25 0.46 0.47 0.39 0.32 0.27 0.21 0.19 0.20 0.19
0.00 0.00 0.02 0.03 0.07 0.23 0.17 0.05 0.03 0.03 0.12 0.16 0.15 0.15 0.16 0.17 0.23 0.22 0.39 0.89 0.68 0.58 0.31 0.73 0.56 0.47 0.72 0.27 0.19 0.21 0.31 0.34 0.33 0.27 0.21 0.15 0.14 0.16
0.02 0.01 0.01 0.07 0.19 0.16 0.10 0.05 0.07 0.10 0.14 0.15 0.13 0.13 0.16 0.21 0.28 0.29 0.34 0.77 1.06 0.74 0.25 1.00 1.14 0.62 0.96 0.54 0.30 0.31 0.37 0.43 0.47 0.40 0.35 0.36 0.31 0.33
0.05 0.03 0.07 0.25 0.17 0.09 0.09 0.10 0.13 0.16 0.12 0.10 0.11 0.12 0.15 0.18 0.22 0.31 0.43 0.56 0.71 0.97 0.55 0.67 1.36 0.63 1.05 0.73 0.33 0.28 0.31 0.39 0.63 0.74 0.71 0.62 0.58 0.50
0.11 0.18 0.29 0.31 0.26 0.22 0.21 0.19 0.19 0.18 0.13 0.17 0.13 0.11 0.13 0.20 0.33 0.41 0.35 0.27 0.31 0.45 0.57 0.60 0.89 0.75 0.87 0.73 0.44 0.29 0.44 0.34 0.62 0.83 0.63 0.49 0.49 0.53
0.19 0.25 0.22 0.25 0.30 0.28 0.31 0.40 0.39 0.30 0.28 0.32 0.31 0.30 0.35 0.36 0.33 0.36 0.46 0.34 0.47 0.34 0.39 0.47 0.64 0.81 0.79 0.41 0.52 0.44 0.35 0.58 0.54 0.58 0.60 0.49 0.47 0.60
0.34 0.23 0.22 0.17 0.18 0.23 0.26 0.29 0.38 0.37 0.46 0.50 0.61 0.57 0.50 0.41 0.33 0.32 0.45 0.51 0.54 0.36 0.40 0.43 0.42 0.43 0.46 0.49 0.59 0.33 0.32 0.39 0.62 0.78 0.70 0.61 0.62 0.92
0.42 0.25 0.17 0.15 0.16 0.17 0.21 0.26 0.35 0.42 0.44 0.52 0.56 0.61 0.66 0.54 0.47 0.37 0.40 0.52 0.52 0.40 0.40 0.38 0.44 0.47 0.39 0.29 0.42 0.58 0.54 0.49 0.65 0.70 0.70 0.90 0.81 0.89
0.36 0.22 0.20 0.18 0.16 0.18 0.24 0.32 0.34 0.31 0.42 0.56 0.60 0.57 0.61 0.54 0.52 0.48 0.44 0.43 0.36 0.32 0.35 0.36 0.43 0.70 0.86 0.46 0.29 0.55 1.03 0.86 0.64 0.58 0.61 0.69 0.91 1.00
0.16 0.16 0.22 0.21 0.23 0.27 0.31 0.37 0.40 0.38 0.39 0.38 0.47 0.45 0.50 0.60 0.48 0.42 0.43 0.51 0.50 0.40 0.30 0.25 0.28 0.63 1.21 1.05 0.87 0.65 0.63 0.95 1.01 0.96 0.87 0.71 0.87 0.77
0.16 0.18 0.21 0.28 0.33 0.36 0.38 0.41 0.42 0.44 0.47 0.50 0.38 0.39 0.37 0.57 0.40 0.30 0.41 0.44 0.48 0.41 0.33 0.21 0.20 0.37 0.63 0.67 0.63 0.38 0.49 0.58 0.74 1.25 1.19 0.89 0.59 0.34
0.27 0.33 0.34 0.40 0.44 0.46 0.47 0.46 0.43 0.34 0.32 0.30 0.31 0.37 0.39 0.50 0.51 0.37 0.36 0.46 0.36 0.38 0.41 0.25 0.16 0.18 0.33 0.60 0.43 0.29 0.24 0.28 0.27 0.20 0.50 1.28 1.54 1.61
0.37 0.41 0.39 0.44 0.48 0.48 0.45 0.40 0.37 0.31 0.33 0.42 0.40 0.40 0.43 0.52 0.38 0.40 0.38 0.36 0.41 0.49 0.34 0.30 0.16 0.16 0.19 0.32 0.35 0.28 0.18 0.18 0.19 0.15 0.33 0.51 0.81 1.10

GFSNE_prec_precacc_129.txt.gz
Total_Precipitation_Accumulation
0.57 0.63 0.68 0.57 0.58 0.63 0.75 0.90 1.18 1.24 0.79 0.57 0.59 0.57 0.57 0.60 0.65 0.65 0.64 0.85 0.91 0.89 0.90 0.97 1.07 1.14 0.91 0.94 0.93 1.04 1.24 0.95 1.19 1.10 0.97 0.93 1.08 1.44
0.49 0.53 0.57 0.62 0.69 0.74 0.73 0.81 0.99 1.24 1.25 0.71 0.62 0.64 0.70 0.77 0.88 0.79 0.75 0.89 0.84 0.85 0.80 0.74 0.72 0.63 0.47 0.48 0.57 0.52 0.44 0.42 0.54 0.83 1.02 1.09 1.21 1.45
0.63 0.64 0.64 0.61 0.60 0.61 0.68 0.80 0.95 1.09 1.28 1.09 0.93 0.89 0.91 0.91 0.88 0.74 0.62 0.48 0.44 0.48 0.42 0.35 0.28 0.26 0.24 0.24 0.25 0.28 0.31 0.37 0.43 0.57 0.83 1.23 1.23 1.04
0.80 0.81 0.63 0.58 0.55 0.58 0.68 0.80 0.99 1.23 1.49 1.46 1.27 1.14 0.97 0.75 0.56 0.38 0.25 0.17 0.12 0.21 0.18 0.15 0.16 0.16 0.14 0.15 0.18 0.20 0.23 0.28 0.37 0.51 0.58 0.66 0.78 0.71
0.64 0.59 0.56 0.57 0.71 0.81 0.87 0.89 0.89 0.86 0.82 0.73 0.54 0.44 0.39 0.34 0.31 0.24 0.18 0.14 0.11 0.18 0.18 0.16 0.17 0.14 0.12 0.13 0.16 0.18 0.22 0.20 0.19 0.22 0.34 0.36 0.39 0.51
0.32 0.34 0.39 0.47 0.52 0.56 0.59 0.58 0.53 0.49 0.44 0.41 0.45 0.42 0.37 0.30 0.31 0.30 0.28 0.25 0.22 0.19 0.20 0.18 0.20 0.19 0.17 0.15 0.12 0.09 0.08 0.09 0.12 0.16 0.28 0.44 0.42 0.40
0.51 0.52 0.50 0.50 0.47 0.40 0.37 0.35 0.39 0.44 0.57 0.69 0.61 0.53 0.38 0.28 0.26 0.25 0.26 0.22 0.23 0.19 0.17 0.17 0.19 0.18 0.16 0.18 0.15 0.14 0.14 0.18 0.25 0.30 0.33 0.46 0.60 0.62
0.36 0.31 0.31 0.35 0.27 0.24 0.21 0.20 0.23 0.41 0.55 0.65 0.59 0.39 0.23 0.24 0.27 0.30 0.40 0.39 0.35 0.16 0.20 0.17 0.14 0.14 0.10 0.10 0.15 0.17 0.18 0.21 0.26 0.31 0.33 0.36 0.47 0.51
0.33 0.29 0.22 0.14 0.10 0.07 0.06 0.11 0.23 0.32 0.32 0.23 0.14 0.13 0.16 0.21 0.46 0.47 0.36 0.37 0.28 0.13 0.20 0.21 0.15 0.18 0.17 0.19 0.30 0.30 0.30 0.36 0.43 0.44 0.42 0.38 0.35 0.28
0.24 0.12 0.05 0.02 0.01 0.03 0.08 0.22 0.16 0.11 0.05 0.06 0.07 0.11 0.20 0.24 0.30 0.46 0.46 0.38 0.30 0.19 0.18 0.32 0.12 0.12 0.15 0.14 0.26 0.33 0.35 0.44 0.52 0.52 0.52 0.49 0.44 0.39
0.03 0.01 0.02 0.03 0.02 0.11 0.17 0.23 0.08 0.01 0.02 0.06 0.14 0.14 0.19 0.27 0.31 0.49 0.57 0.53 0.47 0.23 0.19 0.32 0.22 0.19 0.16 0.16 0.25 0.46 0.47 0.40 0.35 0.33 0.31 0.31 0.35 0.36
0.00 0.00 0.02 0.03 0.07 0.23 0.17 0.05 0.03 0.03 0.12 0.16 0.15 0.15 0.16 0.17 0.24 0.22 0.39 0.90 0.69 0.60 0.31 0.73 0.56 0.47 0.73 0.28 0.19 0.21 0.31 0.35 0.40 0.37 0.34 0.31 0.31 0.30
0.02 0.01 0.01 0.07 0.19 0.16 0.10 0.05 0.07 0.10 0.14 0.15 0.13 0.13 0.16 0.21 0.28 0.30 0.34 0.77 1.07 0.76 0.26 1.05 1.15 0.62 0.97 0.55 0.31 0.31 0.37 0.43 0.50 0.46 0.43 0.45 0.42 0.42
0.05 0.03 0.07 0.25 0.17 0.09 0.09 0.10 0.13 0.16 0.12 0.10 0.11 0.12 0.15 0.18 0.22 0.31 0.43 0.56 0.71 0.99 0.56 0.70 1.39 0.64 1.08 0.75 0.34 0.28 0.31 0.40 0.66 0.79 0.79 0.71 0.65 0.55
0.11 0.18 0.29 0.31 0.26 0.22 0.21 0.19 0.19 0.18 0.13 0.17 0.13 0.11 0.13 0.20 0.33 0.41 0.35 0.27 0.31 0.45 0.57 0.60 0.91 0.77 0.90 0.76 0.45 0.30 0.44 0.36 0.66 0.88 0.70 0.56 0.54 0.56
0.19 0.25 0.22 0.25 0.30 0.28 0.31 0.40 0.39 0.30 0.28 0.32 0.31 0.30 0.35 0.36 0.33 0.36 0.46 0.35 0.47 0.34 0.39 0.47 0.64 0.82 0.81 0.42 0.54 0.44 0.36 0.59 0.57 0.62 0.63 0.50 0.47 0.60
0.34 0.23 0.22 0.17 0.18 0.23 0.26 0.29 0.38 0.37 0.46 0.50 0.61 0.57 0.50 0.41 0.33 0.32 0.45 0.52 0.54 0.36 0.40 0.43 0.43 0.44 0.47 0.51 0.60 0.34 0.34 0.43 0.65 0.83 0.73 0.62 0.62 0.92
0.42 0.25 0.17 0.15 0.16 0.17 0.21 0.26 0.35 0.42 0.44 0.52 0.56 0.62 0.66 0.54 0.47 0.37 0.41 0.53 0.53 0.40 0.40 0.38 0.45 0.47 0.40 0.30 0.43 0.59 0.56 0.52 0.69 0.76 0.72 0.90 0.81 0.89
0.36 0.22 0.20 0.18 0.16 0.18 0.24 0.32 0.34 0.31 0.42 0.56 0.60 0.57 0.61 0.54 0.53 0.49 0.44 0.43 0.37 0.32 0.35 0.37 0.44 0.72 0.88 0.47 0.30 0.56 1.03 0.87 0.65 0.60 0.61 0.69 0.91 1.00
0.16 0.16 0.22 0.21 0.23 0.27 0.31 0.37 0.40 0.38 0.39 0.38 0.47 0.46 0.51 0.61 0.49 0.43 0.44 0.52 0.51 0.41 0.30 0.25 0.29 0.64 1.23 1.07 0.88 0.67 0.63 0.95 1.01 0.96 0.87 0.71 0.88 0.77
0.16 0.18 0.21 0.28 0.33 0.36 0.38 0.41 0.42 0.44 0.47 0.50 0.38 0.39 0.38 0.57 0.40 0.30 0.42 0.45 0.50 0.42 0.34 0.21 0.20 0.38 0.65 0.70 0.65 0.41 0.50 0.58 0.74 1.25 1.19 0.90 0.59 0.35
0.27 0.33 0.34 0.40 0.44 0.46 0.47 0.46 0.43 0.34 0.32 0.30 0.31 0.37 0.39 0.50 0.52 0.37 0.37 0.48 0.37 0.39 0.42 0.25 0.17 0.20 0.36 0.62 0.46 0.34 0.26 0.28 0.27 0.20 0.50 1.28 1.54 1.61
0.37 0.41 0.39 0.44 0.48 0.48 0.45 0.40 0.37 0.31 0.33 0.42 0.40 0.40 0.44 0.52 0.38 0.41 0.39 0.37 0.42 0.50 0.36 0.31 0.18 0.18 0.22 0.34 0.37 0.32 0.21 0.21 0.23 0.18 0.34 0.51 0.81 1.10

GFSNE_prec_precacc_132.txt.gz
Total_Precipitation_Accumulation
0.57 0.64 0.69 0.58 0.59 0.64 0.77 0.97 1.30 1.34 0.85 0.59 0.61 0.59 0.58 0.61 0.69 0.68 0.66 0.88 0.92 0.89 0.90 0.97 1.07 1.14 0.91 0.94 0.94 1.05 1.25 0.95 1.20 1.10 0.98 0.94 1.09 1.45
0.50 0.54 0.58 0.63 0.73 0.79 0.81 0.95 1.20 1.44 1.38 0.78 0.68 0.70 0.76 0.83 0.92 0.80 0.75 0.90 0.84 0.85 0.80 0.74 0.73 0.63 0.47 0.49 0.57 0.52 0.44 0.43 0.55 0.84 1.04 1.11 1.23 1.46
0.64 0.65 0.65 0.64 0.69 0.69 0.75 0.87 1.05 1.23 1.41 1.22 1.09 1.03 1.01 0.96 0.90 0.74 0.62 0.48 0.44 0.48 0.42 0.35 0.28 0.26 0.24 0.24 0.25 0.28 0.31 0.38 0.44 0.58 0.85 1.26 1.27 1.07
0.80 0.86 0.82 0.78 0.76 0.77 0.86 0.95 1.10 1.31 1.55 1.54 1.35 1.20 1.00 0.76 0.56 0.38 0.25 0.17 0.12 0.21 0.18 0.15 0.16 0.16 0.14 0.15 0.19 0.20 0.23 0.28 0.38 0.51 0.60 0.69 0.84 0.80
0.69 0.67 0.72 0.85 1.04 1.12 1.16 1.13 1.06 0.97 0.88 0.76 0.55 0.44 0.39 0.34 0.31 0.24 0.18 0.14 0.11 0.18 0.18 0.16 0.17 0.14 0.12 0.13 0.16 0.18 0.22 0.20 0.19 0.22 0.35 0.39 0.44 0.60
0.49 0.47 0.49 0.54 0.60 0.62 0.64 0.60 0.54 0.49 0.44 0.41 0.45 0.42 0.37 0.30 0.31 0.30 0.28 0.25 0.22 0.19 0.20 0.18 0.20 0.19 0.17 0.15 0.12 0.09 0.08 0.09 0.12 0.17 0.29 0.46 0.45 0.47
0.55 0.53 0.51 0.51 0.47 0.40 0.37 0.35 0.39 0.44 0.57 0.69 0.61 0.53 0.38 0.28 0.26 0.25 0.26 0.22 0.23 0.19 0.17 0.17 0.19 0.18 0.16 0.18 0.15 0.14 0.14 0.18 0.26 0.31 0.35 0.48 0.62 0.67
0.36 0.31 0.31 0.35 0.27 0.24 0.21 0.20 0.23 0.41 0.55 0.65 0.59 0.39 0.23 0.24 0.27 0.30 0.40 0.39 0.35 0.16 0.20 0.17 0.14 0.14 0.10 0.10 0.15 0.17 0.18 0.21 0.26 0.31 0.35 0.40 0.52 0.56
0.33 0.29 0.22 0.14 0.10 0.07 0.06 0.11 0.23 0.32 0.32 0.23 0.14 0.13 0.16 0.21 0.46 0.47 0.36 0.38 0.28 0.13 0.20 0.22 0.15 0.18 0.17 0.19 0.30 0.30 0.30 0.36 0.43 0.44 0.42 0.39 0.38 0.31
0.24 0.12 0.05 0.02 0.01 0.03 0.08 0.22 0.16 0.11 0.05 0.06 0.07 0.11 0.20 0.24 0.31 0.47 0.47 0.38 0.30 0.20 0.18 0.33 0.12 0.12 0.15 0.14 0.26 0.33 0.35 0.44 0.52 0.52 0.52 0.51 0.46 0.43
0.03 0.01 0.02 0.03 0.02 0.11 0.17 0.23 0.08 0.01 0.02 0.06 0.14 0.14 0.19 0.27 0.32 0.49 0.57 0.54 0.47 0.24 0.19 0.32 0.22 0.19 0.16 0.16 0.25 0.46 0.47 0.40 0.35 0.33 0.31 0.34 0.39 0.43
0.00 0.00 0.02 0.03 0.07 0.23 0.17 0.05 0.03 0.03 0.12 0.16 0.15 0.15 0.16 0.17 0.24 0.22 0.40 0.91 0.69 0.61 0.31 0.74 0.57 0.47 0.73 0.28 0.19 0.21 0.31 0.35 0.40 0.39 0.38 0.36 0.37 0.33
0.02 0.01 0.01 0.07 0.19 0.16 0.10 0.05 0.07 0.10 0.14 0.15 0.13 0.13 0.16 0.21 0.28 0.30 0.34 0.77 1.08 0.77 0.26 1.08 1.17 0.63 0.98 0.55 0.31 0.31 0.37 0.43 0.50 0.47 0.47 0.47 0.45 0.45
0.05 0.03 0.07 0.25 0.17 0.09 0.09 0.10 0.13 0.16 0.12 0.10 0.11 0.12 0.15 0.18 0.22 0.31 0.43 0.57 0.71 1.00 0.56 0.72 1.44 0.65 1.11 0.76 0.34 0.28 0.31 0.40 0.66 0.79 0.80 0.75 0.67 0.56
0.11 0.18 0.29 0.31 0.26 0.22 0.21 0.19 0.19 0.18 0.13 0.17 0.13 0.11 0.13 0.20 0.33 0.41 0.35 0.27 0.32 0.45 0.57 0.62 0.95 0.79 0.92 0.78 0.46 0.30 0.44 0.36 0.66 0.89 0.73 0.58 0.55 0.57
0.19 0.25 0.22 0.25 0.30 0.28 0.31 0.40 0.39 0.30 0.28 0.32 0.31 0.30 0.35 0.36 0.33 0.36 0.46 0.35 0.47 0.34 0.39 0.47 0.65 0.83 0.81 0.43 0.54 0.44 0.36 0.60 0.57 0.63 0.64 0.50 0.49 0.61
0.34 0.23 0.22 0.17 0.18 0.23 0.26 0.29 0.38 0.37 0.46 0.50 0.61 0.57 0.50 0.41 0.33 0.32 0.45 0.52 0.55 0.36 0.40 0.43 0.43 0.44 0.47 0.51 0.60 0.34 0.35 0.43 0.66 0.84 0.74 0.62 0.62 0.92
0.42 0.25 0.17 0.15 0.16 0.17 0.21 0.26 0.35 0.42 0.44 0.52 0.56 0.62 0.66 0.55 0.47 0.37 0.41 0.53 0.54 0.41 0.41 0.38 0.46 0.48 0.40 0.30 0.43 0.59 0.57 0.53 0.70 0.80 0.75 0.90 0.81 0.89
0.36 0.22 0.20 0.18 0.16 0.18 0.24 0.32 0.34 0.31 0.42 0.56 0.60 0.58 0.61 0.55 0.53 0.49 0.44 0.44 0.37 0.33 0.36 0.38 0.46 0.73 0.89 0.47 0.30 0.56 1.04 0.88 0.66 0.63 0.63 0.69 0.91 1.00
0.16 0.16 0.22 0.21 0.23 0.27 0.31 0.37 0.40 0.38 0.40 0.38 0.47 0.46 0.51 0.62 0.49 0.43 0.44 0.53 0.52 0.42 0.31 0.26 0.31 0.66 1.24 1.08 0.89 0.67 0.63 0.95 1.01 0.97 0.87 0.71 0.88 0.77
0.16 0.18 0.21 0.28 0.33 0.36 0.38 0.41 0.43 0.44 0.47 0.50 0.38 0.39 0.38 0.58 0.41 0.30 0.42 0.45 0.51 0.44 0.35 0.22 0.21 0.39 0.66 0.70 0.65 0.42 0.50 0.58 0.74 1.25 1.20 0.91 0.61 0.35
0.27 0.33 0.34 0.40 0.44 0.46 0.47 0.46 0.43 0.34 0.32 0.30 0.31 0.38 0.39 0.51 0.53 0.38 0.37 0.48 0.38 0.41 0.44 0.27 0.19 0.21 0.37 0.63 0.47 0.36 0.27 0.29 0.27 0.20 0.51 1.31 1.56 1.62
0.37 0.41 0.39 0.44 0.48 0.48 0.45 0.40 0.37 0.31 0.33 0.42 0.40 0.40 0.44 0.53 0.39 0.41 0.39 0.38 0.44 0.52 0.38 0.32 0.20 0.20 0.23 0.36 0.39 0.36 0.24 0.21 0.24 0.20 0.38 0.52 0.81 1.10

GFSNE_prec_precacc_135.txt.gz
Total_Precipitation_Accumulation
0.58 0.65 0.70 0.59 0.60 0.65 0.79 0.99 1.33 1.36 0.86 0.61 0.65 0.64 0.64 0.66 0.71 0.69 0.67 0.92 0.96 0.93 0.92 0.97 1.07 1.14 0.91 0.94 0.94 1.05 1.25 0.96 1.20 1.10 0.99 0.94 1.10 1.46
0.53 0.55 0.59 0.63 0.73 0.80 0.82 0.96 1.23 1.51 1.44 0.82 0.75 0.78 0.83 0.91 1.06 0.96 0.87 0.99 0.87 0.86 0.80 0.74 0.73 0.63 0.47 0.49 0.57 0.52 0.44 0.43 0.55 0.85 1.05 1.12 1.25 1.48
0.64 0.65 0.66 0.65 0.70 0.70 0.76 0.89 1.07 1.28 1.51 1.30 1.18 1.12 1.12 1.11 1.06 0.88 0.71 0.51 0.45 0.48 0.42 0.35 0.28 0.26 0.24 0.24 0.25 0.28 0.31 0.38 0.44 0.58 0.86 1.27 1.28 1.09
0.80 0.86 0.82 0.78 0.76 0.78 0.87 0.97 1.17 1.42 1.70 1.70 1.54 1.36 1.13 0.84 0.61 0.41 0.26 0.17 0.12 0.21 0.18 0.15 0.16 0.16 0.14 0.15 0.19 0.21 0.23 0.28 0.38 0.51 0.60 0.69 0.84 0.80
0.69 0.67 0.72 0.85 1.04 1.18 1.27 1.30 1.26 1.15 1.04 0.91 0.68 0.55 0.46 0.37 0.31 0.24 0.18 0.14 0.11 0.18 0.18 0.16 0.17 0.14 0.12 0.13 0.16 0.18 0.22 0.20 0.19 0.22 0.35 0.39 0.44 0.60
0.49 0.47 0.50 0.57 0.64 0.67 0.70 0.67 0.59 0.51 0.45 0.42 0.45 0.42 0.37 0.30 0.31 0.30 0.28 0.25 0.22 0.19 0.20 0.18 0.20 0.19 0.17 0.15 0.12 0.09 0.08 0.09 0.12 0.17 0.30 0.47 0.45 0.47
0.55 0.54 0.51 0.51 0.47 0.40 0.37 0.35 0.39 0.44 0.57 0.69 0.61 0.53 0.38 0.28 0.26 0.25 0.26 0.22 0.23 0.19 0.17 0.17 0.19 0.18 0.16 0.18 0.15 0.14 0.14 0.18 0.26 0.31 0.35 0.48 0.63 0.67
0.36 0.31 0.31 0.35 0.27 0.24 0.21 0.20 0.23 0.41 0.55 0.65 0.59 0.39 0.23 0.24 0.27 0.30 0.40 0.39 0.35 0.16 0.20 0.17 0.14 0.14 0.10 0.10 0.15 0.17 0.18 0.22 0.26 0.32 0.35 0.40 0.52 0.57
0.33 0.29 0.22 0.14 0.10 0.07 0.06 0.11 0.23 0.32 0.32 0.23 0.14 0.13 0.16 0.21 0.46 0.47 0.36 0.38 0.28 0.13 0.20 0.22 0.15 0.18 0.17 0.19 0.30 0.30 0.30 0.36 0.43 0.44 0.42 0.39 0.38 0.31
0.24 0.12 0.05 0.02 0.01 0.03 0.08 0.22 0.16 0.11 0.05 0.06 0.07 0.11 0.20 0.24 0.31 0.47 0.47 0.39 0.30 0.20 0.18 0.33 0.12 0.12 0.15 0.14 0.26 0.33 0.35 0.44 0.52 0.52 0.52 0.51 0.46 0.43
0.03 0.01 0.02 0.03 0.02 0.11 0.17 0.23 0.08 0.01 0.02 0.06 0.14 0.14 0.19 0.27 0.32 0.49 0.57 0.54 0.47 0.24 0.19 0.33 0.22 0.19 0.16 0.16 0.25 0.46 0.47 0.40 0.35 0.33 0.31 0.34 0.39 0.43
0.00 0.00 0.02 0.03 0.07 0.23 0.17 0.05 0.03 0.03 0.12 0.16 0.15 0.15 0.16 0.17 0.24 0.22 0.40 0.91 0.70 0.62 0.31 0.75 0.57 0.47 0.74 0.28 0.19 0.21 0.31 0.35 0.40 0.39 0.39 0.38 0.39 0.34
0.02 0.01 0.01 0.07 0.19 0.16 0.10 0.05 0.07 0.10 0.14 0.15 0.13 0.13 0.16 0.21 0.28 0.30 0.34 0.77 1.09 0.78 0.27 1.12 1.20 0.63 0.99 0.55 0.31 0.31 0.37 0.43 0.50 0.47 0.48 0.49 0.46 0.47
0.05 0.03 0.07 0.25 0.17 0.09 0.09 0.10 0.13 0.16 0.12 0.10 0.11 0.12 0.15 0.18 0.22 0.31 0.43 0.57 0.72 1.01 0.57 0.74 1.49 0.66 1.13 0.77 0.34 0.28 0.31 0.40 0.66 0.79 0.80 0.75 0.67 0.57
0.11 0.18 0.29 0.31 0.26 0.22 0.21 0.19 0.19 0.18 0.13 0.17 0.13 0.11 0.13 0.20 0.33 0.41 0.35 0.27 0.32 0.45 0.57 0.62 0.97 0.81 0.94 0.79 0.47 0.31 0.45 0.36 0.66 0.89 0.73 0.58 0.55 0.57
0.19 0.25 0.22 0.25 0.30 0.28 0.31 0.40 0.39 0.30 0.28 0.32 0.31 0.30 0.35 0.36 0.33 0.36 0.46 0.35 0.47 0.34 0.39 0.47 0.65 0.84 0.82 0.43 0.55 0.45 0.37 0.61 0.57 0.63 0.64 0.50 0.49 0.61
0.34 0.23 0.22 0.17 0.18 0.23 0.26 0.29 0.38 0.37 0.46 0.50 0.61 0.57 0.50 0.41 0.33 0.32 0.45 0.52 0.55 0.37 0.40 0.43 0.43 0.45 0.48 0.51 0.60 0.34 0.35 0.43 0.66 0.84 0.74 0.62 0.62 0.92
0.42 0.25 0.17 0.15 0.16 0.17 0.21 0.26 0.35 0.42 0.44 0.52 0.56 0.62 0.66 0.55 0.47 0.37 0.41 0.53 0.54 0.41 0.41 0.38 0.46 0.48 0.40 0.30 0.43 0.59 0.57 0.53 0.70 0.80 0.75 0.90 0.81 0.89
0.36 0.22 0.20 0.18 0.16 0.18 0.24 0.32 0.34 0.31 0.42 0.56 0.60 0.58 0.62 0.55 0.53 0.49 0.44 0.44 0.37 0.33 0.36 0.38 0.47 0.75 0.90 0.47 0.30 0.57 1.04 0.88 0.67 0.63 0.63 0.69 0.91 1.00
0.16 0.16 0.22 0.21 0.23 0.27 0.31 0.37 0.40 0.38 0.40 0.38 0.47 0.46 0.51 0.62 0.50 0.43 0.44 0.53 0.52 0.42 0.31 0.27 0.32 0.68 1.26 1.09 0.90 0.67 0.63 0.95 1.01 0.98 0.87 0.71 0.88 0.78
0.16 0.18 0.21 0.28 0.33 0.36 0.38 0.41 0.43 0.44 0.47 0.50 0.38 0.39 0.38 0.58 0.41 0.30 0.42 0.46 0.52 0.44 0.35 0.22 0.22 0.40 0.68 0.72 0.67 0.42 0.50 0.58 0.74 1.25 1.20 0.92 0.62 0.37
0.27 0.33 0.34 0.40 0.44 0.46 0.47 0.46 0.43 0.34 0.32 0.30 0.31 0.38 0.39 0.51 0.53 0.38 0.37 0.49 0.38 0.41 0.44 0.27 0.19 0.22 0.38 0.64 0.48 0.36 0.28 0.29 0.27 0.20 0.54 1.36 1.60 1.68
0.37 0.41 0.39 0.44 0.48 0.48 0.45 0.40 0.37 0.31 0.33 0.42 0.40 0.40 0.44 0.53 0.39 0.41 0.39 0.39 0.44 0.53 0.38 0.33 0.20 0.21 0.24 0.36 0.40 0.37 0.24 0.21 0.24 0.23 0.42 0.54 0.82 1.17

GFSNE_prec_precacc_138.txt.gz
Total_Precipitation_Accumulation
0.62 0.68 0.71 0.60 0.65 0.82 0.97 1.13 1.44 1.41 0.87 0.61 0.65 0.64 0.64 0.67 0.77 0.74 0.70 0.95 0.99 0.96 0.97 1.02 1.11 1.16 0.92 0.94 0.94 1.05 1.25 0.96 1.20 1.10 0.99 0.95 1.10 1.46
0.58 0.61 0.62 0.65 0.75 0.81 0.83 0.97 1.26 1.53 1.46 0.83 0.76 0.79 0.84 0.93 1.08 0.99 0.94 1.11 1.02 1.00 0.92 0.82 0.77 0.64 0.47 0.49 0.57 0.52 0.44 0.43 0.55 0.85 1.06 1.13 1.25 1.49
0.65 0.66 0.66 0.65 0.70 0.71 0.78 0.90 1.07 1.28 1.52 1.31 1.21 1.15 1.17 1.15 1.09 0.91 0.76 0.57 0.51 0.54 0.46 0.38 0.29 0.26 0.24 0.24 0.25 0.28 0.31 0.38 0.44 0.58 0.86 1.27 1.28 1.09
0.80 0.87 0.82 0.78 0.77 0.78 0.87 0.97 1.18 1.43 1.71 1.72 1.59 1.45 1.23 0.93 0.67 0.47 0.33 0.22 0.16 0.22 0.19 0.15 0.16 0.16 0.14 0.15 0.19 0.21 0.23 0.28 0.38 0.51 0.60 0.69 0.84 0.80
0.69 0.68 0.73 0.86 1.05 1.18 1.28 1.30 1.26 1.16 1.07 0.96 0.75 0.61 0.50 0.40 0.32 0.25 0.19 0.14 0.11 0.18 0.18 0.16 0.17 0.14 0.12 0.13 0.16 0.18 0.22 0.20 0.19 0.22 0.36 0.40 0.45 0.60
0.49 0.47 0.50 0.57 0.64 0.68 0.71 0.67 0.59 0.52 0.46 0.43 0.46 0.42 0.37 0.30 0.31 0.30 0.28 0.25 0.22 0.19 0.20 0.18 0.20 0.19 0.17 0.15 0.12 0.09 0.08 0.09 0.12 0.17 0.30 0.47 0.46 0.48
0.56 0.54 0.51 0.51 0.47 0.40 0.37 0.35 0.39 0.44 0.57 0.69 0.61 0.53 0.38 0.28 0.26 0.25 0.26 0.22 0.23 0.19 0.17 0.17 0.19 0.18 0.16 0.18 0.15 0.14 0.14 0.18 0.26 0.32 0.36 0.49 0.63 0.68
0.36 0.32 0.31 0.35 0.27 0.24 0.21 0.20 0.23 0.41 0.55 0.65 0.59 0.39 0.23 0.24 0.27 0.30 0.40 0.39 0.35 0.16 0.20 0.17 0.14 0.14 0.10 0.10 0.15 0.17 0.18 0.23 0.27 0.32 0.35 0.40 0.52 0.57
0.33 0.29 0.22 0.14 0.10 0.07 0.06 0.11 0.23 0.32 0.32 0.23 0.14 0.13 0.16 0.21 0.46 0.47 0.36 0.38 0.28 0.13 0.20 0.22 0.15 0.18 0.17 0.19 0.30 0.30 0.31 0.37 0.43 0.44 0.42 0.39 0.38 0.31
0.24 0.12 0.05 0.02 0.01 0.03 0.08 0.22 0.16 0.11 0.05 0.06 0.07 0.11 0.20 0.24 0.31 0.47 0.47 0.39 0.30 0.20 0.18 0.33 0.12 0.12 0.15 0.14 0.26 0.33 0.36 0.44 0.52 0.52 0.52 0.51 0.47 0.43
0.03 0.01 0.02 0.03 0.02 0.11 0.17 0.23 0.08 0.01 0.02 0.06 0.14 0.14 0.19 0.27 0.32 0.49 0.57 0.54 0.47 0.24 0.19 0.33 0.23 0.19 0.16 0.16 0.25 0.47 0.47 0.40 0.35 0.33 0.31 0.36 0.40 0.44
0.00 0.00 0.02 0.03 0.07 0.23 0.17 0.05 0.03 0.03 0.12 0.16 0.15 0.15 0.16 0.17 0.24 0.22 0.40 0.91 0.70 0.62 0.31 0.76 0.57 0.47 0.75 0.28 0.19 0.21 0.31 0.35 0.40 0.39 0.39 0.38 0.40 0.34
0.02 0.01 0.01 0.07 0.19 0.16 0.10 0.05 0.07 0.10 0.14 0.15 0.13 0.13 0.16 0.21 0.28 0.30 0.34 0.77 1.09 0.79 0.27 1.14 1.22 0.63 1.00 0.56 0.31 0.31 0.37 0.43 0.50 0.47 0.48 0.49 0.47 0.47
0.05 0.03 0.07 0.25 0.17 0.09 0.09 0.10 0.13 0.16 0.12 0.10 0.11 0.12 0.15 0.18 0.22 0.31 0.43 0.57 0.72 1.01 0.57 0.75 1.53 0.68 1.15 0.78 0.34 0.28 0.31 0.40 0.66 0.79 0.80 0.75 0.67 0.57
0.11 0.18 0.29 0.31 0.26 0.22 0.21 0.19 0.19 0.18 0.13 0.17 0.13 0.11 0.13 0.20 0.33 0.41 0.35 0.27 0.32 0.45 0.57 0.63 0.99 0.82 0.96 0.82 0.49 0.31 0.45 0.36 0.66 0.89 0.73 0.58 0.55 0.57
0.19 0.25 0.22 0.25 0.30 0.28 0.31 0.40 0.39 0.30 0.28 0.32 0.31 0.30 0.35 0.36 0.33 0.36 0.46 0.35 0.47 0.34 0.39 0.47 0.65 0.87 0.85 0.44 0.56 0.45 0.37 0.61 0.57 0.63 0.64 0.50 0.49 0.61
0.34 0.23 0.22 0.17 0.18 0.23 0.26 0.29 0.38 0.37 0.46 0.50 0.61 0.57 0.50 0.41 0.33 0.32 0.46 0.52 0.56 0.37 0.40 0.43 0.43 0.45 0.49 0.52 0.60 0.34 0.35 0.43 0.66 0.84 0.75 0.62 0.62 0.92
0.42 0.25 0.17 0.15 0.16 0.17 0.21 0.26 0.35 0.42 0.44 0.52 0.56 0.62 0.67 0.55 0.47 0.37 0.41 0.54 0.55 0.41 0.41 0.38 0.46 0.48 0.40 0.30 0.43 0.59 0.57 0.53 0.70 0.80 0.75 0.91 0.81 0.89
0.36 0.22 0.20 0.18 0.16 0.18 0.24 0.32 0.34 0.31 0.42 0.56 0.60 0.58 0.62 0.55 0.53 0.49 0.44 0.44 0.38 0.33 0.36 0.39 0.48 0.77 0.91 0.47 0.30 0.57 1.05 0.88 0.67 0.64 0.63 0.69 0.91 1.00
0.16 0.16 0.22 0.21 0.23 0.27 0.31 0.37 0.40 0.38 0.40 0.38 0.47 0.46 0.51 0.62 0.50 0.43 0.44 0.53 0.53 0.42 0.31 0.27 0.32 0.70 1.29 1.11 0.91 0.67 0.63 0.96 1.02 0.98 0.87 0.71 0.88 0.78
0.16 0.18 0.21 0.28 0.33 0.36 0.38 0.41 0.43 0.44 0.47 0.50 0.38 0.39 0.38 0.58 0.41 0.30 0.42 0.46 0.52 0.44 0.36 0.23 0.22 0.42 0.71 0.74 0.67 0.42 0.50 0.58 0.74 1.25 1.21 0.92 0.62 0.41
0.27 0.33 0.34 0.40 0.44 0.46 0.47 0.46 0.43 0.34 0.32 0.30 0.31 0.38 0.39 0.51 0.53 0.38 0.37 0.49 0.38 0.41 0.45 0.27 0.19 0.22 0.39 0.65 0.48 0.36 0.28 0.29 0.27 0.21 0.57 1.39 1.64 1.74
0.37 0.41 0.39 0.44 0.48 0.48 0.45 0.40 0.37 0.31 0.33 0.42 0.41 0.41 0.44 0.53 0.39 0.41 0.40 0.39 0.45 0.53 0.38 0.33 0.20 0.21 0.25 0.37 0.41 0.37 0.24 0.21 0.25 0.27 0.47 0.59 0.87 1.24

GFSNE_prec_precacc_141.txt.gz
Total_Precipitation_Accumulation
0.65 0.72 0.76 0.66 0.69 0.86 1.16 1.44 1.78 1.66 1.00 0.67 0.70 0.65 0.64 0.67 0.77 0.74 0.72 1.03 1.04 1.00 0.98 1.03 1.13 1.20 0.96 0.99 0.97 1.06 1.25 0.96 1.20 1.10 0.99 0.95 1.10 1.46
0.62 0.67 0.68 0.69 0.78 0.83 0.86 1.01 1.36 1.72 1.66 0.87 0.77 0.80 0.84 0.93 1.09 0.99 0.95 1.13 1.03 1.01 0.94 0.86 0.83 0.70 0.52 0.51 0.57 0.52 0.44 0.43 0.55 0.85 1.06 1.13 1.25 1.49
0.67 0.70 0.70 0.69 0.74 0.73 0.79 0.91 1.08 1.29 1.53 1.32 1.23 1.17 1.18 1.16 1.11 0.92 0.78 0.58 0.54 0.59 0.49 0.40 0.30 0.27 0.24 0.24 0.25 0.28 0.31 0.38 0.44 0.58 0.86 1.27 1.28 1.09
0.80 0.87 0.82 0.78 0.77 0.80 0.88 0.98 1.18 1.43 1.71 1.72 1.60 1.47 1.26 0.97 0.70 0.49 0.35 0.23 0.17 0.25 0.20 0.16 0.16 0.16 0.14 0.15 0.19 0.21 0.23 0.28 0.38 0.51 0.60 0.69 0.84 0.80
0.69 0.68 0.73 0.86 1.05 1.19 1.28 1.30 1.26 1.16 1.07 0.96 0.76 0.62 0.52 0.42 0.33 0.25 0.19 0.14 0.11 0.18 0.18 0.16 0.17 0.14 0.12 0.13 0.16 0.18 0.22 0.20 0.19 0.22 0.36 0.40 0.45 0.61
0.49 0.47 0.50 0.57 0.64 0.68 0.71 0.67 0.59 0.52 0.46 0.43 0.47 0.43 0.37 0.30 0.31 0.30 0.28 0.25 0.22 0.19 0.20 0.18 0.20 0.19 0.17 0.15 0.12 0.09 0.08 0.09 0.13 0.17 0.31 0.48 0.47 0.49
0.56 0.54 0.51 0.51 0.47 0.40 0.37 0.35 0.39 0.44 0.57 0.70 0.62 0.53 0.38 0.28 0.26 0.25 0.26 0.22 0.23 0.19 0.17 0.17 0.19 0.18 0.16 0.18 0.15 0.14 0.14 0.19 0.27 0.33 0.37 0.49 0.63 0.68
0.36 0.32 0.31 0.35 0.27 0.24 0.21 0.20 0.23 0.41 0.55 0.65 0.59 0.39 0.23 0.24 0.27 0.30 0.40 0.39 0.35 0.16 0.20 0.17 0.14 0.14 0.10 0.10 0.15 0.17 0.19 0.23 0.29 0.32 0.35 0.41 0.53 0.57
0.33 0.29 0.22 0.14 0.10 0.07 0.06 0.11 0.23 0.32 0.32 0.23 0.14 0.13 0.16 0.21 0.46 0.47 0.36 0.38 0.28 0.13 0.20 0.22 0.15 0.18 0.17 0.19 0.30 0.30 0.31 0.37 0.43 0.44 0.42 0.39 0.38 0.32
0.24 0.12 0.05 0.02 0.01 0.03 0.08 0.22 0.16 0.11 0.05 0.06 0.07 0.11 0.20 0.24 0.31 0.47 0.47 0.39 0.30 0.20 0.18 0.33 0.12 0.12 0.15 0.14 0.26 0.33 0.36 0.44 0.52 0.53 0.53 0.52 0.48 0.44
0.03 0.01 0.02 0.03 0.02 0.11 0.17 0.23 0.08 0.01 0.02 0.06 0.14 0.14 0.19 0.27 0.32 0.49 0.57 0.54 0.47 0.24 0.19 0.33 0.23 0.19 0.16 0.16 0.25 0.47 0.47 0.40 0.35 0.33 0.32 0.36 0.41 0.44
0.00 0.00 0.02 0.03 0.07 0.23 0.17 0.05 0.03 0.03 0.12 0.16 0.15 0.15 0.16 0.17 0.24 0.22 0.40 0.91 0.71 0.62 0.31 0.76 0.57 0.48 0.75 0.28 0.19 0.21 0.31 0.35 0.40 0.39 0.40 0.39 0.40 0.35
0.02 0.01 0.01 0.07 0.19 0.16 0.10 0.05 0.07 0.10 0.14 0.15 0.13 0.13 0.16 0.21 0.28 0.30 0.34 0.77 1.09 0.79 0.27 1.15 1.23 0.63 1.01 0.56 0.31 0.31 0.37 0.43 0.50 0.47 0.48 0.49 0.47 0.48
0.05 0.03 0.07 0.25 0.17 0.09 0.09 0.10 0.13 0.16 0.12 0.10 0.11 0.12 0.15 0.18 0.22 0.31 0.43 0.57 0.72 1.01 0.57 0.75 1.55 0.70 1.18 0.79 0.34 0.28 0.31 0.40 0.66 0.79 0.80 0.75 0.67 0.57
0.11 0.18 0.29 0.31 0.26 0.22 0.21 0.19 0.19 0.18 0.13 0.17 0.13 0.11 0.13 0.20 0.33 0.41 0.35 0.27 0.32 0.45 0.57 0.63 1.01 0.84 0.98 0.83 0.49 0.31 0.45 0.36 0.66 0.89 0.73 0.58 0.55 0.57
0.19 0.25 0.22 0.25 0.30 0.28 0.31 0.40 0.39 0.30 0.28 0.32 0.31 0.30 0.35 0.36 0.33 0.36 0.46 0.35 0.47 0.34 0.39 0.47 0.65 0.88 0.86 0.44 0.57 0.45 0.37 0.62 0.57 0.63 0.64 0.50 0.49 0.61
0.34 0.23 0.22 0.17 0.18 0.23 0.26 0.29 0.38 0.37 0.46 0.50 0.61 0.57 0.50 0.41 0.33 0.32 0.46 0.52 0.56 0.37 0.40 0.43 0.43 0.45 0.49 0.52 0.60 0.34 0.35 0.44 0.66 0.84 0.75 0.62 0.62 0.92
0.42 0.25 0.17 0.15 0.16 0.17 0.21 0.26 0.35 0.42 0.44 0.52 0.56 0.62 0.67 0.55 0.47 0.37 0.41 0.54 0.55 0.41 0.41 0.38 0.46 0.48 0.40 0.30 0.43 0.59 0.57 0.53 0.70 0.80 0.75 0.91 0.81 0.89
0.36 0.22 0.20 0.18 0.16 0.18 0.24 0.32 0.34 0.31 0.42 0.56 0.60 0.58 0.62 0.55 0.53 0.49 0.44 0.44 0.38 0.33 0.36 0.39 0.48 0.78 0.91 0.47 0.30 0.57 1.06 0.88 0.67 0.64 0.63 0.69 0.91 1.00
0.16 0.16 0.22 0.21 0.23 0.27 0.31 0.37 0.40 0.38 0.40 0.38 0.47 0.46 0.51 0.62 0.50 0.43 0.44 0.53 0.53 0.42 0.31 0.27 0.32 0.70 1.31 1.13 0.93 0.67 0.63 0.96 1.02 0.98 0.87 0.71 0.88 0.78
0.16 0.18 0.21 0.28 0.33 0.36 0.38 0.41 0.43 0.44 0.47 0.50 0.38 0.39 0.38 0.59 0.41 0.30 0.42 0.46 0.52 0.44 0.36 0.23 0.22 0.42 0.72 0.75 0.68 0.42 0.50 0.58 0.75 1.25 1.21 0.93 0.62 0.41
0.27 0.33 0.34 0.40 0.44 0.46 0.47 0.46 0.43 0.34 0.32 0.30 0.31 0.38 0.40 0.52 0.54 0.38 0.37 0.49 0.38 0.42 0.45 0.27 0.19 0.22 0.39 0.65 0.48 0.36 0.28 0.29 0.27 0.21 0.58 1.44 1.68 1.78
0.37 0.41 0.39 0.44 0.48 0.48 0.45 0.40 0.37 0.31 0.33 0.42 0.41 0.41 0.44 0.54 0.39 0.42 0.40 0.39 0.45 0.53 0.38 0.34 0.20 0.21 0.25 0.38 0.41 0.37 0.24 0.21 0.26 0.28 0.49 0.63 0.94 1.31

GFSNE_prec_precacc_144.txt.gz
Total_Precipitation_Accumulation
0.67 0.76 0.81 0.70 0.75 0.90 1.19 1.49 1.89 1.80 1.10 0.73 0.74 0.67 0.65 0.67 0.78 0.74 0.72 1.04 1.05 1.02 1.03 1.09 1.18 1.24 0.99 1.00 0.98 1.08 1.27 0.97 1.21 1.11 0.99 0.95 1.10 1.46
0.63 0.70 0.73 0.74 0.85 0.91 0.92 1.06 1.41 1.79 1.73 1.02 0.90 0.87 0.87 0.94 1.09 0.99 0.95 1.14 1.04 1.02 0.94 0.87 0.83 0.71 0.53 0.52 0.58 0.53 0.44 0.43 0.55 0.85 1.06 1.13 1.25 1.49
0.67 0.71 0.72 0.72 0.80 0.81 0.86 0.96 1.12 1.32 1.57 1.36 1.25 1.18 1.18 1.16 1.11 0.93 0.78 0.58 0.55 0.62 0.50 0.41 0.32 0.28 0.25 0.24 0.25 0.28 0.31 0.38 0.44 0.58 0.86 1.27 1.28 1.09
0.80 0.87 0.82 0.78 0.78 0.80 0.89 0.99 1.19 1.44 1.72 1.73 1.60 1.47 1.26 0.97 0.70 0.50 0.35 0.24 0.17 0.25 0.20 0.16 0.17 0.16 0.14 0.15 0.19 0.21 0.23 0.28 0.38 0.51 0.60 0.69 0.84 0.80
0.69 0.68 0.73 0.86 1.05 1.19 1.28 1.30 1.27 1.16 1.08 0.96 0.76 0.62 0.53 0.42 0.33 0.26 0.19 0.15 0.11 0.18 0.18 0.16 0.17 0.14 0.12 0.13 0.16 0.18 0.22 0.20 0.19 0.22 0.36 0.40 0.45 0.61
0.49 0.47 0.50 0.57 0.64 0.68 0.71 0.67 0.59 0.52 0.46 0.43 0.47 0.43 0.38 0.30 0.31 0.30 0.28 0.25 0.22 0.19 0.20 0.18 0.20 0.19 0.17 0.15 0.12 0.09 0.08 0.09 0.13 0.18 0.31 0.48 0.47 0.49
0.56 0.54 0.51 0.51 0.47 0.40 0.37 0.35 0.39 0.44 0.57 0.70 0.62 0.53 0.38 0.28 0.26 0.25 0.26 0.22 0.23 0.19 0.17 0.17 0.19 0.18 0.16 0.18 0.15 0.14 0.14 0.19 0.27 0.33 0.37 0.50 0.64 0.68
0.36 0.32 0.31 0.35 0.27 0.24 0.21 0.20 0.23 0.41 0.55 0.65 0.59 0.39 0.23 0.24 0.27 0.30 0.40 0.39 0.35 0.16 0.20 0.17 0.14 0.14 0.10 0.10 0.15 0.17 0.19 0.23 0.29 0.33 0.35 0.41 0.53 0.57
0.33 0.29 0.22 0.14 0.10 0.07 0.06 0.11 0.23 0.32 0.32 0.23 0.14 0.13 0.16 0.21 0.46 0.47 0.36 0.38 0.28 0.13 0.20 0.22 0.15 0.18 0.17 0.19 0.30 0.30 0.31 0.38 0.44 0.44 0.42 0.39 0.38 0.32
0.24 0.12 0.05 0.02 0.01 0.03 0.08 0.22 0.16 0.11 0.05 0.06 0.07 0.11 0.20 0.24 0.31 0.47 0.47 0.39 0.30 0.20 0.18 0.33 0.12 0.12 0.15 0.14 0.26 0.33 0.36 0.44 0.52 0.53 0.53 0.52 0.48 0.45
0.03 0.01 0.02 0.03 0.02 0.11 0.17 0.23 0.08 0.01 0.02 0.06 0.14 0.14 0.19 0.27 0.32 0.49 0.57 0.54 0.47 0.24 0.19 0.33 0.23 0.19 0.16 0.16 0.25 0.47 0.47 0.40 0.35 0.33 0.32 0.37 0.41 0.45
0.00 0.00 0.02 0.03 0.07 0.23 0.17 0.05 0.03 0.03 0.12 0.16 0.15 0.15 0.16 0.17 0.24 0.22 0.40 0.91 0.71 0.62 0.31 0.76 0.57 0.48 0.75 0.28 0.19 0.21 0.31 0.35 0.40 0.39 0.40 0.39 0.41 0.35
0.02 0.01 0.01 0.07 0.19 0.16 0.10 0.05 0.07 0.10 0.14 0.15 0.13 0.13 0.16 0.21 0.28 0.30 0.34 0.77 1.09 0.79 0.27 1.15 1.23 0.64 1.01 0.56 0.31 0.31 0.37 0.43 0.50 0.47 0.48 0.49 0.47 0.48
0.05 0.03 0.07 0.25 0.17 0.09 0.09 0.10 0.13 0.16 0.12 0.10 0.11 0.12 0.15 0.18 0.22 0.31 0.43 0.57 0.72 1.01 0.57 0.75 1.56 0.71 1.19 0.80 0.35 0.28 0.31 0.40 0.66 0.79 0.80 0.75 0.67 0.57
0.11 0.18 0.29 0.31 0.26 0.22 0.21 0.19 0.19 0.18 0.13 0.17 0.13 0.11 0.13 0.20 0.33 0.41 0.35 0.27 0.32 0.45 0.57 0.63 1.01 0.84 0.99 0.84 0.50 0.31 0.45 0.36 0.66 0.89 0.73 0.58 0.55 0.57
0.19 0.25 0.22 0.25 0.30 0.28 0.31 0.40 0.39 0.30 0.28 0.32 0.31 0.30 0.35 0.36 0.33 0.36 0.46 0.35 0.47 0.34 0.39 0.47 0.65 0.88 0.86 0.44 0.57 0.46 0.37 0.62 0.58 0.63 0.64 0.50 0.49 0.61
0.34 0.23 0.22 0.17 0.18 0.23 0.26 0.29 0.38 0.37 0.46 0.50 0.61 0.57 0.50 0.41 0.33 0.32 0.46 0.52 0.56 0.37 0.40 0.43 0.43 0.45 0.49 0.52 0.61 0.34 0.36 0.44 0.66 0.84 0.75 0.62 0.62 0.92
0.42 0.25 0.17 0.15 0.16 0.17 0.21 0.26 0.35 0.42 0.44 0.52 0.56 0.62 0.67 0.55 0.47 0.37 0.41 0.54 0.55 0.41 0.41 0.38 0.46 0.48 0.40 0.30 0.43 0.59 0.57 0.53 0.71 0.80 0.75 0.91 0.81 0.89
0.36 0.22 0.20 0.18 0.16 0.18 0.24 0.32 0.34 0.31 0.42 0.56 0.60 0.58 0.62 0.55 0.53 0.49 0.44 0.44 0.38 0.33 0.36 0.39 0.48 0.78 0.92 0.47 0.30 0.57 1.06 0.89 0.67 0.64 0.63 0.69 0.91 1.00
0.16 0.16 0.22 0.21 0.23 0.27 0.31 0.37 0.40 0.38 0.40 0.39 0.47 0.46 0.51 0.62 0.50 0.43 0.44 0.54 0.53 0.42 0.31 0.27 0.32 0.71 1.32 1.14 0.94 0.67 0.63 0.96 1.02 0.98 0.88 0.71 0.88 0.78
0.16 0.18 0.21 0.28 0.33 0.36 0.38 0.41 0.43 0.44 0.47 0.50 0.38 0.39 0.38 0.59 0.41 0.31 0.43 0.46 0.52 0.44 0.36 0.23 0.22 0.42 0.72 0.76 0.69 0.42 0.50 0.58 0.75 1.26 1.22 0.94 0.62 0.41
0.27 0.33 0.34 0.40 0.44 0.46 0.47 0.46 0.43 0.34 0.32 0.30 0.32 0.38 0.40 0.52 0.54 0.38 0.38 0.49 0.38 0.42 0.45 0.27 0.19 0.22 0.39 0.66 0.48 0.37 0.28 0.29 0.27 0.21 0.59 1.46 1.72 1.80
0.37 0.41 0.39 0.44 0.48 0.48 0.45 0.40 0.37 0.31 0.33 0.42 0.41 0.41 0.44 0.54 0.39 0.42 0.40 0.39 0.45 0.53 0.39 0.34 0.20 0.21 0.25 0.38 0.42 0.38 0.24 0.21 0.26 0.28 0.49 0.63 0.95 1.34